Wetterdaten: Dienstag, 31.12.2024
Datum Zeit Temp. I. Temp. A. Feuchte I. Feuchte A. Luftdruck Regen Wind Richtung Richtung Sonnenschein Solar Taupunkt Windchill Windböen
31.12.2024 00:00 21,9 °C 0,4 °C 51 % 89 % 1027,1 hPa 0,0 l/m² 8,9 km/h (2 Bft) S-SW 194 ° 0 min 0 W/m² -1,2 °C -2,1 °C 12,9 km/h (3 Bft)
31.12.2024 00:01 21,9 °C 0,4 °C 51 % 89 % 1027,0 hPa 0,0 l/m² 6,8 km/h (2 Bft) S 190 ° 0 min 0 W/m² -1,2 °C 0,0 °C 8,0 km/h (2 Bft)
31.12.2024 00:02 21,9 °C 0,4 °C 51 % 89 % 1027,1 hPa 0,0 l/m² 8,9 km/h (2 Bft) S-SW 197 ° 0 min 0 W/m² -1,2 °C -2,1 °C 14,5 km/h (3 Bft)
31.12.2024 00:04 21,9 °C 0,4 °C 51 % 89 % 1027,0 hPa 0,0 l/m² 11,4 km/h (2 Bft) S-SW 210 ° 0 min 0 W/m² -1,2 °C -4,1 °C 14,5 km/h (3 Bft)
31.12.2024 00:06 21,9 °C 0,3 °C 51 % 89 % 1027,0 hPa 0,0 l/m² 13,3 km/h (3 Bft) S-SW 200 ° 0 min 0 W/m² -1,3 °C -5,6 °C 16,1 km/h (3 Bft)
31.12.2024 00:08 21,9 °C 0,3 °C 51 % 89 % 1026,9 hPa 0,0 l/m² 13,5 km/h (3 Bft) S-SW 205 ° 0 min 0 W/m² -1,3 °C -5,7 °C 16,1 km/h (3 Bft)
31.12.2024 00:10 21,9 °C 0,3 °C 51 % 89 % 1026,9 hPa 0,0 l/m² 14,0 km/h (3 Bft) S-SW 209 ° 0 min 0 W/m² -1,3 °C -6,0 °C 17,7 km/h (3 Bft)
31.12.2024 00:11 21,9 °C 0,3 °C 51 % 89 % 1026,9 hPa 0,0 l/m² 13,6 km/h (3 Bft) S-SW 211 ° 0 min 0 W/m² -1,3 °C -5,7 °C 19,3 km/h (3 Bft)
31.12.2024 00:12 21,9 °C 0,3 °C 51 % 89 % 1026,9 hPa 0,0 l/m² 13,4 km/h (3 Bft) S-SW 209 ° 0 min 0 W/m² -1,3 °C -5,6 °C 16,1 km/h (3 Bft)
31.12.2024 00:13 21,9 °C 0,3 °C 51 % 89 % 1027,0 hPa 0,0 l/m² 11,8 km/h (2 Bft) S-SW 207 ° 0 min 0 W/m² -1,3 °C -4,5 °C 14,5 km/h (3 Bft)
31.12.2024 00:15 21,9 °C 0,3 °C 51 % 89 % 1027,1 hPa 0,0 l/m² 9,5 km/h (2 Bft) SW 217 ° 0 min 0 W/m² -1,3 °C -2,7 °C 11,3 km/h (2 Bft)
31.12.2024 00:17 21,9 °C 0,3 °C 51 % 89 % 1027,1 hPa 0,0 l/m² 10,0 km/h (2 Bft) S-SW 202 ° 0 min 0 W/m² -1,3 °C -3,1 °C 14,5 km/h (3 Bft)
31.12.2024 00:19 21,9 °C 0,2 °C 51 % 89 % 1027,2 hPa 0,0 l/m² 9,2 km/h (2 Bft) S-SW 211 ° 0 min 0 W/m² -1,4 °C -2,5 °C 12,9 km/h (3 Bft)
31.12.2024 00:21 21,9 °C 0,2 °C 51 % 89 % 1027,1 hPa 0,0 l/m² 9,2 km/h (2 Bft) S-SW 201 ° 0 min 0 W/m² -1,4 °C -2,5 °C 11,3 km/h (2 Bft)
31.12.2024 00:22 21,9 °C 0,2 °C 51 % 89 % 1027,3 hPa 0,0 l/m² 6,1 km/h (2 Bft) S-SW 199 ° 0 min 0 W/m² -1,4 °C 0,2 °C 8,0 km/h (2 Bft)
31.12.2024 00:24 21,9 °C 0,2 °C 51 % 89 % 1027,2 hPa 0,0 l/m² 5,0 km/h (1 Bft) S 173 ° 0 min 0 W/m² -1,4 °C 0,2 °C 8,0 km/h (2 Bft)
31.12.2024 00:26 21,9 °C 0,2 °C 51 % 89 % 1027,2 hPa 0,0 l/m² 4,0 km/h (1 Bft) S 171 ° 0 min 0 W/m² -1,4 °C 0,2 °C 11,3 km/h (2 Bft)
31.12.2024 00:28 21,9 °C 0,1 °C 51 % 89 % 1027,1 hPa 0,0 l/m² 5,5 km/h (2 Bft) S 190 ° 0 min 0 W/m² -1,5 °C 0,1 °C 9,7 km/h (2 Bft)
31.12.2024 00:30 21,9 °C 0,1 °C 51 % 89 % 1027,2 hPa 0,0 l/m² 7,2 km/h (2 Bft) S-SW 193 ° 0 min 0 W/m² -1,5 °C -0,7 °C 9,7 km/h (2 Bft)
31.12.2024 00:31 21,8 °C 0,1 °C 51 % 89 % 1027,1 hPa 0,0 l/m² 8,0 km/h (2 Bft) S-SW 213 ° 0 min 0 W/m² -1,5 °C -1,5 °C 9,7 km/h (2 Bft)
31.12.2024 00:33 21,8 °C 0,1 °C 51 % 89 % 1027,1 hPa 0,0 l/m² 10,2 km/h (2 Bft) S-SW 197 ° 0 min 0 W/m² -1,5 °C -3,5 °C 14,5 km/h (3 Bft)
31.12.2024 00:35 21,8 °C 0,1 °C 51 % 89 % 1026,9 hPa 0,0 l/m² 14,3 km/h (3 Bft) S-SW 211 ° 0 min 0 W/m² -1,5 °C -6,4 °C 19,3 km/h (3 Bft)
31.12.2024 00:37 21,8 °C 0,1 °C 51 % 89 % 1026,9 hPa 0,0 l/m² 14,2 km/h (3 Bft) S-SW 201 ° 0 min 0 W/m² -1,5 °C -6,4 °C 17,7 km/h (3 Bft)
31.12.2024 00:39 21,8 °C 0,2 °C 51 % 89 % 1026,9 hPa 0,0 l/m² 14,7 km/h (3 Bft) S-SW 209 ° 0 min 0 W/m² -1,4 °C -6,6 °C 19,3 km/h (3 Bft)
31.12.2024 00:41 21,8 °C 0,2 °C 51 % 89 % 1026,9 hPa 0,0 l/m² 12,9 km/h (3 Bft) S-SW 207 ° 0 min 0 W/m² -1,4 °C -5,4 °C 16,1 km/h (3 Bft)
31.12.2024 00:42 21,8 °C 0,2 °C 51 % 89 % 1026,9 hPa 0,0 l/m² 8,4 km/h (2 Bft) S-SW 207 ° 0 min 0 W/m² -1,4 °C -1,8 °C 11,3 km/h (2 Bft)
31.12.2024 00:44 21,8 °C 0,2 °C 51 % 89 % 1026,9 hPa 0,0 l/m² 10,8 km/h (2 Bft) S 190 ° 0 min 0 W/m² -1,4 °C -3,9 °C 16,1 km/h (3 Bft)
31.12.2024 00:46 21,8 °C 0,2 °C 51 % 89 % 1026,9 hPa 0,0 l/m² 9,7 km/h (2 Bft) S-SW 196 ° 0 min 0 W/m² -1,4 °C -3,0 °C 12,9 km/h (3 Bft)
31.12.2024 00:47 21,8 °C 0,1 °C 51 % 89 % 1026,9 hPa 0,0 l/m² 10,7 km/h (2 Bft) S 182 ° 0 min 0 W/m² -1,5 °C -3,9 °C 16,1 km/h (3 Bft)
31.12.2024 00:48 21,8 °C 0,2 °C 51 % 89 % 1026,9 hPa 0,0 l/m² 11,8 km/h (2 Bft) S-SW 208 ° 0 min 0 W/m² -1,4 °C -4,6 °C 14,5 km/h (3 Bft)
31.12.2024 00:50 21,8 °C 0,1 °C 51 % 90 % 1026,8 hPa 0,0 l/m² 13,3 km/h (3 Bft) S 189 ° 0 min 0 W/m² -1,3 °C -5,8 °C 17,7 km/h (3 Bft)
31.12.2024 00:51 21,8 °C 0,1 °C 51 % 90 % 1026,9 hPa 0,0 l/m² 12,7 km/h (3 Bft) S-SW 197 ° 0 min 0 W/m² -1,3 °C -5,4 °C 17,7 km/h (3 Bft)
31.12.2024 00:52 21,8 °C 0,2 °C 51 % 90 % 1026,9 hPa 0,0 l/m² 12,3 km/h (2 Bft) S-SW 205 ° 0 min 0 W/m² -1,2 °C -5,0 °C 16,1 km/h (3 Bft)
31.12.2024 00:53 21,8 °C 0,2 °C 51 % 90 % 1026,9 hPa 0,0 l/m² 13,5 km/h (3 Bft) SW 217 ° 0 min 0 W/m² -1,2 °C -5,8 °C 14,5 km/h (3 Bft)
31.12.2024 00:55 21,8 °C 0,2 °C 51 % 90 % 1026,9 hPa 0,0 l/m² 12,4 km/h (2 Bft) S-SW 209 ° 0 min 0 W/m² -1,2 °C -5,1 °C 16,1 km/h (3 Bft)
31.12.2024 00:57 21,8 °C 0,2 °C 51 % 90 % 1026,8 hPa 0,0 l/m² 14,2 km/h (3 Bft) S-SW 205 ° 0 min 0 W/m² -1,2 °C -6,2 °C 19,3 km/h (3 Bft)
31.12.2024 00:59 21,8 °C 0,2 °C 51 % 90 % 1026,8 hPa 0,0 l/m² 13,9 km/h (3 Bft) S-SW 205 ° 0 min 0 W/m² -1,2 °C -6,1 °C 19,3 km/h (3 Bft)
31.12.2024 01:01 21,8 °C 0,2 °C 51 % 90 % 1026,8 hPa 0,0 l/m² 12,1 km/h (2 Bft) S-SW 196 ° 0 min 0 W/m² -1,2 °C -4,8 °C 17,7 km/h (3 Bft)
31.12.2024 01:02 21,8 °C 0,2 °C 51 % 90 % 1026,8 hPa 0,0 l/m² 15,0 km/h (3 Bft) S-SW 200 ° 0 min 0 W/m² -1,2 °C -6,7 °C 17,7 km/h (3 Bft)
31.12.2024 01:04 21,8 °C 0,2 °C 51 % 90 % 1026,8 hPa 0,0 l/m² 14,3 km/h (3 Bft) SW 223 ° 0 min 0 W/m² -1,2 °C -6,3 °C 17,7 km/h (3 Bft)
31.12.2024 01:06 21,8 °C 0,2 °C 51 % 90 % 1026,8 hPa 0,0 l/m² 15,1 km/h (3 Bft) S-SW 213 ° 0 min 0 W/m² -1,2 °C -6,8 °C 17,7 km/h (3 Bft)
31.12.2024 01:08 21,8 °C 0,2 °C 51 % 90 % 1026,7 hPa 0,0 l/m² 16,4 km/h (3 Bft) SW 220 ° 0 min 0 W/m² -1,2 °C -7,5 °C 20,9 km/h (4 Bft)
31.12.2024 01:10 21,8 °C 0,2 °C 51 % 90 % 1026,7 hPa 0,0 l/m² 18,9 km/h (3 Bft) SW 229 ° 0 min 0 W/m² -1,2 °C -8,8 °C 24,1 km/h (4 Bft)
31.12.2024 01:13 21,8 °C 0,2 °C 51 % 90 % 1026,7 hPa 0,0 l/m² 18,4 km/h (3 Bft) SW 233 ° 0 min 0 W/m² -1,2 °C -8,6 °C 24,1 km/h (4 Bft)
31.12.2024 01:14 21,8 °C 0,2 °C 51 % 90 % 1026,6 hPa 0,0 l/m² 17,2 km/h (3 Bft) S-SW 206 ° 0 min 0 W/m² -1,2 °C -8,0 °C 22,5 km/h (4 Bft)
31.12.2024 01:16 21,8 °C 0,2 °C 51 % 90 % 1026,5 hPa 0,0 l/m² 15,7 km/h (3 Bft) S-SW 212 ° 0 min 0 W/m² -1,2 °C -7,2 °C 24,1 km/h (4 Bft)
31.12.2024 01:18 21,8 °C 0,2 °C 51 % 90 % 1026,6 hPa 0,0 l/m² 13,6 km/h (3 Bft) S-SW 205 ° 0 min 0 W/m² -1,2 °C -5,9 °C 17,7 km/h (3 Bft)
31.12.2024 01:20 21,8 °C 0,2 °C 51 % 90 % 1026,7 hPa 0,0 l/m² 12,4 km/h (2 Bft) SW 231 ° 0 min 0 W/m² -1,2 °C -5,1 °C 17,7 km/h (3 Bft)
31.12.2024 01:21 21,8 °C 0,2 °C 51 % 90 % 1026,8 hPa 0,0 l/m² 13,5 km/h (3 Bft) SW 232 ° 0 min 0 W/m² -1,2 °C -5,8 °C 19,3 km/h (3 Bft)
31.12.2024 01:23 21,8 °C 0,2 °C 51 % 90 % 1026,7 hPa 0,0 l/m² 11,6 km/h (2 Bft) S-SW 207 ° 0 min 0 W/m² -1,2 °C -4,5 °C 17,7 km/h (3 Bft)
31.12.2024 01:25 21,9 °C 0,2 °C 51 % 90 % 1026,7 hPa 0,0 l/m² 12,0 km/h (2 Bft) S 178 ° 0 min 0 W/m² -1,2 °C -4,8 °C 20,9 km/h (4 Bft)
31.12.2024 01:26 21,8 °C 0,2 °C 51 % 90 % 1026,6 hPa 0,0 l/m² 9,5 km/h (2 Bft) SW 229 ° 0 min 0 W/m² -1,2 °C -2,8 °C 14,5 km/h (3 Bft)
31.12.2024 01:27 21,8 °C 0,3 °C 51 % 90 % 1026,6 hPa 0,0 l/m² 11,2 km/h (2 Bft) W-SW 252 ° 0 min 0 W/m² -1,1 °C -4,1 °C 16,1 km/h (3 Bft)
31.12.2024 01:29 21,8 °C 0,2 °C 51 % 90 % 1026,8 hPa 0,0 l/m² 15,4 km/h (3 Bft) SW 217 ° 0 min 0 W/m² -1,2 °C -7,0 °C 25,7 km/h (4 Bft)
31.12.2024 01:31 21,9 °C 0,3 °C 51 % 90 % 1026,7 hPa 0,0 l/m² 13,2 km/h (3 Bft) SW 222 ° 0 min 0 W/m² -1,1 °C -5,5 °C 19,3 km/h (3 Bft)
31.12.2024 01:32 21,8 °C 0,3 °C 51 % 90 % 1026,6 hPa 0,0 l/m² 14,8 km/h (3 Bft) SW 223 ° 0 min 0 W/m² -1,1 °C -6,5 °C 19,3 km/h (3 Bft)
31.12.2024 01:34 21,8 °C 0,3 °C 51 % 90 % 1026,7 hPa 0,0 l/m² 9,9 km/h (2 Bft) S-SW 213 ° 0 min 0 W/m² -1,1 °C -3,0 °C 17,7 km/h (3 Bft)
31.12.2024 01:36 21,8 °C 0,3 °C 51 % 90 % 1026,8 hPa 0,0 l/m² 8,8 km/h (2 Bft) S-SW 200 ° 0 min 0 W/m² -1,1 °C -2,1 °C 16,1 km/h (3 Bft)
31.12.2024 01:38 21,8 °C 0,3 °C 51 % 90 % 1026,7 hPa 0,0 l/m² 10,8 km/h (2 Bft) SW 231 ° 0 min 0 W/m² -1,1 °C -3,8 °C 16,1 km/h (3 Bft)
31.12.2024 01:40 21,9 °C 0,3 °C 51 % 90 % 1026,8 hPa 0,0 l/m² 14,2 km/h (3 Bft) SW 220 ° 0 min 0 W/m² -1,1 °C -6,1 °C 19,3 km/h (3 Bft)
31.12.2024 01:41 21,9 °C 0,3 °C 51 % 90 % 1026,8 hPa 0,0 l/m² 15,9 km/h (3 Bft) SW 217 ° 0 min 0 W/m² -1,1 °C -7,1 °C 20,9 km/h (4 Bft)
31.12.2024 01:42 21,9 °C 0,3 °C 51 % 90 % 1026,8 hPa 0,0 l/m² 13,7 km/h (3 Bft) S-SW 207 ° 0 min 0 W/m² -1,1 °C -5,8 °C 16,1 km/h (3 Bft)
31.12.2024 01:43 21,9 °C 0,3 °C 51 % 90 % 1026,7 hPa 0,0 l/m² 13,0 km/h (3 Bft) SW 220 ° 0 min 0 W/m² -1,1 °C -5,4 °C 17,7 km/h (3 Bft)
31.12.2024 01:45 21,8 °C 0,3 °C 51 % 90 % 1026,7 hPa 0,0 l/m² 10,2 km/h (2 Bft) S-SW 194 ° 0 min 0 W/m² -1,1 °C -3,3 °C 16,1 km/h (3 Bft)
31.12.2024 01:47 21,9 °C 0,3 °C 51 % 90 % 1026,7 hPa 0,0 l/m² 11,4 km/h (2 Bft) SW 217 ° 0 min 0 W/m² -1,1 °C -4,2 °C 16,1 km/h (3 Bft)
31.12.2024 01:49 21,9 °C 0,3 °C 51 % 90 % 1026,7 hPa 0,0 l/m² 9,4 km/h (2 Bft) SW 222 ° 0 min 0 W/m² -1,1 °C -2,6 °C 17,7 km/h (3 Bft)
31.12.2024 01:51 21,9 °C 0,3 °C 51 % 90 % 1026,7 hPa 0,0 l/m² 9,0 km/h (2 Bft) SW 223 ° 0 min 0 W/m² -1,1 °C -2,3 °C 14,5 km/h (3 Bft)
31.12.2024 01:52 21,9 °C 0,3 °C 51 % 90 % 1026,7 hPa 0,0 l/m² 10,6 km/h (2 Bft) SW 235 ° 0 min 0 W/m² -1,1 °C -3,6 °C 14,5 km/h (3 Bft)
31.12.2024 01:53 21,9 °C 0,3 °C 51 % 90 % 1026,7 hPa 0,0 l/m² 12,2 km/h (2 Bft) SW 223 ° 0 min 0 W/m² -1,1 °C -4,8 °C 17,7 km/h (3 Bft)
31.12.2024 01:54 21,9 °C 0,3 °C 51 % 90 % 1026,6 hPa 0,0 l/m² 14,1 km/h (3 Bft) SW 220 ° 0 min 0 W/m² -1,1 °C -6,1 °C 17,7 km/h (3 Bft)
31.12.2024 01:56 21,9 °C 0,3 °C 51 % 90 % 1026,7 hPa 0,0 l/m² 16,8 km/h (3 Bft) S-SW 207 ° 0 min 0 W/m² -1,1 °C -7,6 °C 20,9 km/h (4 Bft)
31.12.2024 01:58 21,9 °C 0,3 °C 51 % 90 % 1026,7 hPa 0,0 l/m² 16,9 km/h (3 Bft) S-SW 200 ° 0 min 0 W/m² -1,1 °C -7,7 °C 20,9 km/h (4 Bft)
31.12.2024 02:00 21,9 °C 0,3 °C 51 % 90 % 1026,8 hPa 0,0 l/m² 12,0 km/h (2 Bft) S-SW 209 ° 0 min 0 W/m² -1,1 °C -4,7 °C 14,5 km/h (3 Bft)
31.12.2024 02:01 21,9 °C 0,3 °C 51 % 90 % 1026,8 hPa 0,0 l/m² 8,0 km/h (2 Bft) SW 219 ° 0 min 0 W/m² -1,1 °C -1,3 °C 12,9 km/h (3 Bft)
31.12.2024 02:02 21,9 °C 0,3 °C 51 % 90 % 1026,8 hPa 0,0 l/m² 10,1 km/h (2 Bft) SW 223 ° 0 min 0 W/m² -1,1 °C -3,2 °C 14,5 km/h (3 Bft)
31.12.2024 02:03 21,9 °C 0,3 °C 51 % 90 % 1026,8 hPa 0,0 l/m² 12,5 km/h (2 Bft) S-SW 210 ° 0 min 0 W/m² -1,1 °C -5,0 °C 16,1 km/h (3 Bft)
31.12.2024 02:05 21,9 °C 0,3 °C 51 % 90 % 1026,7 hPa 0,0 l/m² 10,8 km/h (2 Bft) S-SW 211 ° 0 min 0 W/m² -1,1 °C -3,8 °C 12,9 km/h (3 Bft)
31.12.2024 02:07 21,8 °C 0,2 °C 51 % 89 % 1026,8 hPa 0,0 l/m² 8,0 km/h (2 Bft) S-SW 211 ° 0 min 0 W/m² -1,4 °C -1,4 °C 9,7 km/h (2 Bft)
31.12.2024 02:09 21,9 °C 0,2 °C 51 % 89 % 1026,7 hPa 0,0 l/m² 7,6 km/h (2 Bft) S-SW 196 ° 0 min 0 W/m² -1,4 °C -1,0 °C 12,9 km/h (3 Bft)
31.12.2024 02:11 21,9 °C 0,2 °C 51 % 89 % 1026,8 hPa 0,0 l/m² 7,3 km/h (2 Bft) S-SW 193 ° 0 min 0 W/m² -1,4 °C -0,7 °C 9,7 km/h (2 Bft)
31.12.2024 02:12 21,9 °C 0,1 °C 51 % 89 % 1026,9 hPa 0,0 l/m² 9,3 km/h (2 Bft) S-SW 205 ° 0 min 0 W/m² -1,5 °C -2,7 °C 12,9 km/h (3 Bft)
31.12.2024 02:13 21,9 °C 0,1 °C 51 % 89 % 1026,9 hPa 0,0 l/m² 8,6 km/h (2 Bft) S-SW 198 ° 0 min 0 W/m² -1,5 °C -2,1 °C 9,7 km/h (2 Bft)
31.12.2024 02:14 21,9 °C 0,1 °C 51 % 89 % 1026,9 hPa 0,0 l/m² 5,9 km/h (2 Bft) S-SW 202 ° 0 min 0 W/m² -1,5 °C 0,1 °C 8,0 km/h (2 Bft)
31.12.2024 02:16 21,8 °C 0,1 °C 51 % 89 % 1026,9 hPa 0,0 l/m² 9,5 km/h (2 Bft) S-SW 198 ° 0 min 0 W/m² -1,5 °C -2,9 °C 16,1 km/h (3 Bft)
31.12.2024 02:18 21,8 °C 0,1 °C 51 % 89 % 1026,8 hPa 0,0 l/m² 10,2 km/h (2 Bft) S-SW 196 ° 0 min 0 W/m² -1,5 °C -3,5 °C 16,1 km/h (3 Bft)
31.12.2024 02:20 21,9 °C 0,1 °C 51 % 89 % 1026,9 hPa 0,0 l/m² 10,8 km/h (2 Bft) S-SW 202 ° 0 min 0 W/m² -1,5 °C -4,0 °C 16,1 km/h (3 Bft)
31.12.2024 02:21 21,9 °C 0,1 °C 51 % 89 % 1026,8 hPa 0,0 l/m² 8,3 km/h (2 Bft) S-SW 197 ° 0 min 0 W/m² -1,5 °C -1,8 °C 11,3 km/h (2 Bft)
31.12.2024 02:22 21,8 °C 0,1 °C 51 % 90 % 1026,8 hPa 0,0 l/m² 10,7 km/h (2 Bft) SW 215 ° 0 min 0 W/m² -1,3 °C -3,9 °C 12,9 km/h (3 Bft)
31.12.2024 02:23 21,8 °C 0,1 °C 51 % 90 % 1026,9 hPa 0,0 l/m² 10,1 km/h (2 Bft) S-SW 206 ° 0 min 0 W/m² -1,3 °C -3,4 °C 12,9 km/h (3 Bft)
31.12.2024 02:25 21,8 °C 0,1 °C 51 % 90 % 1026,9 hPa 0,0 l/m² 11,3 km/h (2 Bft) S-SW 204 ° 0 min 0 W/m² -1,3 °C -4,4 °C 16,1 km/h (3 Bft)
31.12.2024 02:26 21,8 °C 0,0 °C 51 % 90 % 1026,9 hPa 0,0 l/m² 10,4 km/h (2 Bft) S-SW 213 ° 0 min 0 W/m² -1,4 °C -3,8 °C 12,9 km/h (3 Bft)
31.12.2024 02:27 21,8 °C 0,0 °C 51 % 90 % 1026,9 hPa 0,0 l/m² 8,9 km/h (2 Bft) S-SW 211 ° 0 min 0 W/m² -1,4 °C -2,5 °C 11,3 km/h (2 Bft)
31.12.2024 02:29 21,8 °C 0,0 °C 51 % 90 % 1026,9 hPa 0,0 l/m² 7,6 km/h (2 Bft) S-SW 207 ° 0 min 0 W/m² -1,4 °C -1,2 °C 11,3 km/h (2 Bft)
31.12.2024 02:30 21,8 °C 0,0 °C 51 % 90 % 1026,9 hPa 0,0 l/m² 7,3 km/h (2 Bft) S-SW 205 ° 0 min 0 W/m² -1,4 °C -0,9 °C 8,0 km/h (2 Bft)
31.12.2024 02:31 21,8 °C 0,1 °C 51 % 90 % 1027,0 hPa 0,0 l/m² 11,5 km/h (2 Bft) S-SW 210 ° 0 min 0 W/m² -1,3 °C -4,5 °C 14,5 km/h (3 Bft)
31.12.2024 02:32 21,8 °C 0,0 °C 51 % 90 % 1027,0 hPa 0,0 l/m² 8,3 km/h (2 Bft) S-SW 206 ° 0 min 0 W/m² -1,4 °C -1,9 °C 12,9 km/h (3 Bft)
31.12.2024 02:33 21,9 °C 0,0 °C 51 % 90 % 1027,0 hPa 0,0 l/m² 8,2 km/h (2 Bft) S-SW 212 ° 0 min 0 W/m² -1,4 °C -1,8 °C 9,7 km/h (2 Bft)
31.12.2024 02:35 21,8 °C 0,0 °C 51 % 90 % 1027,0 hPa 0,0 l/m² 7,2 km/h (2 Bft) SW 217 ° 0 min 0 W/m² -1,4 °C -0,8 °C 9,7 km/h (2 Bft)
31.12.2024 02:37 21,8 °C 0,0 °C 51 % 90 % 1027,0 hPa 0,0 l/m² 4,3 km/h (1 Bft) S-SW 211 ° 0 min 0 W/m² -1,4 °C 0,0 °C 9,7 km/h (2 Bft)
31.12.2024 02:39 21,9 °C -0,1 °C 51 % 90 % 1026,9 hPa 0,0 l/m² 2,6 km/h (1 Bft) S-SW 211 ° 0 min 0 W/m² -1,5 °C -0,1 °C 8,0 km/h (2 Bft)
31.12.2024 02:41 21,8 °C -0,1 °C 51 % 90 % 1027,0 hPa 0,0 l/m² 6,1 km/h (2 Bft) S-SW 196 ° 0 min 0 W/m² -1,5 °C -0,1 °C 9,7 km/h (2 Bft)
31.12.2024 02:42 21,8 °C -0,1 °C 51 % 90 % 1027,0 hPa 0,0 l/m² 10,0 km/h (2 Bft) S-SW 196 ° 0 min 0 W/m² -1,5 °C -3,6 °C 12,9 km/h (3 Bft)
31.12.2024 02:43 21,8 °C -0,1 °C 51 % 90 % 1027,0 hPa 0,0 l/m² 5,8 km/h (2 Bft) S-SW 198 ° 0 min 0 W/m² -1,5 °C -0,1 °C 8,0 km/h (2 Bft)
31.12.2024 02:44 21,8 °C -0,1 °C 51 % 90 % 1027,0 hPa 0,0 l/m² 7,7 km/h (2 Bft) S-SW 200 ° 0 min 0 W/m² -1,5 °C -1,5 °C 9,7 km/h (2 Bft)
31.12.2024 02:46 21,8 °C -0,1 °C 51 % 90 % 1027,1 hPa 0,0 l/m² 10,5 km/h (2 Bft) S-SW 200 ° 0 min 0 W/m² -1,5 °C -4,0 °C 12,9 km/h (3 Bft)
31.12.2024 02:48 21,8 °C -0,1 °C 51 % 90 % 1027,0 hPa 0,0 l/m² 9,5 km/h (2 Bft) S-SW 205 ° 0 min 0 W/m² -1,5 °C -3,1 °C 12,9 km/h (3 Bft)
31.12.2024 02:50 21,8 °C -0,1 °C 51 % 90 % 1027,1 hPa 0,0 l/m² 7,0 km/h (2 Bft) SW 215 ° 0 min 0 W/m² -1,5 °C -0,7 °C 12,9 km/h (3 Bft)
31.12.2024 02:51 21,8 °C -0,1 °C 51 % 90 % 1027,1 hPa 0,0 l/m² 6,3 km/h (2 Bft) S-SW 207 ° 0 min 0 W/m² -1,5 °C -0,1 °C 8,0 km/h (2 Bft)
31.12.2024 02:52 21,8 °C -0,1 °C 51 % 90 % 1027,1 hPa 0,0 l/m² 3,8 km/h (1 Bft) S-SW 207 ° 0 min 0 W/m² -1,5 °C -0,1 °C 6,4 km/h (2 Bft)
31.12.2024 02:53 21,8 °C -0,1 °C 51 % 90 % 1027,1 hPa 0,0 l/m² 6,2 km/h (2 Bft) S-SW 198 ° 0 min 0 W/m² -1,5 °C -0,1 °C 9,7 km/h (2 Bft)
31.12.2024 02:55 21,8 °C -0,1 °C 51 % 90 % 1027,1 hPa 0,0 l/m² 9,8 km/h (2 Bft) S-SW 193 ° 0 min 0 W/m² -1,5 °C -3,4 °C 12,9 km/h (3 Bft)
31.12.2024 02:57 21,8 °C -0,1 °C 51 % 90 % 1027,0 hPa 0,0 l/m² 9,4 km/h (2 Bft) S-SW 192 ° 0 min 0 W/m² -1,5 °C -3,0 °C 12,9 km/h (3 Bft)
31.12.2024 02:59 21,8 °C -0,1 °C 51 % 90 % 1027,0 hPa 0,0 l/m² 7,3 km/h (2 Bft) S-SW 195 ° 0 min 0 W/m² -1,5 °C -1,0 °C 11,3 km/h (2 Bft)
31.12.2024 03:00 21,8 °C -0,1 °C 51 % 90 % 1027,0 hPa 0,0 l/m² 12,9 km/h (3 Bft) S-SW 202 ° 0 min 0 W/m² -1,5 °C -5,8 °C 17,7 km/h (3 Bft)
31.12.2024 03:09 21,8 °C -0,1 °C 51 % 90 % 1027,2 hPa 0,0 l/m² 7,1 km/h (2 Bft) S-SW 213 ° 0 min 0 W/m² -1,5 °C -0,8 °C 11,3 km/h (2 Bft)
31.12.2024 03:11 21,8 °C -0,1 °C 51 % 90 % 1027,2 hPa 0,0 l/m² 8,9 km/h (2 Bft) S-SW 213 ° 0 min 0 W/m² -1,5 °C -2,6 °C 12,9 km/h (3 Bft)
31.12.2024 03:12 21,8 °C -0,1 °C 51 % 90 % 1027,1 hPa 0,0 l/m² 11,1 km/h (2 Bft) S-SW 212 ° 0 min 0 W/m² -1,5 °C -4,4 °C 14,5 km/h (3 Bft)
31.12.2024 03:14 21,8 °C -0,1 °C 51 % 90 % 1027,1 hPa 0,0 l/m² 7,7 km/h (2 Bft) S-SW 202 ° 0 min 0 W/m² -1,5 °C -1,5 °C 11,3 km/h (2 Bft)
31.12.2024 03:16 21,8 °C -0,1 °C 51 % 90 % 1027,2 hPa 0,0 l/m² 11,1 km/h (2 Bft) S-SW 211 ° 0 min 0 W/m² -1,5 °C -4,4 °C 14,5 km/h (3 Bft)
31.12.2024 03:18 21,8 °C -0,1 °C 51 % 90 % 1027,2 hPa 0,0 l/m² 10,8 km/h (2 Bft) S-SW 209 ° 0 min 0 W/m² -1,5 °C -4,2 °C 16,1 km/h (3 Bft)
31.12.2024 03:20 21,8 °C -0,2 °C 51 % 90 % 1027,2 hPa 0,0 l/m² 11,8 km/h (2 Bft) S-SW 213 ° 0 min 0 W/m² -1,6 °C -5,1 °C 16,1 km/h (3 Bft)
31.12.2024 03:21 21,8 °C -0,1 °C 51 % 90 % 1027,1 hPa 0,0 l/m² 9,0 km/h (2 Bft) S-SW 204 ° 0 min 0 W/m² -1,5 °C -2,7 °C 12,9 km/h (3 Bft)
31.12.2024 03:22 21,8 °C -0,1 °C 51 % 90 % 1027,1 hPa 0,0 l/m² 9,7 km/h (2 Bft) S-SW 205 ° 0 min 0 W/m² -1,5 °C -3,3 °C 12,9 km/h (3 Bft)
31.12.2024 03:24 21,8 °C -0,2 °C 51 % 90 % 1027,1 hPa 0,0 l/m² 8,5 km/h (2 Bft) S-SW 196 ° 0 min 0 W/m² -1,6 °C -2,3 °C 12,9 km/h (3 Bft)
31.12.2024 03:26 21,8 °C -0,2 °C 51 % 90 % 1027,1 hPa 0,0 l/m² 12,1 km/h (2 Bft) S-SW 192 ° 0 min 0 W/m² -1,6 °C -5,3 °C 14,5 km/h (3 Bft)
31.12.2024 03:28 21,8 °C -0,2 °C 51 % 90 % 1027,0 hPa 0,0 l/m² 12,5 km/h (2 Bft) S-SW 198 ° 0 min 0 W/m² -1,6 °C -5,6 °C 16,1 km/h (3 Bft)
31.12.2024 03:30 21,8 °C -0,2 °C 51 % 90 % 1027,1 hPa 0,0 l/m² 12,1 km/h (2 Bft) S-SW 209 ° 0 min 0 W/m² -1,6 °C -5,3 °C 14,5 km/h (3 Bft)
31.12.2024 03:31 21,8 °C -0,2 °C 51 % 90 % 1027,0 hPa 0,0 l/m² 10,1 km/h (2 Bft) S-SW 211 ° 0 min 0 W/m² -1,6 °C -3,8 °C 14,5 km/h (3 Bft)
31.12.2024 03:32 21,8 °C -0,2 °C 51 % 90 % 1027,0 hPa 0,0 l/m² 13,6 km/h (3 Bft) SW 217 ° 0 min 0 W/m² -1,6 °C -6,3 °C 17,7 km/h (3 Bft)
31.12.2024 03:33 21,8 °C -0,1 °C 51 % 90 % 1027,1 hPa 0,0 l/m² 14,1 km/h (3 Bft) S-SW 203 ° 0 min 0 W/m² -1,5 °C -6,5 °C 19,3 km/h (3 Bft)
31.12.2024 03:34 21,8 °C -0,2 °C 51 % 90 % 1027,0 hPa 0,0 l/m² 14,4 km/h (3 Bft) S-SW 200 ° 0 min 0 W/m² -1,6 °C -6,9 °C 17,7 km/h (3 Bft)
31.12.2024 03:36 21,8 °C -0,1 °C 51 % 90 % 1027,1 hPa 0,0 l/m² 14,3 km/h (3 Bft) SW 215 ° 0 min 0 W/m² -1,5 °C -6,7 °C 17,7 km/h (3 Bft)
31.12.2024 03:38 21,8 °C -0,1 °C 51 % 90 % 1027,0 hPa 0,0 l/m² 12,5 km/h (2 Bft) SW 218 ° 0 min 0 W/m² -1,5 °C -5,5 °C 17,7 km/h (3 Bft)
31.12.2024 03:39 21,8 °C -0,2 °C 51 % 90 % 1027,0 hPa 0,0 l/m² 13,4 km/h (3 Bft) S-SW 210 ° 0 min 0 W/m² -1,6 °C -6,2 °C 16,1 km/h (3 Bft)
31.12.2024 03:40 21,8 °C -0,1 °C 51 % 90 % 1027,0 hPa 0,0 l/m² 12,5 km/h (2 Bft) S-SW 198 ° 0 min 0 W/m² -1,5 °C -5,5 °C 16,1 km/h (3 Bft)
31.12.2024 03:42 21,8 °C -0,2 °C 51 % 90 % 1027,1 hPa 0,0 l/m² 9,4 km/h (2 Bft) SW 214 ° 0 min 0 W/m² -1,6 °C -3,2 °C 12,9 km/h (3 Bft)
31.12.2024 03:43 21,8 °C -0,1 °C 51 % 90 % 1027,1 hPa 0,0 l/m² 8,2 km/h (2 Bft) SW 224 ° 0 min 0 W/m² -1,5 °C -1,9 °C 11,3 km/h (2 Bft)
31.12.2024 03:45 21,8 °C -0,2 °C 51 % 90 % 1027,0 hPa 0,0 l/m² 12,4 km/h (2 Bft) SW 215 ° 0 min 0 W/m² -1,6 °C -5,5 °C 16,1 km/h (3 Bft)
31.12.2024 03:46 21,8 °C -0,2 °C 51 % 90 % 1027,1 hPa 0,0 l/m² 16,1 km/h (3 Bft) SW 221 ° 0 min 0 W/m² -1,6 °C -7,9 °C 16,1 km/h (3 Bft)
31.12.2024 03:47 21,8 °C -0,2 °C 51 % 90 % 1027,1 hPa 0,0 l/m² 11,3 km/h (2 Bft) SW 223 ° 0 min 0 W/m² -1,6 °C -4,7 °C 17,7 km/h (3 Bft)
31.12.2024 03:48 21,8 °C -0,1 °C 51 % 90 % 1027,2 hPa 0,0 l/m² 13,8 km/h (3 Bft) SW 220 ° 0 min 0 W/m² -1,5 °C -6,4 °C 19,3 km/h (3 Bft)
31.12.2024 03:49 21,8 °C -0,2 °C 51 % 90 % 1027,2 hPa 0,0 l/m² 15,1 km/h (3 Bft) SW 220 ° 0 min 0 W/m² -1,6 °C -7,3 °C 19,3 km/h (3 Bft)
31.12.2024 03:51 21,8 °C -0,1 °C 51 % 90 % 1027,1 hPa 0,0 l/m² 11,2 km/h (2 Bft) S-SW 207 ° 0 min 0 W/m² -1,5 °C -4,5 °C 16,1 km/h (3 Bft)
31.12.2024 03:52 21,8 °C -0,1 °C 51 % 90 % 1027,0 hPa 0,0 l/m² 12,6 km/h (3 Bft) SW 227 ° 0 min 0 W/m² -1,5 °C -5,5 °C 14,5 km/h (3 Bft)
31.12.2024 03:54 21,8 °C -0,1 °C 51 % 91 % 1027,1 hPa 0,0 l/m² 9,2 km/h (2 Bft) SW 217 ° 0 min 0 W/m² -1,4 °C -2,9 °C 11,3 km/h (2 Bft)
31.12.2024 03:56 21,8 °C -0,1 °C 51 % 90 % 1027,1 hPa 0,0 l/m² 8,7 km/h (2 Bft) SW 229 ° 0 min 0 W/m² -1,5 °C -2,4 °C 12,9 km/h (3 Bft)
31.12.2024 03:58 21,8 °C -0,1 °C 51 % 90 % 1027,1 hPa 0,0 l/m² 9,7 km/h (2 Bft) SW 217 ° 0 min 0 W/m² -1,5 °C -3,3 °C 14,5 km/h (3 Bft)
31.12.2024 04:00 21,8 °C -0,1 °C 51 % 90 % 1027,1 hPa 0,0 l/m² 11,0 km/h (2 Bft) SW 215 ° 0 min 0 W/m² -1,5 °C -4,4 °C 14,5 km/h (3 Bft)
31.12.2024 04:01 21,8 °C -0,1 °C 51 % 90 % 1027,2 hPa 0,0 l/m² 6,1 km/h (2 Bft) SW 215 ° 0 min 0 W/m² -1,5 °C -0,1 °C 9,7 km/h (2 Bft)
31.12.2024 04:02 21,8 °C -0,2 °C 51 % 90 % 1027,2 hPa 0,0 l/m² 7,3 km/h (2 Bft) SW 219 ° 0 min 0 W/m² -1,6 °C -1,1 °C 9,7 km/h (2 Bft)
31.12.2024 04:03 21,8 °C -0,2 °C 51 % 90 % 1027,2 hPa 0,0 l/m² 7,1 km/h (2 Bft) S-SW 212 ° 0 min 0 W/m² -1,6 °C -0,9 °C 11,3 km/h (2 Bft)
31.12.2024 04:04 21,8 °C -0,1 °C 51 % 90 % 1027,2 hPa 0,0 l/m² 6,2 km/h (2 Bft) S-SW 211 ° 0 min 0 W/m² -1,5 °C -0,1 °C 9,7 km/h (2 Bft)
31.12.2024 04:06 21,8 °C -0,2 °C 51 % 90 % 1027,2 hPa 0,0 l/m² 9,8 km/h (2 Bft) SW 225 ° 0 min 0 W/m² -1,6 °C -3,5 °C 12,9 km/h (3 Bft)
31.12.2024 04:08 21,8 °C -0,2 °C 51 % 90 % 1027,1 hPa 0,0 l/m² 10,8 km/h (2 Bft) S-SW 211 ° 0 min 0 W/m² -1,6 °C -4,3 °C 12,9 km/h (3 Bft)
31.12.2024 04:10 21,8 °C -0,2 °C 51 % 90 % 1027,1 hPa 0,0 l/m² 7,1 km/h (2 Bft) SW 217 ° 0 min 0 W/m² -1,6 °C -0,9 °C 11,3 km/h (2 Bft)
31.12.2024 04:11 21,8 °C -0,2 °C 51 % 90 % 1027,1 hPa 0,0 l/m² 7,1 km/h (2 Bft) S-SW 212 ° 0 min 0 W/m² -1,6 °C -0,9 °C 12,9 km/h (3 Bft)
31.12.2024 04:12 21,8 °C -0,2 °C 51 % 90 % 1027,2 hPa 0,0 l/m² 5,8 km/h (2 Bft) S-SW 213 ° 0 min 0 W/m² -1,6 °C -0,2 °C 8,0 km/h (2 Bft)
31.12.2024 04:14 21,8 °C -0,2 °C 51 % 90 % 1027,2 hPa 0,0 l/m² 7,4 km/h (2 Bft) SW 215 ° 0 min 0 W/m² -1,6 °C -1,2 °C 9,7 km/h (2 Bft)
31.12.2024 04:16 21,8 °C -0,2 °C 51 % 90 % 1027,2 hPa 0,0 l/m² 7,5 km/h (2 Bft) SW 225 ° 0 min 0 W/m² -1,6 °C -1,4 °C 12,9 km/h (3 Bft)
31.12.2024 04:18 21,8 °C -0,2 °C 51 % 90 % 1027,2 hPa 0,0 l/m² 7,3 km/h (2 Bft) S-SW 213 ° 0 min 0 W/m² -1,6 °C -1,1 °C 11,3 km/h (2 Bft)
31.12.2024 04:20 21,8 °C -0,2 °C 51 % 90 % 1027,1 hPa 0,0 l/m² 10,4 km/h (2 Bft) SW 215 ° 0 min 0 W/m² -1,6 °C -4,0 °C 16,1 km/h (3 Bft)
31.12.2024 04:21 21,8 °C -0,2 °C 51 % 90 % 1027,1 hPa 0,0 l/m² 8,0 km/h (2 Bft) SW 217 ° 0 min 0 W/m² -1,6 °C -1,9 °C 11,3 km/h (2 Bft)
31.12.2024 04:22 21,8 °C -0,2 °C 51 % 90 % 1027,1 hPa 0,0 l/m² 8,5 km/h (2 Bft) S-SW 199 ° 0 min 0 W/m² -1,6 °C -2,3 °C 11,3 km/h (2 Bft)
31.12.2024 04:24 21,8 °C -0,2 °C 51 % 90 % 1027,1 hPa 0,0 l/m² 8,2 km/h (2 Bft) S-SW 211 ° 0 min 0 W/m² -1,6 °C -2,1 °C 11,3 km/h (2 Bft)
31.12.2024 04:26 21,9 °C -0,2 °C 51 % 90 % 1027,1 hPa 0,0 l/m² 10,5 km/h (2 Bft) S-SW 201 ° 0 min 0 W/m² -1,6 °C -4,1 °C 14,5 km/h (3 Bft)
31.12.2024 04:28 21,9 °C -0,2 °C 51 % 90 % 1027,1 hPa 0,0 l/m² 8,3 km/h (2 Bft) SW 216 ° 0 min 0 W/m² -1,6 °C -2,1 °C 12,9 km/h (3 Bft)
31.12.2024 04:30 21,9 °C -0,2 °C 51 % 90 % 1027,1 hPa 0,0 l/m² 10,2 km/h (2 Bft) SW 219 ° 0 min 0 W/m² -1,6 °C -3,8 °C 16,1 km/h (3 Bft)
31.12.2024 04:31 21,9 °C -0,2 °C 51 % 90 % 1027,2 hPa 0,0 l/m² 7,6 km/h (2 Bft) S-SW 198 ° 0 min 0 W/m² -1,6 °C -1,5 °C 9,7 km/h (2 Bft)
31.12.2024 04:32 21,8 °C -0,2 °C 51 % 90 % 1027,0 hPa 0,0 l/m² 4,8 km/h (1 Bft) S-SW 202 ° 0 min 0 W/m² -1,6 °C -0,2 °C 6,4 km/h (2 Bft)
31.12.2024 04:34 21,9 °C -0,2 °C 51 % 90 % 1027,1 hPa 0,0 l/m² 9,5 km/h (2 Bft) S-SW 202 ° 0 min 0 W/m² -1,6 °C -3,2 °C 14,5 km/h (3 Bft)
31.12.2024 04:36 21,9 °C -0,2 °C 51 % 90 % 1027,1 hPa 0,0 l/m² 9,8 km/h (2 Bft) S-SW 197 ° 0 min 0 W/m² -1,6 °C -3,5 °C 14,5 km/h (3 Bft)
31.12.2024 04:38 21,9 °C -0,2 °C 51 % 91 % 1027,1 hPa 0,0 l/m² 8,5 km/h (2 Bft) S-SW 202 ° 0 min 0 W/m² -1,5 °C -2,3 °C 12,9 km/h (3 Bft)
31.12.2024 04:40 21,8 °C -0,2 °C 51 % 90 % 1027,0 hPa 0,0 l/m² 10,1 km/h (2 Bft) SW 218 ° 0 min 0 W/m² -1,6 °C -3,8 °C 12,9 km/h (3 Bft)
31.12.2024 04:41 21,9 °C -0,2 °C 51 % 90 % 1027,1 hPa 0,0 l/m² 11,4 km/h (2 Bft) S-SW 212 ° 0 min 0 W/m² -1,6 °C -4,8 °C 16,1 km/h (3 Bft)
31.12.2024 04:42 21,9 °C -0,2 °C 51 % 90 % 1027,0 hPa 0,0 l/m² 11,6 km/h (2 Bft) S-SW 196 ° 0 min 0 W/m² -1,6 °C -4,9 °C 14,5 km/h (3 Bft)
31.12.2024 04:43 21,9 °C -0,2 °C 51 % 90 % 1027,0 hPa 0,0 l/m² 14,8 km/h (3 Bft) S-SW 206 ° 0 min 0 W/m² -1,6 °C -7,1 °C 17,7 km/h (3 Bft)
31.12.2024 04:44 21,9 °C -0,2 °C 51 % 90 % 1027,1 hPa 0,0 l/m² 10,1 km/h (2 Bft) S-SW 213 ° 0 min 0 W/m² -1,6 °C -3,8 °C 12,9 km/h (3 Bft)
31.12.2024 04:45 21,9 °C -0,2 °C 51 % 90 % 1027,1 hPa 0,0 l/m² 10,4 km/h (2 Bft) S-SW 213 ° 0 min 0 W/m² -1,6 °C -4,0 °C 12,9 km/h (3 Bft)
31.12.2024 04:47 21,9 °C -0,2 °C 51 % 90 % 1027,0 hPa 0,0 l/m² 12,8 km/h (3 Bft) SW 214 ° 0 min 0 W/m² -1,6 °C -5,8 °C 19,3 km/h (3 Bft)
31.12.2024 04:49 21,8 °C -0,2 °C 51 % 90 % 1027,0 hPa 0,0 l/m² 14,5 km/h (3 Bft) S-SW 213 ° 0 min 0 W/m² -1,6 °C -6,9 °C 17,7 km/h (3 Bft)
31.12.2024 04:50 21,9 °C -0,2 °C 51 % 91 % 1027,0 hPa 0,0 l/m² 14,2 km/h (3 Bft) S-SW 202 ° 0 min 0 W/m² -1,5 °C -6,7 °C 17,7 km/h (3 Bft)
31.12.2024 04:51 21,9 °C -0,2 °C 51 % 90 % 1026,9 hPa 0,0 l/m² 14,6 km/h (3 Bft) SW 216 ° 0 min 0 W/m² -1,6 °C -7,0 °C 17,7 km/h (3 Bft)
31.12.2024 04:52 21,8 °C -0,2 °C 51 % 90 % 1026,9 hPa 0,0 l/m² 13,3 km/h (3 Bft) S-SW 193 ° 0 min 0 W/m² -1,6 °C -6,1 °C 16,1 km/h (3 Bft)
31.12.2024 04:53 21,9 °C -0,2 °C 51 % 90 % 1026,9 hPa 0,0 l/m² 10,3 km/h (2 Bft) SW 217 ° 0 min 0 W/m² -1,6 °C -3,9 °C 12,9 km/h (3 Bft)
31.12.2024 04:54 21,9 °C -0,2 °C 51 % 90 % 1026,9 hPa 0,0 l/m² 11,7 km/h (2 Bft) S-SW 198 ° 0 min 0 W/m² -1,6 °C -5,0 °C 14,5 km/h (3 Bft)
31.12.2024 04:56 21,9 °C -0,2 °C 51 % 90 % 1027,0 hPa 0,0 l/m² 13,9 km/h (3 Bft) S-SW 211 ° 0 min 0 W/m² -1,6 °C -6,5 °C 17,7 km/h (3 Bft)
31.12.2024 04:58 21,9 °C -0,2 °C 51 % 91 % 1027,0 hPa 0,0 l/m² 14,7 km/h (3 Bft) S-SW 207 ° 0 min 0 W/m² -1,5 °C -7,0 °C 19,3 km/h (3 Bft)
31.12.2024 05:00 21,9 °C -0,2 °C 51 % 91 % 1026,9 hPa 0,0 l/m² 11,7 km/h (2 Bft) SW 214 ° 0 min 0 W/m² -1,5 °C -5,0 °C 17,7 km/h (3 Bft)
31.12.2024 05:01 21,8 °C -0,2 °C 51 % 91 % 1027,0 hPa 0,0 l/m² 13,2 km/h (3 Bft) SW 215 ° 0 min 0 W/m² -1,5 °C -6,1 °C 16,1 km/h (3 Bft)
31.12.2024 05:02 21,8 °C -0,2 °C 51 % 91 % 1026,9 hPa 0,0 l/m² 15,0 km/h (3 Bft) SW 236 ° 0 min 0 W/m² -1,5 °C -7,2 °C 16,1 km/h (3 Bft)
31.12.2024 05:03 21,9 °C -0,2 °C 51 % 91 % 1026,9 hPa 0,0 l/m² 13,9 km/h (3 Bft) SW 225 ° 0 min 0 W/m² -1,5 °C -6,5 °C 17,7 km/h (3 Bft)
31.12.2024 05:06 21,9 °C -0,2 °C 51 % 91 % 1026,9 hPa 0,0 l/m² 13,0 km/h (3 Bft) SW 227 ° 0 min 0 W/m² -1,5 °C -5,9 °C 19,3 km/h (3 Bft)
31.12.2024 05:08 21,8 °C -0,1 °C 51 % 91 % 1026,9 hPa 0,0 l/m² 13,3 km/h (3 Bft) SW 215 ° 0 min 0 W/m² -1,4 °C -6,0 °C 17,7 km/h (3 Bft)
31.12.2024 05:10 21,8 °C -0,1 °C 51 % 91 % 1026,8 hPa 0,0 l/m² 14,0 km/h (3 Bft) SW 225 ° 0 min 0 W/m² -1,4 °C -6,5 °C 17,7 km/h (3 Bft)
31.12.2024 05:11 21,8 °C -0,1 °C 51 % 91 % 1026,8 hPa 0,0 l/m² 10,5 km/h (2 Bft) S-SW 212 ° 0 min 0 W/m² -1,4 °C -4,0 °C 14,5 km/h (3 Bft)
31.12.2024 05:12 21,8 °C -0,1 °C 51 % 91 % 1026,8 hPa 0,0 l/m² 11,5 km/h (2 Bft) SW 225 ° 0 min 0 W/m² -1,4 °C -4,7 °C 14,5 km/h (3 Bft)
31.12.2024 05:14 21,8 °C -0,1 °C 51 % 91 % 1026,8 hPa 0,0 l/m² 14,0 km/h (3 Bft) SW 219 ° 0 min 0 W/m² -1,4 °C -6,5 °C 19,3 km/h (3 Bft)
31.12.2024 05:16 21,8 °C -0,2 °C 51 % 91 % 1026,7 hPa 0,0 l/m² 15,4 km/h (3 Bft) SW 218 ° 0 min 0 W/m² -1,5 °C -7,5 °C 20,9 km/h (4 Bft)
31.12.2024 05:18 21,8 °C -0,1 °C 51 % 91 % 1026,8 hPa 0,0 l/m² 15,3 km/h (3 Bft) SW 226 ° 0 min 0 W/m² -1,4 °C -7,3 °C 20,9 km/h (4 Bft)
31.12.2024 05:20 21,8 °C -0,1 °C 51 % 91 % 1026,8 hPa 0,0 l/m² 12,7 km/h (3 Bft) SW 218 ° 0 min 0 W/m² -1,4 °C -5,6 °C 16,1 km/h (3 Bft)
31.12.2024 05:21 21,8 °C -0,1 °C 51 % 91 % 1026,8 hPa 0,0 l/m² 12,4 km/h (2 Bft) SW 232 ° 0 min 0 W/m² -1,4 °C -5,4 °C 14,5 km/h (3 Bft)
31.12.2024 05:22 21,8 °C -0,1 °C 51 % 91 % 1026,9 hPa 0,0 l/m² 10,5 km/h (2 Bft) SW 220 ° 0 min 0 W/m² -1,4 °C -4,0 °C 14,5 km/h (3 Bft)
31.12.2024 05:24 21,8 °C -0,1 °C 51 % 91 % 1026,9 hPa 0,0 l/m² 9,7 km/h (2 Bft) SW 234 ° 0 min 0 W/m² -1,4 °C -3,3 °C 14,5 km/h (3 Bft)
31.12.2024 05:26 21,9 °C -0,1 °C 51 % 91 % 1026,8 hPa 0,0 l/m² 10,6 km/h (2 Bft) SW 215 ° 0 min 0 W/m² -1,4 °C -4,1 °C 16,1 km/h (3 Bft)
31.12.2024 05:28 21,8 °C -0,1 °C 51 % 91 % 1026,9 hPa 0,0 l/m² 8,3 km/h (2 Bft) SW 219 ° 0 min 0 W/m² -1,4 °C -2,0 °C 12,9 km/h (3 Bft)
31.12.2024 05:30 21,8 °C -0,1 °C 51 % 91 % 1026,8 hPa 0,0 l/m² 12,4 km/h (2 Bft) SW 225 ° 0 min 0 W/m² -1,4 °C -5,4 °C 16,1 km/h (3 Bft)
31.12.2024 05:31 21,8 °C -0,1 °C 51 % 91 % 1026,8 hPa 0,0 l/m² 14,2 km/h (3 Bft) SW 217 ° 0 min 0 W/m² -1,4 °C -6,6 °C 19,3 km/h (3 Bft)
31.12.2024 05:32 21,8 °C -0,1 °C 51 % 91 % 1026,8 hPa 0,0 l/m² 12,4 km/h (2 Bft) SW 216 ° 0 min 0 W/m² -1,4 °C -5,4 °C 17,7 km/h (3 Bft)
31.12.2024 05:34 21,8 °C -0,1 °C 51 % 91 % 1026,7 hPa 0,0 l/m² 12,2 km/h (2 Bft) S-SW 213 ° 0 min 0 W/m² -1,4 °C -5,3 °C 17,7 km/h (3 Bft)
31.12.2024 05:36 21,8 °C -0,1 °C 51 % 91 % 1026,8 hPa 0,0 l/m² 13,0 km/h (3 Bft) SW 223 ° 0 min 0 W/m² -1,4 °C -5,8 °C 17,7 km/h (3 Bft)
31.12.2024 05:38 21,8 °C 0,0 °C 51 % 91 % 1026,7 hPa 0,0 l/m² 9,2 km/h (2 Bft) SW 220 ° 0 min 0 W/m² -1,3 °C -2,8 °C 14,5 km/h (3 Bft)
31.12.2024 05:40 21,8 °C -0,1 °C 51 % 91 % 1026,8 hPa 0,0 l/m² 10,6 km/h (2 Bft) SW 216 ° 0 min 0 W/m² -1,4 °C -4,1 °C 14,5 km/h (3 Bft)
31.12.2024 05:41 21,8 °C -0,1 °C 51 % 91 % 1026,8 hPa 0,0 l/m² 10,3 km/h (2 Bft) SW 225 ° 0 min 0 W/m² -1,4 °C -3,8 °C 16,1 km/h (3 Bft)
31.12.2024 05:42 21,8 °C -0,1 °C 51 % 91 % 1026,8 hPa 0,0 l/m² 12,5 km/h (2 Bft) SW 229 ° 0 min 0 W/m² -1,4 °C -5,5 °C 17,7 km/h (3 Bft)
31.12.2024 05:44 21,8 °C -0,1 °C 51 % 91 % 1026,7 hPa 0,0 l/m² 10,7 km/h (2 Bft) S-SW 204 ° 0 min 0 W/m² -1,4 °C -4,1 °C 16,1 km/h (3 Bft)
31.12.2024 05:46 21,8 °C -0,1 °C 51 % 91 % 1026,8 hPa 0,0 l/m² 10,1 km/h (2 Bft) SW 215 ° 0 min 0 W/m² -1,4 °C -3,6 °C 16,1 km/h (3 Bft)
31.12.2024 05:48 21,8 °C -0,1 °C 51 % 91 % 1026,8 hPa 0,0 l/m² 7,7 km/h (2 Bft) S-SW 211 ° 0 min 0 W/m² -1,4 °C -1,5 °C 11,3 km/h (2 Bft)
31.12.2024 05:50 21,8 °C -0,1 °C 51 % 91 % 1026,7 hPa 0,0 l/m² 10,6 km/h (2 Bft) S-SW 197 ° 0 min 0 W/m² -1,4 °C -4,1 °C 12,9 km/h (3 Bft)
31.12.2024 05:51 21,8 °C -0,1 °C 51 % 91 % 1026,7 hPa 0,0 l/m² 10,5 km/h (2 Bft) SW 216 ° 0 min 0 W/m² -1,4 °C -4,0 °C 12,9 km/h (3 Bft)
31.12.2024 05:52 21,8 °C -0,1 °C 51 % 91 % 1026,8 hPa 0,0 l/m² 8,8 km/h (2 Bft) S-SW 200 ° 0 min 0 W/m² -1,4 °C -2,5 °C 11,3 km/h (2 Bft)
31.12.2024 05:54 21,8 °C -0,1 °C 51 % 91 % 1026,8 hPa 0,0 l/m² 12,5 km/h (2 Bft) S-SW 198 ° 0 min 0 W/m² -1,4 °C -5,5 °C 17,7 km/h (3 Bft)
31.12.2024 05:56 21,8 °C -0,2 °C 51 % 91 % 1026,8 hPa 0,0 l/m² 8,9 km/h (2 Bft) S-SW 194 ° 0 min 0 W/m² -1,5 °C -2,7 °C 11,3 km/h (2 Bft)
31.12.2024 05:58 21,8 °C -0,1 °C 51 % 91 % 1026,8 hPa 0,0 l/m² 6,7 km/h (2 Bft) S-SW 207 ° 0 min 0 W/m² -1,4 °C -0,4 °C 11,3 km/h (2 Bft)
31.12.2024 06:00 21,8 °C -0,2 °C 51 % 91 % 1026,7 hPa 0,0 l/m² 7,6 km/h (2 Bft) SW 215 ° 0 min 0 W/m² -1,5 °C -1,5 °C 14,5 km/h (3 Bft)
31.12.2024 06:01 21,8 °C -0,2 °C 51 % 91 % 1026,8 hPa 0,0 l/m² 10,2 km/h (2 Bft) S-SW 194 ° 0 min 0 W/m² -1,5 °C -3,8 °C 14,5 km/h (3 Bft)
31.12.2024 06:02 21,8 °C -0,2 °C 51 % 91 % 1026,8 hPa 0,0 l/m² 12,3 km/h (2 Bft) S-SW 200 ° 0 min 0 W/m² -1,5 °C -5,4 °C 14,5 km/h (3 Bft)
31.12.2024 06:05 21,8 °C -0,2 °C 51 % 91 % 1026,7 hPa 0,0 l/m² 8,2 km/h (2 Bft) SW 225 ° 0 min 0 W/m² -1,5 °C -2,1 °C 12,9 km/h (3 Bft)
31.12.2024 06:07 21,8 °C -0,2 °C 51 % 91 % 1026,8 hPa 0,0 l/m² 7,9 km/h (2 Bft) S-SW 210 ° 0 min 0 W/m² -1,5 °C -1,8 °C 11,3 km/h (2 Bft)
31.12.2024 06:09 21,8 °C -0,2 °C 51 % 91 % 1026,7 hPa 0,0 l/m² 10,2 km/h (2 Bft) S 191 ° 0 min 0 W/m² -1,5 °C -3,8 °C 14,5 km/h (3 Bft)
31.12.2024 06:10 21,8 °C -0,2 °C 51 % 91 % 1026,7 hPa 0,0 l/m² 10,4 km/h (2 Bft) SW 214 ° 0 min 0 W/m² -1,5 °C -4,0 °C 14,5 km/h (3 Bft)
31.12.2024 06:11 21,8 °C -0,2 °C 51 % 91 % 1026,7 hPa 0,0 l/m² 10,4 km/h (2 Bft) SW 215 ° 0 min 0 W/m² -1,5 °C -4,0 °C 14,5 km/h (3 Bft)
31.12.2024 06:12 21,8 °C -0,2 °C 51 % 91 % 1026,5 hPa 0,0 l/m² 10,3 km/h (2 Bft) S-SW 209 ° 0 min 0 W/m² -1,5 °C -3,9 °C 12,9 km/h (3 Bft)
31.12.2024 06:15 21,8 °C -0,2 °C 51 % 91 % 1026,7 hPa 0,0 l/m² 10,2 km/h (2 Bft) S-SW 198 ° 0 min 0 W/m² -1,5 °C -3,8 °C 14,5 km/h (3 Bft)
31.12.2024 06:17 21,8 °C -0,2 °C 51 % 91 % 1026,6 hPa 0,0 l/m² 12,1 km/h (2 Bft) SW 226 ° 0 min 0 W/m² -1,5 °C -5,3 °C 16,1 km/h (3 Bft)
31.12.2024 06:19 21,8 °C -0,1 °C 51 % 91 % 1026,6 hPa 0,0 l/m² 11,8 km/h (2 Bft) S 184 ° 0 min 0 W/m² -1,4 °C -5,0 °C 17,7 km/h (3 Bft)
31.12.2024 06:21 21,8 °C -0,1 °C 51 % 91 % 1026,6 hPa 0,0 l/m² 10,6 km/h (2 Bft) S-SW 200 ° 0 min 0 W/m² -1,4 °C -4,1 °C 14,5 km/h (3 Bft)
31.12.2024 06:22 21,8 °C -0,1 °C 51 % 91 % 1026,6 hPa 0,0 l/m² 13,2 km/h (3 Bft) S-SW 196 ° 0 min 0 W/m² -1,4 °C -6,0 °C 17,7 km/h (3 Bft)
31.12.2024 06:23 21,8 °C -0,1 °C 51 % 91 % 1026,6 hPa 0,0 l/m² 11,3 km/h (2 Bft) S-SW 204 ° 0 min 0 W/m² -1,4 °C -4,6 °C 19,3 km/h (3 Bft)
31.12.2024 06:26 21,8 °C -0,1 °C 51 % 91 % 1026,7 hPa 0,0 l/m² 14,8 km/h (3 Bft) S 190 ° 0 min 0 W/m² -1,4 °C -7,0 °C 22,5 km/h (4 Bft)
31.12.2024 06:28 21,8 °C -0,1 °C 51 % 91 % 1026,7 hPa 0,0 l/m² 9,8 km/h (2 Bft) S-SW 196 ° 0 min 0 W/m² -1,4 °C -3,4 °C 12,9 km/h (3 Bft)
31.12.2024 06:30 21,8 °C -0,1 °C 51 % 91 % 1026,7 hPa 0,0 l/m² 9,4 km/h (2 Bft) W-SW 246 ° 0 min 0 W/m² -1,4 °C -3,0 °C 12,9 km/h (3 Bft)
31.12.2024 06:31 21,8 °C -0,1 °C 51 % 91 % 1026,7 hPa 0,0 l/m² 9,1 km/h (2 Bft) SW 232 ° 0 min 0 W/m² -1,4 °C -2,8 °C 16,1 km/h (3 Bft)
31.12.2024 06:32 21,8 °C 0,0 °C 51 % 91 % 1026,7 hPa 0,0 l/m² 13,7 km/h (3 Bft) S-SW 213 ° 0 min 0 W/m² -1,3 °C -6,2 °C 24,1 km/h (4 Bft)
31.12.2024 06:33 21,8 °C 0,0 °C 51 % 91 % 1026,7 hPa 0,0 l/m² 11,5 km/h (2 Bft) W-SW 240 ° 0 min 0 W/m² -1,3 °C -4,6 °C 14,5 km/h (3 Bft)
31.12.2024 06:35 21,8 °C 0,1 °C 51 % 91 % 1026,7 hPa 0,0 l/m² 8,0 km/h (2 Bft) W-SW 242 ° 0 min 0 W/m² -1,2 °C -1,5 °C 14,5 km/h (3 Bft)
31.12.2024 06:36 21,8 °C 0,1 °C 51 % 91 % 1026,7 hPa 0,0 l/m² 8,0 km/h (2 Bft) W-SW 240 ° 0 min 0 W/m² -1,2 °C -1,5 °C 9,7 km/h (2 Bft)
31.12.2024 06:38 21,8 °C 0,1 °C 51 % 91 % 1026,7 hPa 0,0 l/m² 12,8 km/h (3 Bft) SW 222 ° 0 min 0 W/m² -1,2 °C -5,4 °C 19,3 km/h (3 Bft)
31.12.2024 06:40 21,8 °C 0,1 °C 51 % 91 % 1026,7 hPa 0,0 l/m² 13,4 km/h (3 Bft) S-SW 197 ° 0 min 0 W/m² -1,2 °C -5,9 °C 17,7 km/h (3 Bft)
31.12.2024 06:41 21,8 °C 0,1 °C 51 % 91 % 1026,8 hPa 0,0 l/m² 11,6 km/h (2 Bft) S-SW 213 ° 0 min 0 W/m² -1,2 °C -4,6 °C 14,5 km/h (3 Bft)
31.12.2024 06:42 21,8 °C 0,1 °C 51 % 91 % 1026,7 hPa 0,0 l/m² 8,5 km/h (2 Bft) S 189 ° 0 min 0 W/m² -1,2 °C -2,0 °C 11,3 km/h (2 Bft)
31.12.2024 06:43 21,8 °C 0,1 °C 51 % 91 % 1026,7 hPa 0,0 l/m² 9,5 km/h (2 Bft) SW 217 ° 0 min 0 W/m² -1,2 °C -2,9 °C 12,9 km/h (3 Bft)
31.12.2024 06:46 21,8 °C 0,1 °C 51 % 91 % 1026,8 hPa 0,0 l/m² 5,3 km/h (1 Bft) SW 229 ° 0 min 0 W/m² -1,2 °C 0,1 °C 11,3 km/h (2 Bft)
31.12.2024 06:48 21,8 °C 0,1 °C 51 % 91 % 1026,9 hPa 0,0 l/m² 3,4 km/h (1 Bft) SW 225 ° 0 min 0 W/m² -1,2 °C 0,1 °C 6,4 km/h (2 Bft)
31.12.2024 06:50 21,8 °C 0,1 °C 51 % 91 % 1026,8 hPa 0,0 l/m² 5,5 km/h (2 Bft) SW 225 ° 0 min 0 W/m² -1,2 °C 0,1 °C 16,1 km/h (3 Bft)
31.12.2024 06:51 21,8 °C 0,1 °C 51 % 91 % 1026,8 hPa 0,0 l/m² 12,2 km/h (2 Bft) S-SW 203 ° 0 min 0 W/m² -1,2 °C -5,0 °C 16,1 km/h (3 Bft)
31.12.2024 06:53 21,8 °C 0,1 °C 51 % 91 % 1026,8 hPa 0,0 l/m² 8,8 km/h (2 Bft) SW 221 ° 0 min 0 W/m² -1,2 °C -2,3 °C 12,9 km/h (3 Bft)
31.12.2024 06:54 21,8 °C 0,1 °C 51 % 91 % 1026,8 hPa 0,0 l/m² 8,4 km/h (2 Bft) SW 214 ° 0 min 0 W/m² -1,2 °C -1,9 °C 11,3 km/h (2 Bft)
31.12.2024 06:56 21,8 °C 0,1 °C 51 % 91 % 1026,8 hPa 0,0 l/m² 9,1 km/h (2 Bft) S-SW 200 ° 0 min 0 W/m² -1,2 °C -2,6 °C 16,1 km/h (3 Bft)
31.12.2024 06:58 21,8 °C 0,1 °C 51 % 91 % 1026,7 hPa 0,0 l/m² 11,9 km/h (2 Bft) SW 231 ° 0 min 0 W/m² -1,2 °C -4,8 °C 16,1 km/h (3 Bft)
31.12.2024 07:00 21,8 °C 0,1 °C 51 % 91 % 1026,7 hPa 0,0 l/m² 11,4 km/h (2 Bft) SW 216 ° 0 min 0 W/m² -1,2 °C -4,4 °C 14,5 km/h (3 Bft)
31.12.2024 07:01 21,8 °C 0,1 °C 51 % 91 % 1026,8 hPa 0,0 l/m² 14,2 km/h (3 Bft) SW 215 ° 0 min 0 W/m² -1,2 °C -6,4 °C 22,5 km/h (4 Bft)
31.12.2024 07:02 21,9 °C 0,1 °C 51 % 91 % 1026,7 hPa 0,0 l/m² 12,3 km/h (2 Bft) S-SW 211 ° 0 min 0 W/m² -1,2 °C -5,1 °C 17,7 km/h (3 Bft)
31.12.2024 07:03 21,8 °C 0,1 °C 51 % 91 % 1026,7 hPa 0,0 l/m² 9,5 km/h (2 Bft) SW 222 ° 0 min 0 W/m² -1,2 °C -2,9 °C 11,3 km/h (2 Bft)
31.12.2024 07:06 21,9 °C 0,1 °C 51 % 91 % 1026,8 hPa 0,0 l/m² 12,0 km/h (2 Bft) SW 216 ° 0 min 0 W/m² -1,2 °C -4,9 °C 19,3 km/h (3 Bft)
31.12.2024 07:08 21,9 °C 0,1 °C 51 % 91 % 1026,8 hPa 0,0 l/m² 16,5 km/h (3 Bft) SW 223 ° 0 min 0 W/m² -1,2 °C -7,7 °C 20,9 km/h (4 Bft)
31.12.2024 07:10 21,9 °C 0,1 °C 51 % 91 % 1026,7 hPa 0,0 l/m² 16,2 km/h (3 Bft) S-SW 206 ° 0 min 0 W/m² -1,2 °C -7,6 °C 20,9 km/h (4 Bft)
31.12.2024 07:12 21,9 °C 0,1 °C 51 % 91 % 1026,8 hPa 0,0 l/m² 14,8 km/h (3 Bft) SW 215 ° 0 min 0 W/m² -1,2 °C -6,7 °C 19,3 km/h (3 Bft)
31.12.2024 07:13 21,9 °C 0,1 °C 51 % 91 % 1026,8 hPa 0,0 l/m² 13,5 km/h (3 Bft) SW 217 ° 0 min 0 W/m² -1,2 °C -5,9 °C 19,3 km/h (3 Bft)
31.12.2024 07:14 21,9 °C 0,1 °C 51 % 91 % 1026,8 hPa 0,0 l/m² 11,8 km/h (2 Bft) S-SW 196 ° 0 min 0 W/m² -1,2 °C -4,7 °C 14,5 km/h (3 Bft)
31.12.2024 07:15 21,9 °C 0,1 °C 51 % 91 % 1026,7 hPa 0,0 l/m² 14,8 km/h (3 Bft) S-SW 209 ° 0 min 0 W/m² -1,2 °C -6,7 °C 19,3 km/h (3 Bft)
31.12.2024 07:17 21,9 °C 0,1 °C 51 % 91 % 1026,8 hPa 0,0 l/m² 14,9 km/h (3 Bft) SW 219 ° 0 min 0 W/m² -1,2 °C -6,8 °C 20,9 km/h (4 Bft)
31.12.2024 07:19 21,9 °C 0,1 °C 51 % 91 % 1026,8 hPa 0,0 l/m² 14,9 km/h (3 Bft) S-SW 209 ° 0 min 0 W/m² -1,2 °C -6,8 °C 22,5 km/h (4 Bft)
31.12.2024 07:21 21,9 °C 0,1 °C 51 % 91 % 1026,8 hPa 0,0 l/m² 12,1 km/h (2 Bft) SW 217 ° 0 min 0 W/m² -1,2 °C -5,0 °C 19,3 km/h (3 Bft)
31.12.2024 07:22 21,9 °C 0,1 °C 51 % 91 % 1026,8 hPa 0,0 l/m² 10,9 km/h (2 Bft) S-SW 199 ° 0 min 0 W/m² -1,2 °C -4,1 °C 14,5 km/h (3 Bft)
31.12.2024 07:23 21,9 °C 0,1 °C 51 % 91 % 1026,8 hPa 0,0 l/m² 10,5 km/h (2 Bft) SW 216 ° 0 min 0 W/m² -1,2 °C -3,7 °C 12,9 km/h (3 Bft)
31.12.2024 07:25 21,9 °C 0,1 °C 51 % 91 % 1026,7 hPa 0,0 l/m² 8,3 km/h (2 Bft) S-SW 211 ° 0 min 0 W/m² -1,2 °C -1,8 °C 11,3 km/h (2 Bft)
31.12.2024 07:26 21,9 °C 0,1 °C 51 % 91 % 1026,8 hPa 0,0 l/m² 9,5 km/h (2 Bft) S-SW 205 ° 0 min 0 W/m² -1,2 °C -2,9 °C 12,9 km/h (3 Bft)
31.12.2024 07:27 21,9 °C 0,1 °C 51 % 91 % 1026,8 hPa 0,0 l/m² 11,2 km/h (2 Bft) S 179 ° 0 min 0 W/m² -1,2 °C -4,3 °C 14,5 km/h (3 Bft)
31.12.2024 07:29 21,9 °C 0,1 °C 51 % 91 % 1026,6 hPa 0,0 l/m² 10,4 km/h (2 Bft) S-SW 192 ° 0 min 0 W/m² -1,2 °C -3,7 °C 12,9 km/h (3 Bft)
31.12.2024 07:31 21,9 °C 0,1 °C 51 % 91 % 1026,7 hPa 0,0 l/m² 10,4 km/h (2 Bft) SW 218 ° 0 min 0 W/m² -1,2 °C -3,7 °C 17,7 km/h (3 Bft)
31.12.2024 07:33 21,9 °C 0,1 °C 51 % 91 % 1026,7 hPa 0,0 l/m² 12,0 km/h (2 Bft) S-SW 210 ° 0 min 0 W/m² -1,2 °C -4,9 °C 16,1 km/h (3 Bft)
31.12.2024 07:34 21,9 °C 0,1 °C 51 % 91 % 1026,7 hPa 0,0 l/m² 10,2 km/h (2 Bft) S-SW 207 ° 0 min 0 W/m² -1,2 °C -3,5 °C 11,3 km/h (2 Bft)
31.12.2024 07:36 21,9 °C 0,0 °C 51 % 91 % 1026,7 hPa 0,0 l/m² 10,3 km/h (2 Bft) S-SW 213 ° 0 min 0 W/m² -1,3 °C -3,7 °C 12,9 km/h (3 Bft)
31.12.2024 07:38 21,9 °C 0,0 °C 51 % 91 % 1026,7 hPa 0,0 l/m² 10,3 km/h (2 Bft) SW 214 ° 0 min 0 W/m² -1,3 °C -3,7 °C 14,5 km/h (3 Bft)
31.12.2024 07:40 21,9 °C 0,0 °C 51 % 91 % 1026,7 hPa 0,0 l/m² 10,5 km/h (2 Bft) S-SW 208 ° 0 min 0 W/m² -1,3 °C -3,9 °C 14,5 km/h (3 Bft)
31.12.2024 07:41 21,9 °C -0,1 °C 51 % 91 % 1026,7 hPa 0,0 l/m² 8,2 km/h (2 Bft) S-SW 205 ° 0 min 0 W/m² -1,4 °C -1,9 °C 11,3 km/h (2 Bft)
31.12.2024 07:42 21,9 °C -0,1 °C 51 % 91 % 1026,6 hPa 0,0 l/m² 7,7 km/h (2 Bft) S-SW 194 ° 0 min 0 W/m² -1,4 °C -1,5 °C 11,3 km/h (2 Bft)
31.12.2024 07:43 21,9 °C -0,1 °C 51 % 91 % 1026,7 hPa 0,0 l/m² 8,0 km/h (2 Bft) S-SW 206 ° 0 min 0 W/m² -1,4 °C -1,8 °C 9,7 km/h (2 Bft)
31.12.2024 07:46 21,9 °C -0,1 °C 51 % 91 % 1026,7 hPa 0,0 l/m² 5,1 km/h (1 Bft) S-SW 207 ° 0 min 0 W/m² -1,4 °C -0,1 °C 9,7 km/h (2 Bft)
31.12.2024 07:48 21,9 °C -0,1 °C 51 % 91 % 1026,6 hPa 0,0 l/m² 6,3 km/h (2 Bft) S-SW 208 ° 0 min 0 W/m² -1,4 °C -0,1 °C 9,7 km/h (2 Bft)
31.12.2024 07:50 21,9 °C -0,1 °C 51 % 91 % 1026,7 hPa 0,0 l/m² 8,5 km/h (2 Bft) S-SW 203 ° 0 min 0 W/m² -1,4 °C -2,2 °C 14,5 km/h (3 Bft)
31.12.2024 07:51 21,9 °C -0,1 °C 51 % 91 % 1026,6 hPa 0,0 l/m² 11,2 km/h (2 Bft) S-SW 201 ° 0 min 0 W/m² -1,4 °C -4,5 °C 16,1 km/h (3 Bft)
31.12.2024 07:52 21,9 °C -0,1 °C 51 % 91 % 1026,6 hPa 0,0 l/m² 12,5 km/h (2 Bft) S-SW 205 ° 0 min 0 W/m² -1,4 °C -5,5 °C 14,5 km/h (3 Bft)
31.12.2024 07:53 21,9 °C -0,2 °C 51 % 91 % 1026,6 hPa 0,0 l/m² 9,5 km/h (2 Bft) S-SW 205 ° 0 min 0 W/m² -1,5 °C -3,2 °C 11,3 km/h (2 Bft)
31.12.2024 07:54 21,9 °C -0,2 °C 51 % 91 % 1026,6 hPa 0,0 l/m² 9,9 km/h (2 Bft) S-SW 209 ° 0 min 0 W/m² -1,5 °C -3,6 °C 12,9 km/h (3 Bft)
31.12.2024 07:55 21,9 °C -0,2 °C 51 % 91 % 1026,6 hPa 0,0 l/m² 9,6 km/h (2 Bft) S-SW 206 ° 0 min 0 W/m² -1,5 °C -3,3 °C 12,9 km/h (3 Bft)
31.12.2024 07:57 21,9 °C -0,2 °C 51 % 91 % 1026,6 hPa 0,0 l/m² 10,2 km/h (2 Bft) S-SW 213 ° 0 min 0 W/m² -1,5 °C -3,8 °C 16,1 km/h (3 Bft)
31.12.2024 07:59 21,9 °C -0,2 °C 51 % 91 % 1026,6 hPa 0,0 l/m² 10,9 km/h (2 Bft) S-SW 202 ° 0 min 0 W/m² -1,5 °C -4,4 °C 12,9 km/h (3 Bft)
31.12.2024 08:01 21,9 °C -0,2 °C 51 % 91 % 1026,6 hPa 0,0 l/m² 9,1 km/h (2 Bft) S-SW 206 ° 0 min 0 W/m² -1,5 °C -2,9 °C 12,9 km/h (3 Bft)
31.12.2024 08:02 21,9 °C -0,2 °C 51 % 91 % 1026,6 hPa 0,0 l/m² 10,0 km/h (2 Bft) S-SW 202 ° 0 min 0 W/m² -1,5 °C -3,7 °C 12,9 km/h (3 Bft)
31.12.2024 08:03 21,9 °C -0,2 °C 51 % 91 % 1026,6 hPa 0,0 l/m² 9,7 km/h (2 Bft) S-SW 199 ° 0 min 0 W/m² -1,5 °C -3,4 °C 12,9 km/h (3 Bft)
31.12.2024 08:04 21,9 °C -0,3 °C 51 % 91 % 1026,6 hPa 0,0 l/m² 10,6 km/h (2 Bft) S-SW 201 ° 0 min 0 W/m² -1,6 °C -4,3 °C 14,5 km/h (3 Bft)
31.12.2024 08:05 21,9 °C -0,3 °C 51 % 91 % 1026,6 hPa 0,0 l/m² 11,9 km/h (2 Bft) S-SW 200 ° 0 min 0 W/m² -1,6 °C -5,3 °C 14,5 km/h (3 Bft)
31.12.2024 08:07 21,9 °C -0,3 °C 51 % 91 % 1026,6 hPa 0,0 l/m² 11,9 km/h (2 Bft) S-SW 198 ° 0 min 0 W/m² -1,6 °C -5,3 °C 14,5 km/h (3 Bft)
31.12.2024 08:09 21,9 °C -0,2 °C 51 % 91 % 1026,6 hPa 0,0 l/m² 10,9 km/h (2 Bft) S-SW 210 ° 0 min 0 W/m² -1,5 °C -4,4 °C 14,5 km/h (3 Bft)
31.12.2024 08:11 21,9 °C -0,3 °C 51 % 91 % 1026,7 hPa 0,0 l/m² 9,4 km/h (2 Bft) S-SW 207 ° 0 min 0 W/m² -1,6 °C -3,3 °C 12,9 km/h (3 Bft)
31.12.2024 08:12 21,9 °C -0,3 °C 51 % 91 % 1026,7 hPa 0,0 l/m² 10,1 km/h (2 Bft) S-SW 203 ° 0 min 0 W/m² -1,6 °C -3,9 °C 11,3 km/h (2 Bft)
31.12.2024 08:13 21,9 °C -0,3 °C 51 % 91 % 1026,7 hPa 0,0 l/m² 7,5 km/h (2 Bft) S-SW 202 ° 0 min 0 W/m² -1,6 °C -1,5 °C 11,3 km/h (2 Bft)
31.12.2024 08:16 21,9 °C -0,3 °C 51 % 91 % 1026,6 hPa 0,0 l/m² 5,3 km/h (1 Bft) S-SW 202 ° 0 min 0 W/m² -1,6 °C -0,3 °C 8,0 km/h (2 Bft)
31.12.2024 08:18 21,9 °C -0,3 °C 51 % 91 % 1026,7 hPa 0,0 l/m² 5,8 km/h (2 Bft) S-SW 202 ° 0 min 0 W/m² -1,6 °C -0,3 °C 8,0 km/h (2 Bft)
31.12.2024 08:20 21,9 °C -0,3 °C 51 % 91 % 1026,7 hPa 0,0 l/m² 8,6 km/h (2 Bft) S 186 ° 0 min 5 W/m² -1,6 °C -2,5 °C 14,5 km/h (3 Bft)
31.12.2024 08:21 21,9 °C -0,3 °C 51 % 91 % 1026,6 hPa 0,0 l/m² 8,2 km/h (2 Bft) S-SW 202 ° 0 min 5 W/m² -1,6 °C -2,2 °C 11,3 km/h (2 Bft)
31.12.2024 08:22 21,9 °C -0,3 °C 51 % 91 % 1026,7 hPa 0,0 l/m² 8,0 km/h (2 Bft) S-SW 208 ° 0 min 5 W/m² -1,6 °C -2,0 °C 9,7 km/h (2 Bft)
31.12.2024 08:23 21,9 °C -0,4 °C 51 % 91 % 1026,7 hPa 0,0 l/m² 7,4 km/h (2 Bft) S-SW 213 ° 0 min 5 W/m² -1,7 °C -1,5 °C 9,7 km/h (2 Bft)
31.12.2024 08:26 21,9 °C -0,3 °C 51 % 91 % 1026,8 hPa 0,0 l/m² 6,1 km/h (2 Bft) S-SW 212 ° 0 min 7 W/m² -1,6 °C -0,3 °C 9,7 km/h (2 Bft)
31.12.2024 08:28 21,9 °C -0,3 °C 51 % 91 % 1026,7 hPa 0,0 l/m² 6,7 km/h (2 Bft) SW 214 ° 0 min 9 W/m² -1,6 °C -0,6 °C 8,0 km/h (2 Bft)
31.12.2024 08:30 21,9 °C -0,4 °C 52 % 91 % 1026,7 hPa 0,0 l/m² 8,8 km/h (2 Bft) S-SW 213 ° 0 min 9 W/m² -1,7 °C -2,8 °C 12,9 km/h (3 Bft)
31.12.2024 08:31 21,9 °C -0,4 °C 51 % 91 % 1026,7 hPa 0,0 l/m² 7,2 km/h (2 Bft) S-SW 213 ° 0 min 11 W/m² -1,7 °C -1,2 °C 9,7 km/h (2 Bft)
31.12.2024 08:32 21,9 °C -0,4 °C 51 % 91 % 1026,7 hPa 0,0 l/m² 6,6 km/h (2 Bft) S-SW 213 ° 0 min 11 W/m² -1,7 °C -0,6 °C 8,0 km/h (2 Bft)
31.12.2024 08:33 21,9 °C -0,4 °C 51 % 91 % 1026,7 hPa 0,0 l/m² 6,1 km/h (2 Bft) S-SW 213 ° 0 min 11 W/m² -1,7 °C -0,4 °C 8,0 km/h (2 Bft)
31.12.2024 08:35 21,9 °C -0,4 °C 52 % 91 % 1026,7 hPa 0,0 l/m² 5,7 km/h (2 Bft) S-SW 213 ° 0 min 12 W/m² -1,7 °C -0,4 °C 9,7 km/h (2 Bft)
31.12.2024 08:36 21,9 °C -0,4 °C 52 % 91 % 1026,8 hPa 0,0 l/m² 4,5 km/h (1 Bft) S-SW 213 ° 0 min 12 W/m² -1,7 °C -0,4 °C 8,0 km/h (2 Bft)
31.12.2024 08:38 21,9 °C -0,4 °C 52 % 91 % 1026,7 hPa 0,0 l/m² 1,4 km/h (1 Bft) S-SW 213 ° 0 min 14 W/m² -1,7 °C -0,4 °C 4,8 km/h (1 Bft)
31.12.2024 08:40 21,9 °C -0,4 °C 52 % 91 % 1026,8 hPa 0,0 l/m² 2,0 km/h (1 Bft) S-SW 213 ° 0 min 14 W/m² -1,7 °C -0,4 °C 4,8 km/h (1 Bft)
31.12.2024 08:41 21,9 °C -0,4 °C 52 % 91 % 1026,8 hPa 0,0 l/m² 6,6 km/h (2 Bft) S-SW 207 ° 0 min 16 W/m² -1,7 °C -0,6 °C 9,7 km/h (2 Bft)
31.12.2024 08:42 21,9 °C -0,4 °C 52 % 91 % 1026,8 hPa 0,0 l/m² 9,3 km/h (2 Bft) S-SW 203 ° 0 min 16 W/m² -1,7 °C -3,3 °C 12,9 km/h (3 Bft)
31.12.2024 08:43 21,9 °C -0,4 °C 52 % 91 % 1026,8 hPa 0,0 l/m² 5,1 km/h (1 Bft) S-SW 202 ° 0 min 16 W/m² -1,7 °C -0,4 °C 8,0 km/h (2 Bft)
31.12.2024 08:46 21,9 °C -0,4 °C 52 % 92 % 1026,9 hPa 0,0 l/m² 8,3 km/h (2 Bft) S-SW 213 ° 0 min 19 W/m² -1,5 °C -2,4 °C 12,9 km/h (3 Bft)
31.12.2024 08:48 21,9 °C -0,3 °C 52 % 92 % 1026,9 hPa 0,0 l/m² 9,1 km/h (2 Bft) SW 214 ° 0 min 19 W/m² -1,4 °C -3,0 °C 12,9 km/h (3 Bft)
31.12.2024 08:50 21,9 °C -0,2 °C 52 % 92 % 1026,9 hPa 0,0 l/m² 8,3 km/h (2 Bft) SW 228 ° 0 min 21 W/m² -1,3 °C -2,1 °C 11,3 km/h (2 Bft)
31.12.2024 08:51 21,9 °C -0,1 °C 52 % 92 % 1026,8 hPa 0,0 l/m² 8,1 km/h (2 Bft) SW 216 ° 0 min 21 W/m² -1,2 °C -1,8 °C 11,3 km/h (2 Bft)
31.12.2024 08:52 22,0 °C -0,1 °C 52 % 92 % 1026,8 hPa 0,0 l/m² 11,5 km/h (2 Bft) SW 222 ° 0 min 23 W/m² -1,2 °C -4,7 °C 17,7 km/h (3 Bft)
31.12.2024 08:53 21,9 °C -0,1 °C 52 % 92 % 1026,8 hPa 0,0 l/m² 13,2 km/h (3 Bft) SW 215 ° 0 min 25 W/m² -1,2 °C -6,0 °C 17,7 km/h (3 Bft)
31.12.2024 08:54 22,1 °C -0,1 °C 52 % 92 % 1026,8 hPa 0,0 l/m² 14,8 km/h (3 Bft) SW 225 ° 0 min 25 W/m² -1,2 °C -7,0 °C 17,7 km/h (3 Bft)
31.12.2024 08:56 22,2 °C 0,0 °C 52 % 92 % 1026,8 hPa 0,0 l/m² 12,4 km/h (2 Bft) SW 225 ° 0 min 26 W/m² -1,1 °C -5,3 °C 17,7 km/h (3 Bft)
31.12.2024 08:58 22,3 °C 0,1 °C 52 % 92 % 1026,8 hPa 0,0 l/m² 12,9 km/h (3 Bft) S-SW 207 ° 0 min 26 W/m² -1,0 °C -5,5 °C 19,3 km/h (3 Bft)
31.12.2024 09:00 22,4 °C 0,1 °C 52 % 92 % 1026,7 hPa 0,0 l/m² 14,2 km/h (3 Bft) S-SW 209 ° 0 min 32 W/m² -1,0 °C -6,4 °C 19,3 km/h (3 Bft)
31.12.2024 09:01 22,7 °C 0,1 °C 51 % 92 % 1026,7 hPa 0,0 l/m² 13,5 km/h (3 Bft) SW 218 ° 0 min 32 W/m² -1,0 °C -5,9 °C 17,7 km/h (3 Bft)
31.12.2024 09:02 22,8 °C 0,2 °C 51 % 92 % 1026,7 hPa 0,0 l/m² 14,1 km/h (3 Bft) S-SW 197 ° 0 min 32 W/m² -0,9 °C -6,2 °C 16,1 km/h (3 Bft)
31.12.2024 09:03 22,9 °C 0,2 °C 51 % 92 % 1026,8 hPa 0,0 l/m² 12,1 km/h (2 Bft) S-SW 205 ° 0 min 35 W/m² -0,9 °C -4,8 °C 16,1 km/h (3 Bft)
31.12.2024 09:04 22,9 °C 0,2 °C 51 % 92 % 1026,8 hPa 0,0 l/m² 12,1 km/h (2 Bft) S-SW 201 ° 0 min 37 W/m² -0,9 °C -4,8 °C 20,9 km/h (4 Bft)
31.12.2024 09:06 23,1 °C 0,3 °C 51 % 92 % 1026,9 hPa 0,0 l/m² 11,8 km/h (2 Bft) S-SW 195 ° 0 min 40 W/m² -0,8 °C -4,5 °C 17,7 km/h (3 Bft)
31.12.2024 09:08 23,3 °C 0,4 °C 51 % 92 % 1026,9 hPa 0,0 l/m² 15,5 km/h (3 Bft) S-SW 200 ° 0 min 44 W/m² -0,7 °C -6,8 °C 20,9 km/h (4 Bft)
31.12.2024 09:10 23,7 °C 0,4 °C 50 % 92 % 1027,0 hPa 0,0 l/m² 16,7 km/h (3 Bft) S-SW 207 ° 0 min 47 W/m² -0,7 °C -7,5 °C 20,9 km/h (4 Bft)
31.12.2024 09:11 23,9 °C 0,4 °C 50 % 92 % 1027,0 hPa 0,0 l/m² 16,2 km/h (3 Bft) S-SW 206 ° 0 min 49 W/m² -0,7 °C -7,2 °C 20,9 km/h (4 Bft)
31.12.2024 09:12 24,1 °C 0,5 °C 49 % 92 % 1027,0 hPa 0,0 l/m² 14,3 km/h (3 Bft) S-SW 205 ° 0 min 47 W/m² -0,6 °C -6,0 °C 19,3 km/h (3 Bft)
31.12.2024 09:13 24,2 °C 0,5 °C 49 % 92 % 1027,0 hPa 0,0 l/m² 13,9 km/h (3 Bft) S-SW 200 ° 0 min 51 W/m² -0,6 °C -5,7 °C 16,1 km/h (3 Bft)
31.12.2024 09:14 24,3 °C 0,5 °C 49 % 92 % 1027,0 hPa 0,0 l/m² 15,8 km/h (3 Bft) S-SW 207 ° 0 min 51 W/m² -0,6 °C -6,8 °C 19,3 km/h (3 Bft)
31.12.2024 09:16 24,4 °C 0,5 °C 49 % 91 % 1026,9 hPa 0,0 l/m² 13,9 km/h (3 Bft) SW 214 ° 2 min 56 W/m² -0,8 °C -5,7 °C 19,3 km/h (3 Bft)
31.12.2024 09:18 24,6 °C 0,5 °C 48 % 91 % 1026,9 hPa 0,0 l/m² 12,5 km/h (2 Bft) S-SW 202 ° 2 min 56 W/m² -0,8 °C -4,8 °C 16,1 km/h (3 Bft)
31.12.2024 09:20 24,5 °C 0,6 °C 48 % 91 % 1026,9 hPa 0,0 l/m² 14,2 km/h (3 Bft) S-SW 211 ° 2 min 60 W/m² -0,7 °C -5,8 °C 19,3 km/h (3 Bft)
31.12.2024 09:21 24,3 °C 0,6 °C 49 % 91 % 1026,9 hPa 0,0 l/m² 14,6 km/h (3 Bft) S-SW 213 ° 1 min 63 W/m² -0,7 °C -6,0 °C 19,3 km/h (3 Bft)
31.12.2024 09:22 24,3 °C 0,6 °C 49 % 91 % 1026,9 hPa 0,0 l/m² 17,6 km/h (3 Bft) S-SW 202 ° 1 min 65 W/m² -0,7 °C -7,7 °C 20,9 km/h (4 Bft)
31.12.2024 09:24 24,0 °C 0,6 °C 49 % 92 % 1026,9 hPa 0,0 l/m² 16,4 km/h (3 Bft) S-SW 203 ° 2 min 67 W/m² -0,5 °C -7,1 °C 24,1 km/h (4 Bft)
31.12.2024 09:26 23,9 °C 0,7 °C 49 % 92 % 1027,0 hPa 0,0 l/m² 15,3 km/h (3 Bft) S-SW 196 ° 2 min 70 W/m² -0,4 °C -6,3 °C 22,5 km/h (4 Bft)
31.12.2024 09:28 23,7 °C 0,7 °C 50 % 91 % 1027,0 hPa 0,0 l/m² 13,5 km/h (3 Bft) S-SW 194 ° 2 min 63 W/m² -0,6 °C -5,2 °C 20,9 km/h (4 Bft)
31.12.2024 09:30 23,6 °C 0,7 °C 50 % 91 % 1027,0 hPa 0,0 l/m² 12,6 km/h (3 Bft) S-SW 193 ° 2 min 77 W/m² -0,6 °C -4,6 °C 16,1 km/h (3 Bft)
31.12.2024 09:31 23,6 °C 0,7 °C 50 % 91 % 1026,9 hPa 0,0 l/m² 12,4 km/h (2 Bft) S 181 ° 1 min 77 W/m² -0,6 °C -4,5 °C 16,1 km/h (3 Bft)
31.12.2024 09:32 23,6 °C 0,8 °C 50 % 91 % 1026,9 hPa 0,0 l/m² 13,9 km/h (3 Bft) S-SW 200 ° 1 min 81 W/m² -0,5 °C -5,3 °C 19,3 km/h (3 Bft)
31.12.2024 09:33 23,5 °C 0,8 °C 50 % 91 % 1026,9 hPa 0,0 l/m² 10,2 km/h (2 Bft) S-SW 208 ° 1 min 84 W/m² -0,5 °C -2,7 °C 12,9 km/h (3 Bft)
31.12.2024 09:34 23,5 °C 0,8 °C 50 % 91 % 1026,9 hPa 0,0 l/m² 13,1 km/h (3 Bft) S-SW 195 ° 1 min 86 W/m² -0,5 °C -4,8 °C 17,7 km/h (3 Bft)
31.12.2024 09:36 23,5 °C 0,9 °C 50 % 91 % 1026,9 hPa 0,0 l/m² 13,5 km/h (3 Bft) S-SW 208 ° 2 min 90 W/m² -0,4 °C -5,0 °C 17,7 km/h (3 Bft)
31.12.2024 09:38 23,4 °C 0,9 °C 50 % 91 % 1026,9 hPa 0,0 l/m² 15,3 km/h (3 Bft) S-SW 203 ° 2 min 93 W/m² -0,4 °C -6,1 °C 20,9 km/h (4 Bft)
31.12.2024 09:40 23,4 °C 0,9 °C 50 % 91 % 1026,9 hPa 0,0 l/m² 17,4 km/h (3 Bft) S-SW 213 ° 2 min 95 W/m² -0,4 °C -7,2 °C 20,9 km/h (4 Bft)
31.12.2024 09:41 23,4 °C 1,0 °C 50 % 91 % 1027,0 hPa 0,0 l/m² 18,4 km/h (3 Bft) S-SW 207 ° 1 min 97 W/m² -0,3 °C -7,6 °C 22,5 km/h (4 Bft)
31.12.2024 09:42 23,4 °C 1,0 °C 50 % 91 % 1027,0 hPa 0,0 l/m² 17,3 km/h (3 Bft) S-SW 212 ° 1 min 98 W/m² -0,3 °C -7,0 °C 20,9 km/h (4 Bft)
31.12.2024 09:43 23,4 °C 1,0 °C 50 % 91 % 1026,9 hPa 0,0 l/m² 18,1 km/h (3 Bft) S-SW 208 ° 1 min 100 W/m² -0,3 °C -7,4 °C 24,1 km/h (4 Bft)
31.12.2024 09:44 23,3 °C 1,0 °C 50 % 91 % 1027,0 hPa 0,0 l/m² 17,1 km/h (3 Bft) SW 217 ° 1 min 104 W/m² -0,3 °C -6,9 °C 19,3 km/h (3 Bft)
31.12.2024 09:47 23,3 °C 1,1 °C 50 % 91 % 1027,0 hPa 0,0 l/m² 17,0 km/h (3 Bft) S-SW 204 ° 3 min 109 W/m² -0,2 °C -6,8 °C 20,9 km/h (4 Bft)
31.12.2024 09:49 23,3 °C 1,1 °C 50 % 91 % 1027,0 hPa 0,0 l/m² 16,5 km/h (3 Bft) S-SW 205 ° 2 min 113 W/m² -0,2 °C -6,5 °C 22,5 km/h (4 Bft)
31.12.2024 09:50 23,3 °C 1,1 °C 50 % 91 % 1027,0 hPa 0,0 l/m² 14,0 km/h (3 Bft) S-SW 203 ° 1 min 116 W/m² -0,2 °C -5,0 °C 17,7 km/h (3 Bft)
31.12.2024 09:51 23,4 °C 1,2 °C 50 % 91 % 1026,9 hPa 0,0 l/m² 13,5 km/h (3 Bft) S-SW 207 ° 1 min 118 W/m² -0,1 °C -4,6 °C 16,1 km/h (3 Bft)
31.12.2024 09:52 23,4 °C 1,2 °C 50 % 91 % 1026,9 hPa 0,0 l/m² 13,9 km/h (3 Bft) S-SW 212 ° 1 min 118 W/m² -0,1 °C -4,9 °C 16,1 km/h (3 Bft)
31.12.2024 09:54 23,3 °C 1,2 °C 50 % 91 % 1026,9 hPa 0,0 l/m² 11,6 km/h (2 Bft) S-SW 203 ° 2 min 121 W/m² -0,1 °C -3,3 °C 16,1 km/h (3 Bft)
31.12.2024 09:56 23,4 °C 1,3 °C 50 % 90 % 1026,9 hPa 0,0 l/m² 13,4 km/h (3 Bft) S-SW 194 ° 2 min 125 W/m² -0,2 °C -4,4 °C 19,3 km/h (3 Bft)
31.12.2024 09:58 23,4 °C 1,3 °C 50 % 90 % 1026,9 hPa 0,0 l/m² 13,9 km/h (3 Bft) S 187 ° 2 min 127 W/m² -0,2 °C -4,7 °C 17,7 km/h (3 Bft)
31.12.2024 10:00 23,4 °C 1,3 °C 50 % 90 % 1026,9 hPa 0,0 l/m² 16,7 km/h (3 Bft) S-SW 196 ° 2 min 130 W/m² -0,2 °C -6,3 °C 20,9 km/h (4 Bft)
31.12.2024 10:01 23,4 °C 1,3 °C 50 % 90 % 1026,9 hPa 0,0 l/m² 17,3 km/h (3 Bft) S-SW 200 ° 1 min 134 W/m² -0,2 °C -6,7 °C 20,9 km/h (4 Bft)
31.12.2024 10:02 23,4 °C 1,4 °C 50 % 90 % 1026,9 hPa 0,0 l/m² 17,6 km/h (3 Bft) S-SW 196 ° 1 min 134 W/m² -0,1 °C -6,7 °C 20,9 km/h (4 Bft)
31.12.2024 10:03 23,4 °C 1,3 °C 50 % 90 % 1026,9 hPa 0,0 l/m² 16,0 km/h (3 Bft) S-SW 205 ° 1 min 135 W/m² -0,2 °C -6,0 °C 20,9 km/h (4 Bft)
31.12.2024 10:05 23,4 °C 1,4 °C 50 % 90 % 1026,9 hPa 0,0 l/m² 17,6 km/h (3 Bft) SW 225 ° 2 min 139 W/m² -0,1 °C -6,7 °C 22,5 km/h (4 Bft)
31.12.2024 10:07 23,4 °C 1,4 °C 50 % 90 % 1026,8 hPa 0,0 l/m² 15,3 km/h (3 Bft) S-SW 197 ° 2 min 142 W/m² -0,1 °C -5,5 °C 19,3 km/h (3 Bft)
31.12.2024 10:09 23,4 °C 1,4 °C 50 % 90 % 1026,9 hPa 0,0 l/m² 13,1 km/h (3 Bft) S 190 ° 2 min 148 W/m² -0,1 °C -4,1 °C 16,1 km/h (3 Bft)
31.12.2024 10:10 23,5 °C 1,4 °C 50 % 90 % 1026,9 hPa 0,0 l/m² 14,7 km/h (3 Bft) S 182 ° 1 min 149 W/m² -0,1 °C -5,1 °C 19,3 km/h (3 Bft)
31.12.2024 10:11 23,5 °C 1,4 °C 50 % 90 % 1026,9 hPa 0,0 l/m² 14,3 km/h (3 Bft) S 173 ° 1 min 151 W/m² -0,1 °C -4,9 °C 19,3 km/h (3 Bft)
31.12.2024 10:12 23,5 °C 1,5 °C 50 % 90 % 1026,9 hPa 0,0 l/m² 13,8 km/h (3 Bft) S 185 ° 1 min 155 W/m² 0,0 °C -4,4 °C 16,1 km/h (3 Bft)
31.12.2024 10:14 23,6 °C 1,6 °C 50 % 90 % 1027,0 hPa 0,0 l/m² 12,1 km/h (2 Bft) S 180 ° 2 min 158 W/m² 0,1 °C -3,2 °C 17,7 km/h (3 Bft)
31.12.2024 10:16 23,6 °C 1,6 °C 50 % 90 % 1027,0 hPa 0,0 l/m² 8,9 km/h (2 Bft) S-SW 196 ° 2 min 162 W/m² 0,1 °C -0,8 °C 14,5 km/h (3 Bft)
31.12.2024 10:18 23,6 °C 1,7 °C 50 % 89 % 1027,0 hPa 0,0 l/m² 3,8 km/h (1 Bft) S-SW 196 ° 2 min 165 W/m² 0,1 °C 1,7 °C 6,4 km/h (2 Bft)
31.12.2024 10:20 23,6 °C 1,8 °C 50 % 89 % 1027,0 hPa 0,0 l/m² 7,0 km/h (2 Bft) S-SW 192 ° 2 min 169 W/m² 0,2 °C 1,2 °C 12,9 km/h (3 Bft)
31.12.2024 10:21 23,6 °C 1,8 °C 50 % 89 % 1027,0 hPa 0,0 l/m² 8,7 km/h (2 Bft) S 186 ° 1 min 171 W/m² 0,2 °C -0,4 °C 11,3 km/h (2 Bft)
31.12.2024 10:22 23,6 °C 1,8 °C 50 % 89 % 1027,0 hPa 0,0 l/m² 6,7 km/h (2 Bft) SW 215 ° 1 min 172 W/m² 0,2 °C 1,5 °C 11,3 km/h (2 Bft)
31.12.2024 10:23 23,6 °C 1,9 °C 50 % 89 % 1027,1 hPa 0,0 l/m² 7,4 km/h (2 Bft) S-SW 196 ° 1 min 172 W/m² 0,3 °C 0,9 °C 9,7 km/h (2 Bft)
31.12.2024 10:25 23,6 °C 1,9 °C 50 % 89 % 1027,1 hPa 0,0 l/m² 8,9 km/h (2 Bft) S-SW 198 ° 2 min 178 W/m² 0,3 °C -0,5 °C 12,9 km/h (3 Bft)
31.12.2024 10:27 23,6 °C 1,9 °C 50 % 89 % 1027,1 hPa 0,0 l/m² 7,8 km/h (2 Bft) SW 214 ° 2 min 179 W/m² 0,3 °C 0,5 °C 11,3 km/h (2 Bft)
31.12.2024 10:29 23,6 °C 2,0 °C 50 % 89 % 1027,1 hPa 0,0 l/m² 8,7 km/h (2 Bft) S 182 ° 2 min 183 W/m² 0,4 °C -0,2 °C 14,5 km/h (3 Bft)
31.12.2024 10:30 23,6 °C 2,0 °C 50 % 88 % 1027,1 hPa 0,0 l/m² 10,4 km/h (2 Bft) SW 219 ° 1 min 186 W/m² 0,2 °C -1,5 °C 12,9 km/h (3 Bft)
31.12.2024 10:31 23,6 °C 2,0 °C 50 % 88 % 1027,1 hPa 0,0 l/m² 8,0 km/h (2 Bft) S 189 ° 1 min 186 W/m² 0,2 °C 0,5 °C 9,7 km/h (2 Bft)
31.12.2024 10:32 23,6 °C 2,0 °C 50 % 88 % 1027,1 hPa 0,0 l/m² 8,8 km/h (2 Bft) S-SW 200 ° 1 min 188 W/m² 0,2 °C -0,3 °C 16,1 km/h (3 Bft)
31.12.2024 10:34 23,7 °C 2,1 °C 50 % 88 % 1027,1 hPa 0,0 l/m² 7,6 km/h (2 Bft) S-SW 193 ° 2 min 190 W/m² 0,3 °C 0,9 °C 11,3 km/h (2 Bft)
31.12.2024 10:36 23,7 °C 2,1 °C 50 % 88 % 1027,1 hPa 0,0 l/m² 9,9 km/h (2 Bft) S 182 ° 2 min 193 W/m² 0,3 °C -1,1 °C 16,1 km/h (3 Bft)
31.12.2024 10:38 23,7 °C 2,1 °C 50 % 88 % 1027,1 hPa 0,0 l/m² 13,7 km/h (3 Bft) S 173 ° 2 min 195 W/m² 0,3 °C -3,7 °C 19,3 km/h (3 Bft)
31.12.2024 10:40 23,7 °C 2,1 °C 49 % 88 % 1027,1 hPa 0,0 l/m² 10,7 km/h (2 Bft) S-SW 198 ° 2 min 197 W/m² 0,3 °C -1,7 °C 16,1 km/h (3 Bft)
31.12.2024 10:41 23,7 °C 2,2 °C 49 % 88 % 1027,1 hPa 0,0 l/m² 8,7 km/h (2 Bft) S-SW 194 ° 1 min 197 W/m² 0,4 °C 0,0 °C 11,3 km/h (2 Bft)
31.12.2024 10:42 23,7 °C 2,2 °C 49 % 88 % 1027,1 hPa 0,0 l/m² 12,3 km/h (2 Bft) S-SO 164 ° 1 min 199 W/m² 0,4 °C -2,7 °C 16,1 km/h (3 Bft)
31.12.2024 10:43 23,7 °C 2,2 °C 49 % 88 % 1027,0 hPa 0,0 l/m² 6,6 km/h (2 Bft) S-SW 195 ° 1 min 202 W/m² 0,4 °C 2,0 °C 8,0 km/h (2 Bft)
31.12.2024 10:45 23,7 °C 2,2 °C 49 % 88 % 1027,1 hPa 0,0 l/m² 5,5 km/h (2 Bft) S 187 ° 2 min 204 W/m² 0,4 °C 2,2 °C 9,7 km/h (2 Bft)
31.12.2024 10:47 23,7 °C 2,3 °C 48 % 88 % 1027,0 hPa 0,0 l/m² 6,6 km/h (2 Bft) S 180 ° 2 min 206 W/m² 0,5 °C 2,1 °C 11,3 km/h (2 Bft)
31.12.2024 10:49 23,7 °C 2,3 °C 48 % 87 % 1027,0 hPa 0,0 l/m² 10,8 km/h (2 Bft) S-SO 158 ° 2 min 209 W/m² 0,4 °C -1,5 °C 16,1 km/h (3 Bft)
31.12.2024 10:50 23,7 °C 2,3 °C 47 % 88 % 1026,9 hPa 0,0 l/m² 11,3 km/h (2 Bft) S-SO 167 ° 1 min 211 W/m² 0,5 °C -1,9 °C 16,1 km/h (3 Bft)
31.12.2024 10:51 23,7 °C 2,3 °C 47 % 87 % 1026,9 hPa 0,0 l/m² 10,0 km/h (2 Bft) S-SO 163 ° 1 min 211 W/m² 0,4 °C -0,9 °C 14,5 km/h (3 Bft)
31.12.2024 10:52 23,7 °C 2,3 °C 47 % 87 % 1026,9 hPa 0,0 l/m² 7,9 km/h (2 Bft) S 171 ° 1 min 213 W/m² 0,4 °C 0,9 °C 11,3 km/h (2 Bft)
31.12.2024 10:54 23,7 °C 2,4 °C 47 % 87 % 1026,9 hPa 0,0 l/m² 7,7 km/h (2 Bft) S-SO 166 ° 2 min 214 W/m² 0,5 °C 1,1 °C 11,3 km/h (2 Bft)
31.12.2024 10:56 23,7 °C 2,5 °C 47 % 87 % 1026,9 hPa 0,0 l/m² 4,2 km/h (1 Bft) S-SO 161 ° 2 min 218 W/m² 0,6 °C 2,5 °C 8,0 km/h (2 Bft)
31.12.2024 10:58 23,7 °C 2,6 °C 47 % 87 % 1026,9 hPa 0,0 l/m² 4,9 km/h (1 Bft) S 187 ° 2 min 221 W/m² 0,7 °C 2,6 °C 8,0 km/h (2 Bft)
31.12.2024 11:00 23,7 °C 2,7 °C 47 % 87 % 1026,9 hPa 0,0 l/m² 3,5 km/h (1 Bft) W-SW 251 ° 2 min 225 W/m² 0,8 °C 2,7 °C 8,0 km/h (2 Bft)
31.12.2024 11:01 23,7 °C 2,8 °C 47 % 86 % 1026,8 hPa 0,0 l/m² 5,8 km/h (2 Bft) W 273 ° 1 min 225 W/m² 0,7 °C 2,8 °C 11,3 km/h (2 Bft)
31.12.2024 11:02 23,7 °C 2,8 °C 47 % 86 % 1026,8 hPa 0,0 l/m² 6,2 km/h (2 Bft) S 184 ° 1 min 227 W/m² 0,7 °C 2,8 °C 9,7 km/h (2 Bft)
31.12.2024 11:03 23,7 °C 2,9 °C 47 % 86 % 1026,8 hPa 0,0 l/m² 5,6 km/h (2 Bft) W-SW 255 ° 1 min 229 W/m² 0,8 °C 2,9 °C 11,3 km/h (2 Bft)
31.12.2024 11:05 23,6 °C 3,1 °C 47 % 86 % 1026,8 hPa 0,0 l/m² 1,8 km/h (1 Bft) W 268 ° 2 min 230 W/m² 1,0 °C 3,1 °C 4,8 km/h (1 Bft)
31.12.2024 11:07 23,6 °C 3,2 °C 47 % 86 % 1026,7 hPa 0,0 l/m² 1,1 km/h (1 Bft) W 266 ° 2 min 234 W/m² 1,1 °C 3,2 °C 6,4 km/h (2 Bft)
31.12.2024 11:09 23,6 °C 3,2 °C 47 % 85 % 1026,8 hPa 0,0 l/m² 4,5 km/h (1 Bft) W 262 ° 2 min 236 W/m² 0,9 °C 3,2 °C 9,7 km/h (2 Bft)
31.12.2024 11:10 23,6 °C 3,2 °C 47 % 85 % 1026,7 hPa 0,0 l/m² 4,1 km/h (1 Bft) W-SW 250 ° 1 min 236 W/m² 0,9 °C 3,2 °C 6,4 km/h (2 Bft)
31.12.2024 11:11 23,6 °C 3,2 °C 47 % 85 % 1026,7 hPa 0,0 l/m² 8,7 km/h (2 Bft) W-SW 240 ° 1 min 236 W/m² 0,9 °C 1,1 °C 17,7 km/h (3 Bft)
31.12.2024 11:12 23,6 °C 3,1 °C 47 % 85 % 1026,7 hPa 0,0 l/m² 12,4 km/h (2 Bft) W-SW 238 ° 1 min 237 W/m² 0,8 °C -1,7 °C 20,9 km/h (4 Bft)
31.12.2024 11:14 23,5 °C 3,1 °C 47 % 85 % 1026,8 hPa 0,0 l/m² 3,3 km/h (1 Bft) W 261 ° 2 min 237 W/m² 0,8 °C 3,1 °C 9,7 km/h (2 Bft)
31.12.2024 11:16 23,4 °C 3,2 °C 47 % 85 % 1026,7 hPa 0,0 l/m² 0,1 km/h (0 Bft) W 261 ° 2 min 237 W/m² 0,9 °C 3,2 °C 1,6 km/h (1 Bft)
31.12.2024 11:18 23,4 °C 3,3 °C 47 % 85 % 1026,6 hPa 0,0 l/m² 1,9 km/h (1 Bft) O 92 ° 2 min 239 W/m² 1,0 °C 3,3 °C 11,3 km/h (2 Bft)
31.12.2024 11:20 23,4 °C 3,2 °C 47 % 84 % 1026,6 hPa 0,0 l/m² 4,8 km/h (1 Bft) S 171 ° 2 min 239 W/m² 0,8 °C 3,2 °C 12,9 km/h (3 Bft)
31.12.2024 11:21 23,4 °C 3,3 °C 47 % 84 % 1026,6 hPa 0,0 l/m² 5,6 km/h (2 Bft) W-SW 252 ° 1 min 241 W/m² 0,9 °C 3,3 °C 14,5 km/h (3 Bft)
31.12.2024 11:22 23,4 °C 3,2 °C 47 % 84 % 1026,6 hPa 0,0 l/m² 4,2 km/h (1 Bft) SW 215 ° 1 min 244 W/m² 0,8 °C 3,2 °C 9,7 km/h (2 Bft)
31.12.2024 11:23 23,4 °C 3,2 °C 48 % 84 % 1026,4 hPa 0,0 l/m² 8,4 km/h (2 Bft) SW 227 ° 1 min 248 W/m² 0,8 °C 1,4 °C 16,1 km/h (3 Bft)
31.12.2024 11:25 23,4 °C 3,2 °C 48 % 84 % 1026,4 hPa 0,0 l/m² 6,6 km/h (2 Bft) SW 215 ° 2 min 250 W/m² 0,8 °C 3,0 °C 12,9 km/h (3 Bft)
31.12.2024 11:26 23,3 °C 3,2 °C 48 % 84 % 1026,4 hPa 0,0 l/m² 3,3 km/h (1 Bft) S-SW 198 ° 1 min 251 W/m² 0,8 °C 3,2 °C 8,0 km/h (2 Bft)
31.12.2024 11:27 23,4 °C 3,2 °C 48 % 84 % 1026,4 hPa 0,0 l/m² 4,0 km/h (1 Bft) S-SW 197 ° 1 min 251 W/m² 0,8 °C 3,2 °C 6,4 km/h (2 Bft)
31.12.2024 11:28 23,3 °C 3,2 °C 48 % 85 % 1026,4 hPa 0,0 l/m² 6,1 km/h (2 Bft) S 175 ° 1 min 251 W/m² 0,9 °C 3,2 °C 16,1 km/h (3 Bft)
31.12.2024 11:30 23,4 °C 3,2 °C 48 % 85 % 1026,4 hPa 0,0 l/m² 7,2 km/h (2 Bft) W-SW 241 ° 2 min 255 W/m² 0,9 °C 2,4 °C 22,5 km/h (4 Bft)
31.12.2024 11:31 23,3 °C 3,1 °C 48 % 85 % 1026,4 hPa 0,0 l/m² 11,3 km/h (2 Bft) S 186 ° 1 min 257 W/m² 0,8 °C -1,0 °C 16,1 km/h (3 Bft)
31.12.2024 11:32 23,3 °C 3,2 °C 48 % 84 % 1026,4 hPa 0,0 l/m² 3,8 km/h (1 Bft) W 279 ° 1 min 257 W/m² 0,8 °C 3,2 °C 14,5 km/h (3 Bft)
31.12.2024 11:33 23,3 °C 3,2 °C 48 % 85 % 1026,4 hPa 0,0 l/m² 12,8 km/h (3 Bft) S-SW 194 ° 1 min 258 W/m² 0,9 °C -1,8 °C 22,5 km/h (4 Bft)
31.12.2024 11:35 23,3 °C 3,2 °C 48 % 84 % 1026,4 hPa 0,0 l/m² 8,6 km/h (2 Bft) W-SW 253 ° 2 min 258 W/m² 0,8 °C 1,2 °C 17,7 km/h (3 Bft)
31.12.2024 11:37 23,3 °C 3,3 °C 48 % 85 % 1026,4 hPa 0,0 l/m² 4,7 km/h (1 Bft) W 271 ° 2 min 258 W/m² 1,0 °C 3,3 °C 11,3 km/h (2 Bft)
31.12.2024 11:39 23,3 °C 3,3 °C 48 % 84 % 1026,4 hPa 0,0 l/m² 8,9 km/h (2 Bft) W-SW 241 ° 2 min 260 W/m² 0,9 °C 1,1 °C 14,5 km/h (3 Bft)
31.12.2024 11:40 23,3 °C 3,3 °C 48 % 84 % 1026,4 hPa 0,0 l/m² 2,9 km/h (1 Bft) W 273 ° 1 min 262 W/m² 0,9 °C 3,3 °C 9,7 km/h (2 Bft)
31.12.2024 11:41 23,3 °C 3,4 °C 48 % 84 % 1026,4 hPa 0,0 l/m² 3,9 km/h (1 Bft) W 270 ° 1 min 260 W/m² 1,0 °C 3,4 °C 9,7 km/h (2 Bft)
31.12.2024 11:42 23,3 °C 3,4 °C 48 % 84 % 1026,4 hPa 0,0 l/m² 4,1 km/h (1 Bft) S-SW 198 ° 1 min 262 W/m² 1,0 °C 3,4 °C 8,0 km/h (2 Bft)
31.12.2024 11:44 23,3 °C 3,4 °C 48 % 84 % 1026,4 hPa 0,0 l/m² 5,1 km/h (1 Bft) SO 136 ° 2 min 264 W/m² 1,0 °C 3,4 °C 11,3 km/h (2 Bft)
31.12.2024 11:46 23,2 °C 3,4 °C 48 % 84 % 1026,3 hPa 0,0 l/m² 3,6 km/h (1 Bft) W 279 ° 2 min 265 W/m² 1,0 °C 3,4 °C 9,7 km/h (2 Bft)
31.12.2024 11:48 23,3 °C 3,4 °C 48 % 83 % 1026,3 hPa 0,0 l/m² 6,6 km/h (2 Bft) W 268 ° 2 min 267 W/m² 0,8 °C 3,2 °C 12,9 km/h (3 Bft)
31.12.2024 11:50 23,3 °C 3,6 °C 48 % 84 % 1026,3 hPa 0,0 l/m² 1,4 km/h (1 Bft) W 269 ° 2 min 265 W/m² 1,2 °C 3,6 °C 4,8 km/h (1 Bft)
31.12.2024 11:51 23,3 °C 3,7 °C 48 % 84 % 1026,3 hPa 0,0 l/m² 0,0 km/h (0 Bft) W 269 ° 1 min 267 W/m² 1,3 °C 3,7 °C 0,0 km/h (0 Bft)
31.12.2024 11:52 23,3 °C 3,8 °C 48 % 84 % 1026,3 hPa 0,0 l/m² 0,0 km/h (0 Bft) W 269 ° 1 min 267 W/m² 1,4 °C 3,8 °C 0,0 km/h (0 Bft)
31.12.2024 11:53 23,2 °C 3,9 °C 48 % 84 % 1026,3 hPa 0,0 l/m² 0,0 km/h (0 Bft) W 269 ° 1 min 267 W/m² 1,4 °C 3,9 °C 0,0 km/h (0 Bft)
31.12.2024 11:55 23,2 °C 3,8 °C 47 % 82 % 1026,3 hPa 0,0 l/m² 2,7 km/h (1 Bft) S-SO 157 ° 2 min 269 W/m² 1,0 °C 3,8 °C 6,4 km/h (2 Bft)
31.12.2024 11:57 23,2 °C 3,6 °C 47 % 82 % 1026,2 hPa 0,0 l/m² 1,1 km/h (1 Bft) S-SO 153 ° 2 min 267 W/m² 0,8 °C 3,6 °C 4,8 km/h (1 Bft)
31.12.2024 11:59 23,2 °C 3,8 °C 47 % 84 % 1026,3 hPa 0,0 l/m² 0,9 km/h (0 Bft) S-SO 148 ° 2 min 262 W/m² 1,4 °C 3,8 °C 4,8 km/h (1 Bft)
31.12.2024 12:00 23,2 °C 3,8 °C 46 % 84 % 1026,3 hPa 0,0 l/m² 0,0 km/h (0 Bft) S-SO 148 ° 1 min 264 W/m² 1,4 °C 3,8 °C 0,0 km/h (0 Bft)
31.12.2024 12:01 23,2 °C 3,9 °C 46 % 83 % 1026,3 hPa 0,0 l/m² 0,0 km/h (0 Bft) S-SO 148 ° 1 min 264 W/m² 1,3 °C 3,9 °C 0,0 km/h (0 Bft)
31.12.2024 12:02 23,2 °C 3,9 °C 46 % 83 % 1026,3 hPa 0,0 l/m² 0,1 km/h (0 Bft) S-SO 149 ° 1 min 258 W/m² 1,3 °C 3,9 °C 1,6 km/h (1 Bft)
31.12.2024 12:04 23,2 °C 4,0 °C 46 % 83 % 1026,3 hPa 0,0 l/m² 5,5 km/h (2 Bft) S-SW 192 ° 2 min 264 W/m² 1,4 °C 4,0 °C 11,3 km/h (2 Bft)
31.12.2024 12:06 23,1 °C 3,9 °C 46 % 83 % 1026,2 hPa 0,0 l/m² 4,8 km/h (1 Bft) S-SW 196 ° 2 min 267 W/m² 1,3 °C 3,9 °C 11,3 km/h (2 Bft)
31.12.2024 12:08 23,1 °C 3,8 °C 47 % 83 % 1026,2 hPa 0,0 l/m² 6,0 km/h (2 Bft) SW 236 ° 2 min 265 W/m² 1,2 °C 3,8 °C 12,9 km/h (3 Bft)
31.12.2024 12:10 23,1 °C 3,7 °C 47 % 83 % 1026,1 hPa 0,0 l/m² 8,9 km/h (2 Bft) S 175 ° 2 min 267 W/m² 1,1 °C 1,5 °C 12,9 km/h (3 Bft)
31.12.2024 12:11 23,1 °C 3,7 °C 47 % 83 % 1026,0 hPa 0,0 l/m² 4,2 km/h (1 Bft) S 180 ° 1 min 265 W/m² 1,1 °C 3,7 °C 8,0 km/h (2 Bft)
31.12.2024 12:12 23,1 °C 3,7 °C 47 % 83 % 1026,0 hPa 0,0 l/m² 4,8 km/h (1 Bft) S-SW 205 ° 1 min 265 W/m² 1,1 °C 3,7 °C 11,3 km/h (2 Bft)
31.12.2024 12:13 23,1 °C 3,8 °C 47 % 84 % 1026,0 hPa 0,0 l/m² 9,8 km/h (2 Bft) S-SW 210 ° 1 min 267 W/m² 1,4 °C 0,9 °C 12,9 km/h (3 Bft)
31.12.2024 12:15 23,1 °C 3,8 °C 47 % 83 % 1025,9 hPa 0,0 l/m² 10,7 km/h (2 Bft) S 190 ° 2 min 267 W/m² 1,2 °C 0,2 °C 14,5 km/h (3 Bft)
31.12.2024 12:17 23,1 °C 3,8 °C 47 % 83 % 1026,0 hPa 0,0 l/m² 11,1 km/h (2 Bft) SW 215 ° 2 min 262 W/m² 1,2 °C -0,0 °C 14,5 km/h (3 Bft)
31.12.2024 12:19 23,1 °C 3,9 °C 47 % 84 % 1026,0 hPa 0,0 l/m² 8,1 km/h (2 Bft) SW 214 ° 2 min 264 W/m² 1,4 °C 2,4 °C 12,9 km/h (3 Bft)
31.12.2024 12:20 23,1 °C 3,9 °C 47 % 84 % 1025,9 hPa 0,0 l/m² 8,0 km/h (2 Bft) S-SW 211 ° 1 min 260 W/m² 1,4 °C 2,4 °C 11,3 km/h (2 Bft)
31.12.2024 12:21 23,1 °C 4,0 °C 47 % 84 % 1025,9 hPa 0,0 l/m² 9,9 km/h (2 Bft) SW 215 ° 1 min 265 W/m² 1,5 °C 1,0 °C 14,5 km/h (3 Bft)
31.12.2024 12:22 23,1 °C 4,0 °C 47 % 84 % 1025,9 hPa 0,0 l/m² 17,0 km/h (3 Bft) S-SW 209 ° 1 min 265 W/m² 1,5 °C -3,1 °C 22,5 km/h (4 Bft)
31.12.2024 12:24 23,1 °C 4,0 °C 48 % 83 % 1025,9 hPa 0,0 l/m² 14,4 km/h (3 Bft) S-SW 195 ° 2 min 265 W/m² 1,4 °C -1,8 °C 16,1 km/h (3 Bft)
31.12.2024 12:25 23,1 °C 3,9 °C 48 % 83 % 1025,9 hPa 0,0 l/m² 14,6 km/h (3 Bft) S-SW 196 ° 1 min 265 W/m² 1,3 °C -2,0 °C 17,7 km/h (3 Bft)
31.12.2024 12:26 23,1 °C 3,9 °C 48 % 83 % 1025,9 hPa 0,0 l/m² 15,6 km/h (3 Bft) S-SW 201 ° 1 min 265 W/m² 1,3 °C -2,6 °C 17,7 km/h (3 Bft)
31.12.2024 12:28 23,1 °C 4,0 °C 48 % 83 % 1025,9 hPa 0,0 l/m² 12,8 km/h (3 Bft) S-SW 202 ° 2 min 265 W/m² 1,4 °C -0,9 °C 17,7 km/h (3 Bft)
31.12.2024 12:30 23,1 °C 4,1 °C 48 % 84 % 1025,8 hPa 0,0 l/m² 10,5 km/h (2 Bft) S-SW 207 ° 2 min 265 W/m² 1,6 °C 0,7 °C 16,1 km/h (3 Bft)
31.12.2024 12:31 23,1 °C 4,1 °C 48 % 83 % 1025,6 hPa 0,0 l/m² 9,1 km/h (2 Bft) S 182 ° 1 min 265 W/m² 1,5 °C 1,8 °C 14,5 km/h (3 Bft)
31.12.2024 12:32 23,1 °C 4,1 °C 48 % 84 % 1025,7 hPa 0,0 l/m² 8,9 km/h (2 Bft) S 180 ° 1 min 264 W/m² 1,6 °C 1,9 °C 11,3 km/h (2 Bft)
31.12.2024 12:33 23,1 °C 4,1 °C 48 % 83 % 1025,7 hPa 0,0 l/m² 4,8 km/h (1 Bft) S 179 ° 1 min 262 W/m² 1,5 °C 4,1 °C 9,7 km/h (2 Bft)
31.12.2024 12:35 23,1 °C 4,2 °C 49 % 84 % 1025,7 hPa 0,0 l/m² 3,4 km/h (1 Bft) S-SO 159 ° 2 min 260 W/m² 1,7 °C 4,2 °C 6,4 km/h (2 Bft)
31.12.2024 12:37 23,1 °C 4,2 °C 49 % 83 % 1025,6 hPa 0,0 l/m² 13,9 km/h (3 Bft) S-SW 209 ° 2 min 260 W/m² 1,6 °C -1,3 °C 22,5 km/h (4 Bft)
31.12.2024 12:39 23,1 °C 4,2 °C 49 % 83 % 1025,5 hPa 0,0 l/m² 13,9 km/h (3 Bft) S-SW 202 ° 2 min 258 W/m² 1,6 °C -1,3 °C 17,7 km/h (3 Bft)
31.12.2024 12:40 23,1 °C 4,2 °C 49 % 82 % 1025,5 hPa 0,0 l/m² 11,0 km/h (2 Bft) S-SW 213 ° 1 min 258 W/m² 1,4 °C 0,5 °C 16,1 km/h (3 Bft)
31.12.2024 12:41 23,1 °C 4,2 °C 49 % 82 % 1025,5 hPa 0,0 l/m² 12,8 km/h (3 Bft) S-SW 202 ° 1 min 257 W/m² 1,4 °C -0,7 °C 16,1 km/h (3 Bft)
31.12.2024 12:42 23,1 °C 4,2 °C 50 % 82 % 1025,5 hPa 0,0 l/m² 10,2 km/h (2 Bft) SW 215 ° 1 min 255 W/m² 1,4 °C 1,0 °C 12,9 km/h (3 Bft)
31.12.2024 12:44 23,2 °C 4,2 °C 50 % 82 % 1025,5 hPa 0,0 l/m² 8,0 km/h (2 Bft) S-SW 197 ° 2 min 257 W/m² 1,4 °C 2,8 °C 11,3 km/h (2 Bft)
31.12.2024 12:46 23,2 °C 4,3 °C 50 % 82 % 1025,5 hPa 0,0 l/m² 9,9 km/h (2 Bft) S-SW 207 ° 2 min 260 W/m² 1,5 °C 1,4 °C 14,5 km/h (3 Bft)
31.12.2024 12:47 23,1 °C 4,3 °C 50 % 82 % 1025,5 hPa 0,0 l/m² 6,7 km/h (2 Bft) S-SW 201 ° 1 min 260 W/m² 1,5 °C 4,0 °C 9,7 km/h (2 Bft)
31.12.2024 12:48 23,1 °C 4,3 °C 50 % 83 % 1025,5 hPa 0,0 l/m² 14,4 km/h (3 Bft) S 178 ° 1 min 260 W/m² 1,7 °C -1,5 °C 19,3 km/h (3 Bft)
31.12.2024 12:49 23,2 °C 4,3 °C 50 % 82 % 1025,4 hPa 0,0 l/m² 10,8 km/h (2 Bft) S-SW 201 ° 1 min 260 W/m² 1,5 °C 0,7 °C 14,5 km/h (3 Bft)
31.12.2024 12:51 23,1 °C 4,4 °C 50 % 82 % 1025,4 hPa 0,0 l/m² 10,6 km/h (2 Bft) S-SW 199 ° 2 min 258 W/m² 1,6 °C 1,0 °C 14,5 km/h (3 Bft)
31.12.2024 12:52 23,2 °C 4,4 °C 50 % 82 % 1025,4 hPa 0,0 l/m² 14,9 km/h (3 Bft) S-SW 196 ° 1 min 258 W/m² 1,6 °C -1,6 °C 20,9 km/h (4 Bft)
31.12.2024 12:53 23,2 °C 4,4 °C 50 % 82 % 1025,4 hPa 0,0 l/m² 17,4 km/h (3 Bft) S-SW 211 ° 1 min 257 W/m² 1,6 °C -2,8 °C 19,3 km/h (3 Bft)
31.12.2024 12:54 23,1 °C 4,4 °C 50 % 82 % 1025,3 hPa 0,0 l/m² 17,6 km/h (3 Bft) S-SW 194 ° 1 min 257 W/m² 1,6 °C -2,9 °C 24,1 km/h (4 Bft)
31.12.2024 12:56 23,1 °C 4,4 °C 50 % 82 % 1025,3 hPa 0,0 l/m² 16,7 km/h (3 Bft) SW 216 ° 2 min 258 W/m² 1,6 °C -2,5 °C 24,1 km/h (4 Bft)
31.12.2024 12:58 23,1 °C 4,4 °C 49 % 82 % 1025,2 hPa 0,0 l/m² 14,3 km/h (3 Bft) SW 231 ° 2 min 257 W/m² 1,6 °C -1,3 °C 22,5 km/h (4 Bft)
31.12.2024 13:00 23,1 °C 4,4 °C 49 % 82 % 1025,3 hPa 0,0 l/m² 19,6 km/h (3 Bft) S-SW 199 ° 2 min 255 W/m² 1,6 °C -3,8 °C 27,4 km/h (5 Bft)
31.12.2024 13:01 23,1 °C 4,3 °C 49 % 82 % 1025,2 hPa 0,0 l/m² 20,5 km/h (4 Bft) S-SW 211 ° 1 min 255 W/m² 1,5 °C -4,3 °C 22,5 km/h (4 Bft)
31.12.2024 13:02 23,0 °C 4,3 °C 49 % 81 % 1025,2 hPa 0,0 l/m² 19,0 km/h (3 Bft) SW 218 ° 1 min 253 W/m² 1,3 °C -3,7 °C 22,5 km/h (4 Bft)
31.12.2024 13:03 23,0 °C 4,3 °C 49 % 82 % 1025,2 hPa 0,0 l/m² 16,5 km/h (3 Bft) S-SW 205 ° 1 min 253 W/m² 1,5 °C -2,5 °C 20,9 km/h (4 Bft)
31.12.2024 13:04 23,0 °C 4,3 °C 49 % 82 % 1025,1 hPa 0,0 l/m² 16,0 km/h (3 Bft) S 184 ° 1 min 253 W/m² 1,5 °C -2,3 °C 19,3 km/h (3 Bft)
31.12.2024 13:06 23,0 °C 4,3 °C 49 % 82 % 1025,0 hPa 0,0 l/m² 14,6 km/h (3 Bft) S-SW 212 ° 2 min 251 W/m² 1,5 °C -1,6 °C 19,3 km/h (3 Bft)
31.12.2024 13:07 23,0 °C 4,3 °C 49 % 82 % 1025,1 hPa 0,0 l/m² 12,8 km/h (3 Bft) S-SW 196 ° 1 min 250 W/m² 1,5 °C -0,5 °C 16,1 km/h (3 Bft)
31.12.2024 13:08 23,0 °C 4,4 °C 49 % 82 % 1025,1 hPa 0,0 l/m² 16,0 km/h (3 Bft) S-SW 194 ° 1 min 250 W/m² 1,6 °C -2,2 °C 20,9 km/h (4 Bft)
31.12.2024 13:10 22,9 °C 4,4 °C 49 % 82 % 1025,1 hPa 0,0 l/m² 12,5 km/h (2 Bft) S-SW 207 ° 2 min 246 W/m² 1,6 °C -0,2 °C 16,1 km/h (3 Bft)
31.12.2024 13:11 22,9 °C 4,4 °C 49 % 82 % 1025,1 hPa 0,0 l/m² 18,7 km/h (3 Bft) S-SW 207 ° 1 min 246 W/m² 1,6 °C -3,4 °C 22,5 km/h (4 Bft)
31.12.2024 13:12 22,9 °C 4,4 °C 49 % 82 % 1025,1 hPa 0,0 l/m² 15,0 km/h (3 Bft) S-SW 213 ° 1 min 246 W/m² 1,6 °C -1,7 °C 16,1 km/h (3 Bft)
31.12.2024 13:13 22,9 °C 4,4 °C 49 % 82 % 1025,0 hPa 0,0 l/m² 12,7 km/h (3 Bft) S-SW 205 ° 1 min 246 W/m² 1,6 °C -0,4 °C 16,1 km/h (3 Bft)
31.12.2024 13:15 22,9 °C 4,4 °C 49 % 82 % 1025,0 hPa 0,0 l/m² 12,3 km/h (2 Bft) S-SW 212 ° 2 min 243 W/m² 1,6 °C -0,1 °C 17,7 km/h (3 Bft)
31.12.2024 13:17 22,9 °C 4,5 °C 49 % 82 % 1024,9 hPa 0,0 l/m² 15,6 km/h (3 Bft) S-SW 202 ° 2 min 241 W/m² 1,7 °C -1,8 °C 20,9 km/h (4 Bft)
31.12.2024 13:19 22,9 °C 4,4 °C 49 % 81 % 1024,8 hPa 0,0 l/m² 16,8 km/h (3 Bft) S 184 ° 2 min 239 W/m² 1,4 °C -2,5 °C 24,1 km/h (4 Bft)
31.12.2024 13:20 22,9 °C 4,5 °C 49 % 81 % 1024,8 hPa 0,0 l/m² 15,1 km/h (3 Bft) S-SW 208 ° 1 min 237 W/m² 1,5 °C -1,6 °C 20,9 km/h (4 Bft)
31.12.2024 13:21 22,9 °C 4,4 °C 49 % 81 % 1024,8 hPa 0,0 l/m² 19,7 km/h (3 Bft) S-SW 197 ° 1 min 237 W/m² 1,4 °C -3,8 °C 24,1 km/h (4 Bft)
31.12.2024 13:22 22,9 °C 4,4 °C 49 % 81 % 1024,8 hPa 0,0 l/m² 23,2 km/h (4 Bft) S 188 ° 1 min 237 W/m² 1,4 °C -5,2 °C 30,6 km/h (5 Bft)
31.12.2024 13:24 22,9 °C 4,4 °C 50 % 81 % 1024,8 hPa 0,0 l/m² 19,4 km/h (3 Bft) S 190 ° 2 min 236 W/m² 1,4 °C -3,7 °C 29,0 km/h (5 Bft)
31.12.2024 13:26 22,8 °C 4,4 °C 49 % 81 % 1024,8 hPa 0,0 l/m² 19,3 km/h (3 Bft) SW 218 ° 2 min 232 W/m² 1,4 °C -3,7 °C 25,7 km/h (4 Bft)
31.12.2024 13:28 22,8 °C 4,4 °C 50 % 82 % 1024,8 hPa 0,0 l/m² 15,2 km/h (3 Bft) SW 214 ° 2 min 230 W/m² 1,6 °C -1,8 °C 20,9 km/h (4 Bft)
31.12.2024 13:30 22,8 °C 4,4 °C 50 % 81 % 1024,7 hPa 0,0 l/m² 16,6 km/h (3 Bft) S-SW 207 ° 2 min 229 W/m² 1,4 °C -2,5 °C 24,1 km/h (4 Bft)
31.12.2024 13:31 22,8 °C 4,4 °C 50 % 81 % 1024,8 hPa 0,0 l/m² 17,7 km/h (3 Bft) S-SW 194 ° 1 min 227 W/m² 1,4 °C -3,0 °C 20,9 km/h (4 Bft)
31.12.2024 13:32 22,8 °C 4,4 °C 50 % 81 % 1024,8 hPa 0,0 l/m² 15,6 km/h (3 Bft) S 188 ° 1 min 227 W/m² 1,4 °C -2,0 °C 22,5 km/h (4 Bft)
31.12.2024 13:33 22,8 °C 4,4 °C 50 % 81 % 1024,8 hPa 0,0 l/m² 19,0 km/h (3 Bft) S-SW 209 ° 1 min 225 W/m² 1,4 °C -3,5 °C 25,7 km/h (4 Bft)
31.12.2024 13:35 22,8 °C 4,4 °C 50 % 81 % 1024,8 hPa 0,0 l/m² 20,0 km/h (4 Bft) S-SW 204 ° 2 min 221 W/m² 1,4 °C -3,9 °C 29,0 km/h (5 Bft)
31.12.2024 13:37 22,8 °C 4,4 °C 50 % 81 % 1024,8 hPa 0,0 l/m² 17,0 km/h (3 Bft) S 188 ° 2 min 220 W/m² 1,4 °C -2,6 °C 25,7 km/h (4 Bft)
31.12.2024 13:39 22,8 °C 4,4 °C 50 % 81 % 1024,7 hPa 0,0 l/m² 19,5 km/h (3 Bft) SW 221 ° 2 min 216 W/m² 1,4 °C -3,7 °C 25,7 km/h (4 Bft)
31.12.2024 13:40 22,7 °C 4,4 °C 50 % 81 % 1024,7 hPa 0,0 l/m² 14,4 km/h (3 Bft) SW 226 ° 1 min 214 W/m² 1,4 °C -1,3 °C 22,5 km/h (4 Bft)
31.12.2024 13:41 22,7 °C 4,6 °C 50 % 82 % 1024,7 hPa 0,0 l/m² 18,6 km/h (3 Bft) S-SW 200 ° 1 min 214 W/m² 1,8 °C -3,1 °C 22,5 km/h (4 Bft)
31.12.2024 13:42 22,7 °C 4,5 °C 50 % 81 % 1024,7 hPa 0,0 l/m² 16,4 km/h (3 Bft) S-SW 207 ° 1 min 211 W/m² 1,5 °C -2,2 °C 20,9 km/h (4 Bft)
31.12.2024 13:44 22,7 °C 4,5 °C 50 % 81 % 1024,6 hPa 0,0 l/m² 18,7 km/h (3 Bft) SW 215 ° 2 min 207 W/m² 1,5 °C -3,3 °C 25,7 km/h (4 Bft)
31.12.2024 13:46 22,7 °C 4,5 °C 50 % 81 % 1024,4 hPa 0,0 l/m² 19,7 km/h (3 Bft) S-SW 208 ° 2 min 206 W/m² 1,5 °C -3,7 °C 27,4 km/h (5 Bft)
31.12.2024 13:48 22,7 °C 4,5 °C 50 % 81 % 1024,6 hPa 0,0 l/m² 16,0 km/h (3 Bft) S-SW 207 ° 2 min 206 W/m² 1,5 °C -2,0 °C 20,9 km/h (4 Bft)
31.12.2024 13:50 22,7 °C 4,6 °C 50 % 81 % 1024,6 hPa 0,0 l/m² 12,7 km/h (3 Bft) SW 219 ° 2 min 200 W/m² 1,6 °C -0,1 °C 17,7 km/h (3 Bft)
31.12.2024 13:51 22,7 °C 4,6 °C 50 % 81 % 1024,6 hPa 0,0 l/m² 10,5 km/h (2 Bft) SW 222 ° 1 min 199 W/m² 1,6 °C 1,3 °C 16,1 km/h (3 Bft)
31.12.2024 13:52 22,7 °C 4,6 °C 50 % 82 % 1024,6 hPa 0,0 l/m² 11,3 km/h (2 Bft) S-SW 207 ° 1 min 199 W/m² 1,8 °C 0,7 °C 16,1 km/h (3 Bft)
31.12.2024 13:53 22,7 °C 4,6 °C 50 % 82 % 1024,5 hPa 0,0 l/m² 9,7 km/h (2 Bft) S 183 ° 1 min 197 W/m² 1,8 °C 1,8 °C 12,9 km/h (3 Bft)
31.12.2024 13:55 22,7 °C 4,6 °C 50 % 81 % 1024,5 hPa 0,0 l/m² 7,5 km/h (2 Bft) S-SW 202 ° 2 min 195 W/m² 1,6 °C 3,6 °C 12,9 km/h (3 Bft)
31.12.2024 13:57 22,7 °C 4,7 °C 50 % 82 % 1024,5 hPa 0,0 l/m² 9,9 km/h (2 Bft) S-SW 202 ° 2 min 190 W/m² 1,9 °C 1,8 °C 14,5 km/h (3 Bft)
31.12.2024 13:59 22,7 °C 4,6 °C 50 % 81 % 1024,5 hPa 0,0 l/m² 13,8 km/h (3 Bft) S 180 ° 2 min 188 W/m² 1,6 °C -0,8 °C 20,9 km/h (4 Bft)
31.12.2024 14:01 22,7 °C 4,6 °C 50 % 81 % 1024,4 hPa 0,0 l/m² 18,0 km/h (3 Bft) W-SW 237 ° 2 min 183 W/m² 1,6 °C -2,8 °C 25,7 km/h (4 Bft)
31.12.2024 14:02 22,7 °C 4,6 °C 50 % 81 % 1024,4 hPa 0,0 l/m² 20,5 km/h (4 Bft) S-SW 209 ° 1 min 178 W/m² 1,6 °C -3,9 °C 24,1 km/h (4 Bft)
31.12.2024 14:03 22,7 °C 4,6 °C 50 % 81 % 1024,4 hPa 0,0 l/m² 17,2 km/h (3 Bft) S-SW 210 ° 1 min 174 W/m² 1,6 °C -2,5 °C 24,1 km/h (4 Bft)
31.12.2024 14:04 22,7 °C 4,6 °C 50 % 81 % 1024,4 hPa 0,0 l/m² 14,1 km/h (3 Bft) SW 216 ° 1 min 174 W/m² 1,6 °C -0,9 °C 17,7 km/h (3 Bft)
31.12.2024 14:06 22,7 °C 4,6 °C 50 % 81 % 1024,4 hPa 0,0 l/m² 13,4 km/h (3 Bft) SW 219 ° 2 min 174 W/m² 1,6 °C -0,5 °C 19,3 km/h (3 Bft)
31.12.2024 14:08 22,7 °C 4,5 °C 50 % 81 % 1024,3 hPa 0,0 l/m² 12,0 km/h (2 Bft) SW 232 ° 2 min 172 W/m² 1,5 °C 0,2 °C 17,7 km/h (3 Bft)
31.12.2024 14:10 22,7 °C 4,5 °C 50 % 81 % 1024,3 hPa 0,0 l/m² 17,7 km/h (3 Bft) SW 232 ° 2 min 169 W/m² 1,5 °C -2,8 °C 24,1 km/h (4 Bft)
31.12.2024 14:11 22,6 °C 4,4 °C 50 % 81 % 1024,3 hPa 0,0 l/m² 18,9 km/h (3 Bft) S-SW 197 ° 1 min 171 W/m² 1,4 °C -3,5 °C 25,7 km/h (4 Bft)
31.12.2024 14:12 22,6 °C 4,4 °C 50 % 81 % 1024,3 hPa 0,0 l/m² 11,4 km/h (2 Bft) SW 223 ° 1 min 169 W/m² 1,4 °C 0,4 °C 14,5 km/h (3 Bft)
31.12.2024 14:13 22,7 °C 4,4 °C 50 % 81 % 1024,3 hPa 0,0 l/m² 18,4 km/h (3 Bft) SW 218 ° 1 min 167 W/m² 1,4 °C -3,3 °C 22,5 km/h (4 Bft)
31.12.2024 14:15 22,6 °C 4,4 °C 50 % 81 % 1024,3 hPa 0,0 l/m² 18,4 km/h (3 Bft) S-SW 202 ° 2 min 163 W/m² 1,4 °C -3,3 °C 24,1 km/h (4 Bft)
31.12.2024 14:17 22,6 °C 4,4 °C 50 % 82 % 1024,3 hPa 0,0 l/m² 15,5 km/h (3 Bft) SW 219 ° 2 min 158 W/m² 1,6 °C -1,9 °C 22,5 km/h (4 Bft)
31.12.2024 14:19 22,6 °C 4,4 °C 50 % 82 % 1024,3 hPa 0,0 l/m² 15,7 km/h (3 Bft) S-SW 204 ° 2 min 155 W/m² 1,6 °C -2,0 °C 24,1 km/h (4 Bft)
31.12.2024 14:21 22,6 °C 4,4 °C 50 % 82 % 1024,2 hPa 0,0 l/m² 14,4 km/h (3 Bft) S-SW 209 ° 2 min 151 W/m² 1,6 °C -1,3 °C 19,3 km/h (3 Bft)
31.12.2024 14:22 22,6 °C 4,4 °C 50 % 82 % 1024,2 hPa 0,0 l/m² 14,5 km/h (3 Bft) SW 228 ° 1 min 151 W/m² 1,6 °C -1,4 °C 17,7 km/h (3 Bft)
31.12.2024 14:23 22,6 °C 4,4 °C 50 % 82 % 1024,2 hPa 0,0 l/m² 15,3 km/h (3 Bft) SW 232 ° 1 min 151 W/m² 1,6 °C -1,8 °C 20,9 km/h (4 Bft)
31.12.2024 14:24 22,6 °C 4,4 °C 50 % 82 % 1024,1 hPa 0,0 l/m² 18,1 km/h (3 Bft) S-SW 202 ° 1 min 149 W/m² 1,6 °C -3,1 °C 24,1 km/h (4 Bft)
31.12.2024 14:26 22,6 °C 4,4 °C 50 % 82 % 1024,1 hPa 0,0 l/m² 10,7 km/h (2 Bft) SW 219 ° 2 min 146 W/m² 1,6 °C 0,9 °C 17,7 km/h (3 Bft)
31.12.2024 14:28 22,6 °C 4,4 °C 50 % 82 % 1024,1 hPa 0,0 l/m² 14,5 km/h (3 Bft) S-SW 206 ° 2 min 141 W/m² 1,6 °C -1,4 °C 22,5 km/h (4 Bft)
31.12.2024 14:30 22,6 °C 4,4 °C 50 % 82 % 1024,0 hPa 0,0 l/m² 14,8 km/h (3 Bft) SW 217 ° 2 min 137 W/m² 1,6 °C -1,5 °C 19,3 km/h (3 Bft)
31.12.2024 14:31 22,6 °C 4,4 °C 50 % 82 % 1024,0 hPa 0,0 l/m² 9,6 km/h (2 Bft) SW 219 ° 1 min 134 W/m² 1,6 °C 1,7 °C 12,9 km/h (3 Bft)
31.12.2024 14:32 22,6 °C 4,4 °C 50 % 82 % 1024,0 hPa 0,0 l/m² 10,8 km/h (2 Bft) SW 220 ° 1 min 132 W/m² 1,6 °C 0,8 °C 16,1 km/h (3 Bft)
31.12.2024 14:33 22,6 °C 4,4 °C 50 % 82 % 1024,0 hPa 0,0 l/m² 8,6 km/h (2 Bft) S-SW 207 ° 1 min 132 W/m² 1,6 °C 2,5 °C 12,9 km/h (3 Bft)
31.12.2024 14:34 22,6 °C 4,4 °C 50 % 82 % 1023,9 hPa 0,0 l/m² 9,5 km/h (2 Bft) S-SW 209 ° 1 min 130 W/m² 1,6 °C 1,8 °C 12,9 km/h (3 Bft)
31.12.2024 14:36 22,6 °C 4,4 °C 50 % 82 % 1023,9 hPa 0,0 l/m² 14,8 km/h (3 Bft) S-SW 205 ° 2 min 127 W/m² 1,6 °C -1,5 °C 22,5 km/h (4 Bft)
31.12.2024 14:38 22,6 °C 4,4 °C 50 % 82 % 1024,0 hPa 0,0 l/m² 15,1 km/h (3 Bft) S-SW 194 ° 2 min 121 W/m² 1,6 °C -1,7 °C 19,3 km/h (3 Bft)
31.12.2024 14:40 22,6 °C 4,4 °C 50 % 82 % 1024,0 hPa 0,0 l/m² 14,5 km/h (3 Bft) SW 232 ° 2 min 118 W/m² 1,6 °C -1,4 °C 20,9 km/h (4 Bft)
31.12.2024 14:41 22,6 °C 4,4 °C 50 % 82 % 1024,0 hPa 0,0 l/m² 14,3 km/h (3 Bft) SW 225 ° 1 min 118 W/m² 1,6 °C -1,3 °C 17,7 km/h (3 Bft)
31.12.2024 14:42 22,6 °C 4,4 °C 50 % 82 % 1024,0 hPa 0,0 l/m² 15,0 km/h (3 Bft) SW 229 ° 1 min 116 W/m² 1,6 °C -1,7 °C 19,3 km/h (3 Bft)
31.12.2024 14:43 22,6 °C 4,4 °C 50 % 82 % 1023,9 hPa 0,0 l/m² 15,0 km/h (3 Bft) S-SW 199 ° 1 min 113 W/m² 1,6 °C -1,7 °C 20,9 km/h (4 Bft)
31.12.2024 14:45 22,6 °C 4,3 °C 50 % 82 % 1023,8 hPa 0,0 l/m² 19,8 km/h (3 Bft) S-SW 202 ° 2 min 109 W/m² 1,5 °C -4,0 °C 27,4 km/h (5 Bft)
31.12.2024 14:47 22,6 °C 4,3 °C 50 % 82 % 1023,8 hPa 0,0 l/m² 17,5 km/h (3 Bft) SW 221 ° 2 min 105 W/m² 1,5 °C -3,0 °C 27,4 km/h (5 Bft)
31.12.2024 14:49 22,6 °C 4,2 °C 50 % 82 % 1023,8 hPa 0,0 l/m² 15,2 km/h (3 Bft) SW 227 ° 2 min 98 W/m² 1,4 °C -2,0 °C 20,9 km/h (4 Bft)
31.12.2024 14:50 22,6 °C 4,2 °C 50 % 82 % 1023,7 hPa 0,0 l/m² 21,3 km/h (4 Bft) S-SW 209 ° 1 min 97 W/m² 1,4 °C -4,7 °C 25,7 km/h (4 Bft)
31.12.2024 14:51 22,6 °C 4,2 °C 50 % 82 % 1023,7 hPa 0,0 l/m² 21,1 km/h (4 Bft) S-SW 207 ° 1 min 95 W/m² 1,4 °C -4,6 °C 27,4 km/h (5 Bft)
31.12.2024 14:52 22,6 °C 4,2 °C 50 % 82 % 1023,7 hPa 0,0 l/m² 21,0 km/h (4 Bft) S-SW 211 ° 1 min 95 W/m² 1,4 °C -4,6 °C 29,0 km/h (5 Bft)
31.12.2024 14:53 22,6 °C 4,2 °C 50 % 82 % 1023,7 hPa 0,0 l/m² 21,9 km/h (4 Bft) S 188 ° 1 min 91 W/m² 1,4 °C -4,9 °C 27,4 km/h (5 Bft)
31.12.2024 14:55 22,6 °C 4,2 °C 50 % 82 % 1023,7 hPa 0,0 l/m² 21,2 km/h (4 Bft) SW 219 ° 2 min 86 W/m² 1,4 °C -4,7 °C 29,0 km/h (5 Bft)
31.12.2024 14:57 22,5 °C 4,2 °C 50 % 83 % 1023,7 hPa 0,0 l/m² 18,7 km/h (3 Bft) S-SW 213 ° 2 min 84 W/m² 1,6 °C -3,7 °C 29,0 km/h (5 Bft)
31.12.2024 14:59 22,5 °C 4,2 °C 50 % 83 % 1023,6 hPa 0,0 l/m² 21,7 km/h (4 Bft) S-SW 205 ° 2 min 84 W/m² 1,6 °C -4,9 °C 29,0 km/h (5 Bft)
31.12.2024 15:00 22,5 °C 4,1 °C 50 % 83 % 1023,6 hPa 0,0 l/m² 21,4 km/h (4 Bft) S-SW 209 ° 1 min 81 W/m² 1,5 °C -4,9 °C 25,7 km/h (4 Bft)
31.12.2024 15:01 22,5 °C 4,2 °C 50 % 83 % 1023,6 hPa 0,0 l/m² 21,0 km/h (4 Bft) S-SW 198 ° 1 min 79 W/m² 1,6 °C -4,6 °C 25,7 km/h (4 Bft)
31.12.2024 15:02 22,5 °C 4,2 °C 50 % 83 % 1023,6 hPa 0,0 l/m² 25,2 km/h (4 Bft) S-SW 213 ° 1 min 79 W/m² 1,6 °C -6,1 °C 30,6 km/h (5 Bft)
31.12.2024 15:04 22,5 °C 4,2 °C 50 % 83 % 1023,7 hPa 0,0 l/m² 22,3 km/h (4 Bft) S-SW 198 ° 2 min 76 W/m² 1,6 °C -5,1 °C 30,6 km/h (5 Bft)
31.12.2024 15:06 22,4 °C 4,1 °C 50 % 83 % 1023,7 hPa 0,0 l/m² 19,2 km/h (3 Bft) S 190 ° 2 min 72 W/m² 1,5 °C -4,0 °C 30,6 km/h (5 Bft)
31.12.2024 15:08 22,5 °C 4,1 °C 50 % 83 % 1023,7 hPa 0,0 l/m² 24,4 km/h (4 Bft) S-SW 192 ° 2 min 69 W/m² 1,5 °C -6,0 °C 37,0 km/h (5 Bft)
31.12.2024 15:10 22,4 °C 4,0 °C 50 % 83 % 1023,7 hPa 0,0 l/m² 21,9 km/h (4 Bft) S-SW 202 ° 2 min 65 W/m² 1,4 °C -5,2 °C 32,2 km/h (5 Bft)
31.12.2024 15:11 22,4 °C 4,0 °C 49 % 83 % 1023,8 hPa 0,0 l/m² 19,1 km/h (3 Bft) S-SW 207 ° 1 min 63 W/m² 1,4 °C -4,1 °C 25,7 km/h (4 Bft)
31.12.2024 15:12 22,4 °C 4,0 °C 49 % 83 % 1023,8 hPa 0,0 l/m² 21,7 km/h (4 Bft) S-SW 201 ° 1 min 60 W/m² 1,4 °C -5,1 °C 29,0 km/h (5 Bft)
31.12.2024 15:13 22,4 °C 4,0 °C 49 % 83 % 1023,8 hPa 0,0 l/m² 21,4 km/h (4 Bft) S-SW 196 ° 1 min 58 W/m² 1,4 °C -5,0 °C 27,4 km/h (5 Bft)
31.12.2024 15:15 22,4 °C 3,9 °C 49 % 83 % 1023,8 hPa 0,0 l/m² 22,2 km/h (4 Bft) S-SW 205 ° 2 min 56 W/m² 1,3 °C -5,5 °C 30,6 km/h (5 Bft)
31.12.2024 15:16 22,4 °C 3,9 °C 49 % 83 % 1023,8 hPa 0,0 l/m² 20,0 km/h (4 Bft) S-SW 207 ° 1 min 54 W/m² 1,3 °C -4,6 °C 24,1 km/h (4 Bft)
31.12.2024 15:17 22,4 °C 3,9 °C 49 % 83 % 1023,8 hPa 0,0 l/m² 20,9 km/h (4 Bft) SW 215 ° 1 min 53 W/m² 1,3 °C -5,0 °C 25,7 km/h (4 Bft)
31.12.2024 15:19 22,4 °C 3,8 °C 49 % 83 % 1023,8 hPa 0,0 l/m² 21,1 km/h (4 Bft) SW 217 ° 0 min 51 W/m² 1,2 °C -5,2 °C 27,4 km/h (5 Bft)
31.12.2024 15:20 22,4 °C 3,8 °C 50 % 83 % 1023,7 hPa 0,0 l/m² 20,8 km/h (4 Bft) S-SW 200 ° 0 min 47 W/m² 1,2 °C -5,0 °C 25,7 km/h (4 Bft)
31.12.2024 15:21 22,4 °C 3,8 °C 50 % 83 % 1023,7 hPa 0,0 l/m² 18,9 km/h (3 Bft) S-SW 203 ° 0 min 47 W/m² 1,2 °C -4,3 °C 25,7 km/h (4 Bft)
31.12.2024 15:22 22,4 °C 3,7 °C 50 % 83 % 1023,8 hPa 0,0 l/m² 23,1 km/h (4 Bft) SW 215 ° 0 min 46 W/m² 1,1 °C -6,0 °C 27,4 km/h (5 Bft)
31.12.2024 15:24 22,4 °C 3,7 °C 50 % 84 % 1023,7 hPa 0,0 l/m² 18,3 km/h (3 Bft) S-SW 211 ° 0 min 42 W/m² 1,3 °C -4,1 °C 25,7 km/h (4 Bft)
31.12.2024 15:26 22,4 °C 3,6 °C 50 % 84 % 1023,7 hPa 0,0 l/m² 17,2 km/h (3 Bft) SW 219 ° 0 min 39 W/m² 1,2 °C -3,7 °C 22,5 km/h (4 Bft)
31.12.2024 15:28 22,4 °C 3,6 °C 50 % 84 % 1023,9 hPa 0,0 l/m² 19,7 km/h (3 Bft) S-SW 213 ° 0 min 37 W/m² 1,2 °C -4,9 °C 25,7 km/h (4 Bft)
31.12.2024 15:30 22,5 °C 3,6 °C 50 % 84 % 1023,7 hPa 0,0 l/m² 19,3 km/h (3 Bft) S-SW 211 ° 0 min 33 W/m² 1,2 °C -4,7 °C 27,4 km/h (5 Bft)
31.12.2024 15:31 22,5 °C 3,6 °C 50 % 84 % 1023,9 hPa 0,0 l/m² 19,3 km/h (3 Bft) W-SW 252 ° 0 min 32 W/m² 1,2 °C -4,7 °C 25,7 km/h (4 Bft)
31.12.2024 15:32 22,5 °C 3,5 °C 50 % 84 % 1023,9 hPa 0,0 l/m² 15,3 km/h (3 Bft) SW 229 ° 0 min 30 W/m² 1,1 °C -2,9 °C 22,5 km/h (4 Bft)
31.12.2024 15:33 22,5 °C 3,5 °C 50 % 84 % 1023,9 hPa 0,0 l/m² 13,9 km/h (3 Bft) SW 235 ° 0 min 28 W/m² 1,1 °C -2,1 °C 22,5 km/h (4 Bft)
31.12.2024 15:35 22,5 °C 3,5 °C 50 % 84 % 1023,8 hPa 0,0 l/m² 16,3 km/h (3 Bft) SW 223 ° 0 min 26 W/m² 1,1 °C -3,4 °C 20,9 km/h (4 Bft)
31.12.2024 15:36 22,5 °C 3,5 °C 50 % 84 % 1024,0 hPa 0,0 l/m² 18,1 km/h (3 Bft) SW 230 ° 0 min 25 W/m² 1,1 °C -4,3 °C 22,5 km/h (4 Bft)
31.12.2024 15:37 22,5 °C 3,5 °C 50 % 84 % 1024,0 hPa 0,0 l/m² 15,4 km/h (3 Bft) SW 230 ° 0 min 25 W/m² 1,1 °C -3,0 °C 19,3 km/h (3 Bft)
31.12.2024 15:39 22,6 °C 3,5 °C 50 % 84 % 1023,9 hPa 0,0 l/m² 15,7 km/h (3 Bft) SW 236 ° 0 min 23 W/m² 1,1 °C -3,1 °C 20,9 km/h (4 Bft)
31.12.2024 15:40 22,6 °C 3,5 °C 50 % 84 % 1024,0 hPa 0,0 l/m² 14,7 km/h (3 Bft) SW 232 ° 0 min 21 W/m² 1,1 °C -2,6 °C 20,9 km/h (4 Bft)
31.12.2024 15:41 22,6 °C 3,5 °C 50 % 84 % 1024,0 hPa 0,0 l/m² 12,3 km/h (2 Bft) SW 221 ° 0 min 21 W/m² 1,1 °C -1,2 °C 16,1 km/h (3 Bft)
31.12.2024 15:42 22,5 °C 3,4 °C 50 % 84 % 1024,0 hPa 0,0 l/m² 13,3 km/h (3 Bft) SW 234 ° 0 min 19 W/m² 1,0 °C -1,9 °C 19,3 km/h (3 Bft)
31.12.2024 15:44 22,6 °C 3,3 °C 50 % 84 % 1024,0 hPa 0,0 l/m² 12,1 km/h (2 Bft) SW 231 ° 0 min 19 W/m² 0,9 °C -1,3 °C 17,7 km/h (3 Bft)
31.12.2024 15:45 22,6 °C 3,3 °C 50 % 84 % 1024,0 hPa 0,0 l/m² 8,0 km/h (2 Bft) SW 226 ° 0 min 18 W/m² 0,9 °C 1,8 °C 16,1 km/h (3 Bft)
31.12.2024 15:46 22,6 °C 3,3 °C 50 % 84 % 1024,0 hPa 0,0 l/m² 11,5 km/h (2 Bft) SW 221 ° 0 min 18 W/m² 0,9 °C -0,9 °C 16,1 km/h (3 Bft)
31.12.2024 15:47 22,6 °C 3,2 °C 50 % 84 % 1024,0 hPa 0,0 l/m² 10,4 km/h (2 Bft) SW 223 ° 0 min 18 W/m² 0,8 °C -0,2 °C 12,9 km/h (3 Bft)
31.12.2024 15:48 22,6 °C 3,2 °C 50 % 84 % 1024,0 hPa 0,0 l/m² 11,6 km/h (2 Bft) SW 217 ° 0 min 16 W/m² 0,8 °C -1,1 °C 14,5 km/h (3 Bft)
31.12.2024 15:50 22,6 °C 3,2 °C 50 % 84 % 1024,1 hPa 0,0 l/m² 10,4 km/h (2 Bft) SW 229 ° 0 min 16 W/m² 0,8 °C -0,2 °C 14,5 km/h (3 Bft)
31.12.2024 15:51 22,6 °C 3,2 °C 50 % 84 % 1024,1 hPa 0,0 l/m² 8,4 km/h (2 Bft) W-SW 242 ° 0 min 16 W/m² 0,8 °C 1,4 °C 11,3 km/h (2 Bft)
31.12.2024 15:52 22,6 °C 3,2 °C 50 % 84 % 1024,1 hPa 0,0 l/m² 10,5 km/h (2 Bft) W-SW 239 ° 0 min 16 W/m² 0,8 °C -0,3 °C 14,5 km/h (3 Bft)
31.12.2024 15:53 22,6 °C 3,2 °C 50 % 84 % 1024,1 hPa 0,0 l/m² 11,9 km/h (2 Bft) SW 230 ° 0 min 14 W/m² 0,8 °C -1,3 °C 17,7 km/h (3 Bft)
31.12.2024 15:55 22,6 °C 3,2 °C 50 % 84 % 1024,1 hPa 0,0 l/m² 10,5 km/h (2 Bft) SW 232 ° 0 min 14 W/m² 0,8 °C -0,3 °C 16,1 km/h (3 Bft)
31.12.2024 15:56 22,6 °C 3,1 °C 50 % 84 % 1024,1 hPa 0,0 l/m² 11,8 km/h (2 Bft) W-SW 240 ° 0 min 12 W/m² 0,7 °C -1,3 °C 16,1 km/h (3 Bft)
31.12.2024 15:57 22,6 °C 3,1 °C 50 % 84 % 1024,1 hPa 0,0 l/m² 13,9 km/h (3 Bft) SW 217 ° 0 min 12 W/m² 0,7 °C -2,6 °C 17,7 km/h (3 Bft)
31.12.2024 15:59 22,6 °C 2,9 °C 50 % 84 % 1024,2 hPa 0,0 l/m² 13,9 km/h (3 Bft) S-SW 208 ° 0 min 11 W/m² 0,5 °C -2,8 °C 19,3 km/h (3 Bft)
31.12.2024 16:00 22,6 °C 2,9 °C 50 % 84 % 1024,1 hPa 0,0 l/m² 15,8 km/h (3 Bft) SW 218 ° 0 min 11 W/m² 0,5 °C -3,9 °C 20,9 km/h (4 Bft)
31.12.2024 16:01 22,6 °C 2,9 °C 50 % 85 % 1024,1 hPa 0,0 l/m² 15,1 km/h (3 Bft) SW 219 ° 0 min 11 W/m² 0,6 °C -3,5 °C 19,3 km/h (3 Bft)
31.12.2024 16:02 22,6 °C 2,8 °C 51 % 85 % 1024,2 hPa 0,0 l/m² 14,2 km/h (3 Bft) SW 221 ° 0 min 11 W/m² 0,5 °C -3,1 °C 17,7 km/h (3 Bft)
31.12.2024 16:04 22,6 °C 2,8 °C 51 % 85 % 1024,2 hPa 0,0 l/m² 15,5 km/h (3 Bft) SW 223 ° 0 min 11 W/m² 0,5 °C -3,9 °C 22,5 km/h (4 Bft)
31.12.2024 16:06 22,6 °C 2,8 °C 51 % 85 % 1024,2 hPa 0,0 l/m² 13,7 km/h (3 Bft) SW 225 ° 0 min 9 W/m² 0,5 °C -2,8 °C 19,3 km/h (3 Bft)
31.12.2024 16:08 22,6 °C 2,7 °C 51 % 85 % 1024,3 hPa 0,0 l/m² 14,4 km/h (3 Bft) W-SW 239 ° 0 min 9 W/m² 0,4 °C -3,4 °C 20,9 km/h (4 Bft)
31.12.2024 16:10 22,6 °C 2,7 °C 51 % 85 % 1024,3 hPa 0,0 l/m² 13,5 km/h (3 Bft) SW 227 ° 0 min 7 W/m² 0,4 °C -2,8 °C 19,3 km/h (3 Bft)
31.12.2024 16:11 22,6 °C 2,7 °C 51 % 85 % 1024,4 hPa 0,0 l/m² 12,4 km/h (2 Bft) SW 227 ° 0 min 7 W/m² 0,4 °C -2,2 °C 19,3 km/h (3 Bft)
31.12.2024 16:12 22,6 °C 2,6 °C 51 % 85 % 1024,4 hPa 0,0 l/m² 13,9 km/h (3 Bft) SW 227 ° 0 min 7 W/m² 0,3 °C -3,2 °C 17,7 km/h (3 Bft)
31.12.2024 16:13 22,6 °C 2,7 °C 51 % 86 % 1024,4 hPa 0,0 l/m² 16,0 km/h (3 Bft) W-SW 240 ° 0 min 7 W/m² 0,6 °C -4,2 °C 20,9 km/h (4 Bft)
31.12.2024 16:15 22,6 °C 2,7 °C 50 % 86 % 1024,4 hPa 0,0 l/m² 13,4 km/h (3 Bft) SW 220 ° 0 min 5 W/m² 0,6 °C -2,8 °C 20,9 km/h (4 Bft)
31.12.2024 16:16 22,6 °C 2,6 °C 50 % 86 % 1024,3 hPa 0,0 l/m² 17,6 km/h (3 Bft) SW 223 ° 0 min 5 W/m² 0,5 °C -5,2 °C 20,9 km/h (4 Bft)
31.12.2024 16:17 22,6 °C 2,6 °C 50 % 86 % 1024,3 hPa 0,0 l/m² 13,6 km/h (3 Bft) SW 227 ° 0 min 5 W/m² 0,5 °C -3,0 °C 17,7 km/h (3 Bft)
31.12.2024 16:19 22,6 °C 2,7 °C 50 % 86 % 1024,3 hPa 0,0 l/m² 15,0 km/h (3 Bft) SW 219 ° 0 min 5 W/m² 0,6 °C -3,7 °C 19,3 km/h (3 Bft)
31.12.2024 16:20 22,6 °C 2,7 °C 50 % 86 % 1024,3 hPa 0,0 l/m² 16,1 km/h (3 Bft) W-SW 240 ° 0 min 5 W/m² 0,6 °C -4,3 °C 22,5 km/h (4 Bft)
31.12.2024 16:21 22,6 °C 2,7 °C 50 % 86 % 1024,3 hPa 0,0 l/m² 15,9 km/h (3 Bft) W 262 ° 0 min 0 W/m² 0,6 °C -4,2 °C 19,3 km/h (3 Bft)
31.12.2024 16:22 22,6 °C 2,7 °C 49 % 86 % 1024,3 hPa 0,0 l/m² 16,3 km/h (3 Bft) SW 225 ° 0 min 0 W/m² 0,6 °C -4,4 °C 20,9 km/h (4 Bft)
31.12.2024 16:24 22,6 °C 2,7 °C 49 % 86 % 1024,3 hPa 0,0 l/m² 11,8 km/h (2 Bft) SW 236 ° 0 min 0 W/m² 0,6 °C -1,8 °C 16,1 km/h (3 Bft)
31.12.2024 16:26 22,6 °C 2,7 °C 49 % 86 % 1024,4 hPa 0,0 l/m² 12,7 km/h (3 Bft) W 263 ° 0 min 0 W/m² 0,6 °C -2,3 °C 17,7 km/h (3 Bft)
31.12.2024 16:28 22,5 °C 2,7 °C 49 % 85 % 1024,3 hPa 0,0 l/m² 10,9 km/h (2 Bft) W-SW 241 ° 0 min 0 W/m² 0,4 °C -1,1 °C 14,5 km/h (3 Bft)
31.12.2024 16:30 22,5 °C 2,6 °C 49 % 85 % 1024,3 hPa 0,0 l/m² 14,1 km/h (3 Bft) W-SW 240 ° 0 min 0 W/m² 0,3 °C -3,3 °C 19,3 km/h (3 Bft)
31.12.2024 16:33 22,4 °C 2,4 °C 49 % 85 % 1024,4 hPa 0,0 l/m² 12,9 km/h (3 Bft) W-SW 244 ° 0 min 0 W/m² 0,1 °C -2,8 °C 17,7 km/h (3 Bft)
31.12.2024 16:35 22,4 °C 2,4 °C 49 % 85 % 1024,4 hPa 0,0 l/m² 10,1 km/h (2 Bft) W-SW 246 ° 0 min 0 W/m² 0,1 °C -0,9 °C 14,5 km/h (3 Bft)
31.12.2024 16:37 22,4 °C 2,3 °C 50 % 85 % 1024,4 hPa 0,0 l/m² 10,3 km/h (2 Bft) W-SW 241 ° 0 min 0 W/m² 0,0 °C -1,1 °C 14,5 km/h (3 Bft)
31.12.2024 16:39 22,4 °C 2,2 °C 50 % 85 % 1024,4 hPa 0,0 l/m² 7,9 km/h (2 Bft) W-SW 251 ° 0 min 0 W/m² -0,1 °C 0,8 °C 14,5 km/h (3 Bft)
31.12.2024 16:40 22,4 °C 2,2 °C 50 % 85 % 1024,5 hPa 0,0 l/m² 9,3 km/h (2 Bft) W-SW 254 ° 0 min 0 W/m² -0,1 °C -0,5 °C 12,9 km/h (3 Bft)
31.12.2024 16:41 22,4 °C 2,2 °C 50 % 85 % 1024,5 hPa 0,0 l/m² 8,7 km/h (2 Bft) W-SW 256 ° 0 min 0 W/m² -0,1 °C 0,0 °C 12,9 km/h (3 Bft)
31.12.2024 16:42 22,4 °C 2,1 °C 50 % 85 % 1024,4 hPa 0,0 l/m² 6,0 km/h (2 Bft) W-SW 258 ° 0 min 0 W/m² -0,2 °C 2,1 °C 6,4 km/h (2 Bft)
31.12.2024 16:44 22,4 °C 1,9 °C 50 % 86 % 1024,5 hPa 0,0 l/m² 7,8 km/h (2 Bft) W-SW 255 ° 0 min 0 W/m² -0,2 °C 0,5 °C 11,3 km/h (2 Bft)
31.12.2024 16:46 22,4 °C 1,8 °C 50 % 86 % 1024,5 hPa 0,0 l/m² 9,3 km/h (2 Bft) W-SW 249 ° 0 min 0 W/m² -0,3 °C -0,9 °C 11,3 km/h (2 Bft)
31.12.2024 16:48 22,4 °C 1,8 °C 50 % 86 % 1024,4 hPa 0,0 l/m² 9,8 km/h (2 Bft) W-SW 244 ° 0 min 0 W/m² -0,3 °C -1,3 °C 12,9 km/h (3 Bft)
31.12.2024 16:50 22,4 °C 1,7 °C 50 % 86 % 1024,4 hPa 0,0 l/m² 8,9 km/h (2 Bft) W-SW 238 ° 0 min 0 W/m² -0,4 °C -0,7 °C 12,9 km/h (3 Bft)
31.12.2024 16:51 22,4 °C 1,7 °C 50 % 86 % 1024,3 hPa 0,0 l/m² 6,8 km/h (2 Bft) W-SW 237 ° 0 min 0 W/m² -0,4 °C 1,3 °C 8,0 km/h (2 Bft)
31.12.2024 16:52 22,4 °C 1,6 °C 50 % 86 % 1024,3 hPa 0,0 l/m² 7,6 km/h (2 Bft) SW 234 ° 0 min 0 W/m² -0,5 °C 0,4 °C 9,7 km/h (2 Bft)
31.12.2024 16:53 22,4 °C 1,4 °C 50 % 86 % 1024,3 hPa 0,0 l/m² 8,0 km/h (2 Bft) SW 232 ° 0 min 0 W/m² -0,7 °C -0,2 °C 9,7 km/h (2 Bft)
31.12.2024 16:55 22,4 °C 1,3 °C 50 % 86 % 1024,3 hPa 0,0 l/m² 9,2 km/h (2 Bft) SW 231 ° 0 min 0 W/m² -0,8 °C -1,4 °C 9,7 km/h (2 Bft)
31.12.2024 16:57 22,4 °C 1,2 °C 50 % 87 % 1024,3 hPa 0,0 l/m² 8,3 km/h (2 Bft) SW 230 ° 0 min 0 W/m² -0,7 °C -0,7 °C 9,7 km/h (2 Bft)
31.12.2024 16:59 22,4 °C 1,1 °C 50 % 87 % 1024,3 hPa 0,0 l/m² 7,4 km/h (2 Bft) SW 230 ° 0 min 0 W/m² -0,8 °C 0,1 °C 9,7 km/h (2 Bft)
31.12.2024 17:00 22,4 °C 1,1 °C 50 % 87 % 1024,3 hPa 0,0 l/m² 7,5 km/h (2 Bft) SW 231 ° 0 min 0 W/m² -0,8 °C -0,0 °C 9,7 km/h (2 Bft)
31.12.2024 17:01 22,4 °C 1,1 °C 50 % 87 % 1024,3 hPa 0,0 l/m² 7,3 km/h (2 Bft) SW 230 ° 0 min 0 W/m² -0,8 °C 0,2 °C 8,0 km/h (2 Bft)
31.12.2024 17:02 22,4 °C 1,1 °C 50 % 88 % 1024,3 hPa 0,0 l/m² 8,0 km/h (2 Bft) SW 231 ° 0 min 0 W/m² -0,7 °C -0,5 °C 9,7 km/h (2 Bft)
31.12.2024 17:04 22,4 °C 1,1 °C 50 % 88 % 1024,3 hPa 0,0 l/m² 8,7 km/h (2 Bft) SW 230 ° 0 min 0 W/m² -0,7 °C -1,1 °C 9,7 km/h (2 Bft)
31.12.2024 17:06 22,4 °C 1,0 °C 50 % 88 % 1024,2 hPa 0,0 l/m² 7,1 km/h (2 Bft) SW 230 ° 0 min 0 W/m² -0,8 °C 0,3 °C 9,7 km/h (2 Bft)
31.12.2024 17:08 22,4 °C 1,0 °C 50 % 88 % 1024,2 hPa 0,0 l/m² 7,3 km/h (2 Bft) SW 230 ° 0 min 0 W/m² -0,8 °C 0,1 °C 9,7 km/h (2 Bft)
31.12.2024 17:10 22,4 °C 0,9 °C 50 % 88 % 1024,2 hPa 0,0 l/m² 5,9 km/h (2 Bft) SW 230 ° 0 min 0 W/m² -0,9 °C 0,9 °C 8,0 km/h (2 Bft)
31.12.2024 17:11 22,4 °C 0,9 °C 50 % 88 % 1024,2 hPa 0,0 l/m² 6,4 km/h (2 Bft) SW 231 ° 0 min 0 W/m² -0,9 °C 0,9 °C 9,7 km/h (2 Bft)
31.12.2024 17:12 22,4 °C 1,0 °C 50 % 88 % 1024,2 hPa 0,0 l/m² 6,6 km/h (2 Bft) SW 236 ° 0 min 0 W/m² -0,8 °C 0,8 °C 8,0 km/h (2 Bft)
31.12.2024 17:13 22,3 °C 1,1 °C 50 % 89 % 1024,3 hPa 0,0 l/m² 7,0 km/h (2 Bft) W-SW 237 ° 0 min 0 W/m² -0,5 °C 0,5 °C 9,7 km/h (2 Bft)
31.12.2024 17:15 22,3 °C 1,1 °C 50 % 89 % 1024,2 hPa 0,0 l/m² 8,2 km/h (2 Bft) W-SW 246 ° 0 min 0 W/m² -0,5 °C -0,7 °C 12,9 km/h (3 Bft)
31.12.2024 17:17 22,4 °C 1,2 °C 50 % 89 % 1024,2 hPa 0,0 l/m² 7,9 km/h (2 Bft) W-SW 249 ° 0 min 0 W/m² -0,4 °C -0,3 °C 14,5 km/h (3 Bft)
31.12.2024 17:19 22,3 °C 1,3 °C 49 % 89 % 1024,2 hPa 0,0 l/m² 9,6 km/h (2 Bft) W-SW 253 ° 0 min 0 W/m² -0,3 °C -1,7 °C 14,5 km/h (3 Bft)
31.12.2024 17:20 22,3 °C 1,4 °C 46 % 89 % 1024,1 hPa 0,0 l/m² 11,1 km/h (2 Bft) W-SW 253 ° 0 min 0 W/m² -0,2 °C -2,7 °C 12,9 km/h (3 Bft)
31.12.2024 17:21 22,3 °C 1,4 °C 46 % 89 % 1024,1 hPa 0,0 l/m² 12,2 km/h (2 Bft) W-SW 252 ° 0 min 0 W/m² -0,2 °C -3,5 °C 14,5 km/h (3 Bft)
31.12.2024 17:22 22,3 °C 1,5 °C 46 % 89 % 1024,0 hPa 0,0 l/m² 12,5 km/h (2 Bft) W-SW 248 ° 0 min 0 W/m² -0,1 °C -3,6 °C 14,5 km/h (3 Bft)
31.12.2024 17:24 22,3 °C 1,6 °C 47 % 89 % 1024,1 hPa 0,0 l/m² 12,7 km/h (3 Bft) W 260 ° 0 min 0 W/m² -0,0 °C -3,6 °C 16,1 km/h (3 Bft)
31.12.2024 17:26 22,3 °C 1,6 °C 48 % 89 % 1024,0 hPa 0,0 l/m² 13,5 km/h (3 Bft) W-SW 252 ° 0 min 0 W/m² -0,0 °C -4,1 °C 16,1 km/h (3 Bft)
31.12.2024 17:28 22,2 °C 1,6 °C 48 % 88 % 1023,9 hPa 0,0 l/m² 13,3 km/h (3 Bft) W-SW 239 ° 0 min 0 W/m² -0,2 °C -4,0 °C 19,3 km/h (3 Bft)
31.12.2024 17:30 22,3 °C 1,7 °C 48 % 88 % 1023,9 hPa 0,0 l/m² 13,3 km/h (3 Bft) W-SW 249 ° 0 min 0 W/m² -0,1 °C -3,9 °C 16,1 km/h (3 Bft)
31.12.2024 17:31 22,3 °C 1,7 °C 48 % 88 % 1023,9 hPa 0,0 l/m² 14,5 km/h (3 Bft) W-SW 252 ° 0 min 0 W/m² -0,1 °C -4,6 °C 19,3 km/h (3 Bft)
31.12.2024 17:32 22,3 °C 1,7 °C 48 % 88 % 1023,9 hPa 0,0 l/m² 11,8 km/h (2 Bft) W 263 ° 0 min 0 W/m² -0,1 °C -2,9 °C 16,1 km/h (3 Bft)
31.12.2024 17:33 22,2 °C 1,7 °C 48 % 89 % 1023,9 hPa 0,0 l/m² 9,6 km/h (2 Bft) W 272 ° 0 min 0 W/m² 0,1 °C -1,3 °C 14,5 km/h (3 Bft)
31.12.2024 17:35 22,3 °C 1,8 °C 49 % 89 % 1023,9 hPa 0,0 l/m² 8,9 km/h (2 Bft) W-SW 258 ° 0 min 0 W/m² 0,2 °C -0,6 °C 11,3 km/h (2 Bft)
31.12.2024 17:37 22,3 °C 1,8 °C 49 % 88 % 1024,0 hPa 0,0 l/m² 9,3 km/h (2 Bft) W 265 ° 0 min 0 W/m² 0,0 °C -0,9 °C 12,9 km/h (3 Bft)
31.12.2024 17:39 22,3 °C 1,7 °C 49 % 88 % 1024,0 hPa 0,0 l/m² 9,4 km/h (2 Bft) W 271 ° 0 min 0 W/m² -0,1 °C -1,1 °C 12,9 km/h (3 Bft)
31.12.2024 17:40 22,3 °C 1,7 °C 49 % 88 % 1024,0 hPa 0,0 l/m² 11,0 km/h (2 Bft) W 273 ° 0 min 0 W/m² -0,1 °C -2,3 °C 12,9 km/h (3 Bft)
31.12.2024 17:41 22,3 °C 1,7 °C 49 % 88 % 1024,0 hPa 0,0 l/m² 7,4 km/h (2 Bft) W 265 ° 0 min 0 W/m² -0,1 °C 0,7 °C 12,9 km/h (3 Bft)
31.12.2024 17:42 22,3 °C 1,7 °C 49 % 88 % 1023,9 hPa 0,0 l/m² 8,0 km/h (2 Bft) W 269 ° 0 min 0 W/m² -0,1 °C 0,1 °C 11,3 km/h (2 Bft)
31.12.2024 17:44 22,3 °C 1,7 °C 50 % 88 % 1023,9 hPa 0,0 l/m² 8,3 km/h (2 Bft) W 269 ° 0 min 0 W/m² -0,1 °C -0,1 °C 12,9 km/h (3 Bft)
31.12.2024 17:46 22,3 °C 1,6 °C 50 % 88 % 1024,0 hPa 0,0 l/m² 8,2 km/h (2 Bft) W 261 ° 0 min 0 W/m² -0,2 °C -0,2 °C 11,3 km/h (2 Bft)
31.12.2024 17:48 22,3 °C 1,6 °C 50 % 88 % 1023,9 hPa 0,0 l/m² 7,4 km/h (2 Bft) W-SW 257 ° 0 min 0 W/m² -0,2 °C 0,6 °C 12,9 km/h (3 Bft)
31.12.2024 17:50 22,3 °C 1,6 °C 48 % 88 % 1023,9 hPa 0,0 l/m² 8,9 km/h (2 Bft) W 265 ° 0 min 0 W/m² -0,2 °C -0,8 °C 14,5 km/h (3 Bft)
31.12.2024 17:51 22,3 °C 1,5 °C 47 % 88 % 1023,8 hPa 0,0 l/m² 8,0 km/h (2 Bft) W 259 ° 0 min 0 W/m² -0,3 °C -0,1 °C 11,3 km/h (2 Bft)
31.12.2024 17:52 22,3 °C 1,6 °C 47 % 88 % 1023,8 hPa 0,0 l/m² 7,5 km/h (2 Bft) W 265 ° 0 min 0 W/m² -0,2 °C 0,5 °C 12,9 km/h (3 Bft)
31.12.2024 17:53 22,3 °C 1,6 °C 47 % 88 % 1023,8 hPa 0,0 l/m² 10,1 km/h (2 Bft) W 273 ° 0 min 0 W/m² -0,2 °C -1,8 °C 14,5 km/h (3 Bft)
31.12.2024 17:55 22,2 °C 1,6 °C 48 % 88 % 1023,9 hPa 0,0 l/m² 10,0 km/h (2 Bft) W 259 ° 0 min 0 W/m² -0,2 °C -1,7 °C 14,5 km/h (3 Bft)
31.12.2024 17:57 22,2 °C 1,6 °C 48 % 88 % 1023,9 hPa 0,0 l/m² 9,3 km/h (2 Bft) W-SW 257 ° 0 min 0 W/m² -0,2 °C -1,1 °C 14,5 km/h (3 Bft)
31.12.2024 17:59 22,2 °C 1,6 °C 48 % 88 % 1024,0 hPa 0,0 l/m² 10,0 km/h (2 Bft) W 263 ° 0 min 0 W/m² -0,2 °C -1,7 °C 12,9 km/h (3 Bft)
31.12.2024 18:00 22,2 °C 1,5 °C 48 % 88 % 1023,9 hPa 0,0 l/m² 7,5 km/h (2 Bft) W 261 ° 0 min 0 W/m² -0,3 °C 0,4 °C 11,3 km/h (2 Bft)
31.12.2024 18:01 22,2 °C 1,4 °C 48 % 87 % 1023,9 hPa 0,0 l/m² 6,7 km/h (2 Bft) W 272 ° 0 min 0 W/m² -0,5 °C 1,1 °C 9,7 km/h (2 Bft)
31.12.2024 18:02 22,2 °C 1,3 °C 48 % 87 % 1023,9 hPa 0,0 l/m² 8,3 km/h (2 Bft) W 267 ° 0 min 0 W/m² -0,6 °C -0,6 °C 12,9 km/h (3 Bft)
31.12.2024 18:04 22,2 °C 1,3 °C 48 % 87 % 1023,9 hPa 0,0 l/m² 7,2 km/h (2 Bft) W 262 ° 0 min 0 W/m² -0,6 °C 0,5 °C 12,9 km/h (3 Bft)
31.12.2024 18:06 22,2 °C 1,2 °C 48 % 88 % 1023,9 hPa 0,0 l/m² 7,2 km/h (2 Bft) W 269 ° 0 min 0 W/m² -0,6 °C 0,4 °C 12,9 km/h (3 Bft)
31.12.2024 18:08 22,2 °C 1,2 °C 48 % 88 % 1023,9 hPa 0,0 l/m² 8,5 km/h (2 Bft) W 270 ° 0 min 0 W/m² -0,6 °C -0,8 °C 12,9 km/h (3 Bft)
31.12.2024 18:09 22,2 °C 1,2 °C 48 % 88 % 1023,9 hPa 0,0 l/m² 8,2 km/h (2 Bft) W 271 ° 0 min 0 W/m² -0,6 °C -0,6 °C 11,3 km/h (2 Bft)
31.12.2024 18:10 22,1 °C 1,2 °C 48 % 88 % 1024,0 hPa 0,0 l/m² 7,9 km/h (2 Bft) W 262 ° 0 min 0 W/m² -0,6 °C -0,3 °C 11,3 km/h (2 Bft)
31.12.2024 18:13 22,1 °C 1,2 °C 48 % 88 % 1024,0 hPa 0,0 l/m² 6,3 km/h (2 Bft) W 265 ° 0 min 0 W/m² -0,6 °C 1,2 °C 11,3 km/h (2 Bft)
31.12.2024 18:15 22,1 °C 1,0 °C 48 % 88 % 1023,9 hPa 0,0 l/m² 6,3 km/h (2 Bft) W-SW 244 ° 0 min 0 W/m² -0,8 °C 1,0 °C 8,0 km/h (2 Bft)
31.12.2024 18:17 22,1 °C 0,9 °C 48 % 88 % 1024,0 hPa 0,0 l/m² 6,3 km/h (2 Bft) W-SW 241 ° 0 min 0 W/m² -0,9 °C 0,9 °C 8,0 km/h (2 Bft)
31.12.2024 18:19 22,1 °C 0,8 °C 48 % 88 % 1023,9 hPa 0,0 l/m² 6,3 km/h (2 Bft) W-SW 240 ° 0 min 0 W/m² -1,0 °C 0,8 °C 8,0 km/h (2 Bft)
31.12.2024 18:20 22,1 °C 0,7 °C 48 % 88 % 1023,9 hPa 0,0 l/m² 5,5 km/h (2 Bft) SW 227 ° 0 min 0 W/m² -1,1 °C 0,7 °C 8,0 km/h (2 Bft)
31.12.2024 18:21 22,1 °C 0,6 °C 48 % 88 % 1023,9 hPa 0,0 l/m² 4,2 km/h (1 Bft) SW 227 ° 0 min 0 W/m² -1,2 °C 0,6 °C 4,8 km/h (1 Bft)
31.12.2024 18:22 22,1 °C 0,6 °C 49 % 87 % 1023,9 hPa 0,0 l/m² 4,0 km/h (1 Bft) SW 227 ° 0 min 0 W/m² -1,3 °C 0,6 °C 4,8 km/h (1 Bft)
31.12.2024 18:24 22,1 °C 0,3 °C 49 % 88 % 1024,0 hPa 0,0 l/m² 4,6 km/h (1 Bft) SW 219 ° 0 min 0 W/m² -1,4 °C 0,3 °C 6,4 km/h (2 Bft)
31.12.2024 18:26 22,1 °C 0,3 °C 49 % 88 % 1023,9 hPa 0,0 l/m² 4,7 km/h (1 Bft) SW 219 ° 0 min 0 W/m² -1,4 °C 0,3 °C 6,4 km/h (2 Bft)
31.12.2024 18:28 22,1 °C 0,2 °C 49 % 88 % 1023,9 hPa 0,0 l/m² 2,8 km/h (1 Bft) SW 219 ° 0 min 0 W/m² -1,5 °C 0,2 °C 6,4 km/h (2 Bft)
31.12.2024 18:30 22,1 °C 0,2 °C 49 % 89 % 1023,8 hPa 0,0 l/m² 2,9 km/h (1 Bft) SW 219 ° 0 min 0 W/m² -1,4 °C 0,2 °C 4,8 km/h (1 Bft)
31.12.2024 18:31 22,2 °C 0,3 °C 50 % 89 % 1023,8 hPa 0,0 l/m² 4,4 km/h (1 Bft) SW 219 ° 0 min 0 W/m² -1,3 °C 0,3 °C 6,4 km/h (2 Bft)
31.12.2024 18:32 22,2 °C 0,3 °C 50 % 89 % 1023,8 hPa 0,0 l/m² 5,7 km/h (2 Bft) SW 219 ° 0 min 0 W/m² -1,3 °C 0,3 °C 6,4 km/h (2 Bft)
31.12.2024 18:33 22,2 °C 0,3 °C 50 % 89 % 1023,8 hPa 0,0 l/m² 5,7 km/h (2 Bft) SW 219 ° 0 min 0 W/m² -1,3 °C 0,3 °C 6,4 km/h (2 Bft)
31.12.2024 18:35 22,2 °C 0,4 °C 50 % 90 % 1023,8 hPa 0,0 l/m² 3,6 km/h (1 Bft) SW 219 ° 0 min 0 W/m² -1,0 °C 0,4 °C 6,4 km/h (2 Bft)
31.12.2024 18:37 22,2 °C 0,3 °C 50 % 89 % 1023,8 hPa 0,0 l/m² 3,7 km/h (1 Bft) SW 220 ° 0 min 0 W/m² -1,3 °C 0,3 °C 8,0 km/h (2 Bft)
31.12.2024 18:39 22,2 °C 0,3 °C 50 % 89 % 1023,7 hPa 0,0 l/m² 5,3 km/h (1 Bft) W-SW 238 ° 0 min 0 W/m² -1,3 °C 0,3 °C 9,7 km/h (2 Bft)
31.12.2024 18:40 22,2 °C 0,3 °C 50 % 90 % 1023,8 hPa 0,0 l/m² 6,3 km/h (2 Bft) W-SW 237 ° 0 min 0 W/m² -1,1 °C 0,3 °C 8,0 km/h (2 Bft)
31.12.2024 18:41 22,2 °C 0,3 °C 50 % 90 % 1023,8 hPa 0,0 l/m² 8,4 km/h (2 Bft) W-SW 238 ° 0 min 0 W/m² -1,1 °C -1,7 °C 9,7 km/h (2 Bft)
31.12.2024 18:42 22,2 °C 0,3 °C 50 % 90 % 1023,7 hPa 0,0 l/m² 7,2 km/h (2 Bft) W-SW 238 ° 0 min 0 W/m² -1,1 °C -0,5 °C 8,0 km/h (2 Bft)
31.12.2024 18:44 22,2 °C 0,3 °C 50 % 89 % 1023,7 hPa 0,0 l/m² 8,6 km/h (2 Bft) SW 219 ° 0 min 0 W/m² -1,3 °C -1,9 °C 12,9 km/h (3 Bft)
31.12.2024 18:46 22,2 °C 0,2 °C 51 % 90 % 1023,6 hPa 0,0 l/m² 9,9 km/h (2 Bft) S-SW 207 ° 0 min 0 W/m² -1,2 °C -3,1 °C 14,5 km/h (3 Bft)
31.12.2024 18:47 22,2 °C 0,2 °C 51 % 89 % 1023,6 hPa 0,0 l/m² 10,7 km/h (2 Bft) S-SW 206 ° 0 min 0 W/m² -1,4 °C -3,8 °C 12,9 km/h (3 Bft)
31.12.2024 18:48 22,2 °C 0,2 °C 51 % 89 % 1023,7 hPa 0,0 l/m² 9,3 km/h (2 Bft) S-SW 212 ° 0 min 0 W/m² -1,4 °C -2,6 °C 12,9 km/h (3 Bft)
31.12.2024 18:50 22,2 °C 0,2 °C 52 % 90 % 1023,5 hPa 0,0 l/m² 11,7 km/h (2 Bft) SW 221 ° 0 min 0 W/m² -1,2 °C -4,6 °C 14,5 km/h (3 Bft)
31.12.2024 18:51 22,2 °C 0,2 °C 53 % 90 % 1023,7 hPa 0,0 l/m² 12,9 km/h (3 Bft) SW 221 ° 0 min 0 W/m² -1,2 °C -5,4 °C 16,1 km/h (3 Bft)
31.12.2024 18:52 22,2 °C 0,2 °C 53 % 90 % 1023,7 hPa 0,0 l/m² 13,2 km/h (3 Bft) SW 217 ° 0 min 0 W/m² -1,2 °C -5,6 °C 14,5 km/h (3 Bft)
31.12.2024 18:53 22,2 °C 0,3 °C 53 % 90 % 1023,6 hPa 0,0 l/m² 11,3 km/h (2 Bft) SW 220 ° 0 min 0 W/m² -1,1 °C -4,1 °C 12,9 km/h (3 Bft)
31.12.2024 18:55 22,2 °C 0,3 °C 54 % 90 % 1023,6 hPa 0,0 l/m² 12,1 km/h (2 Bft) S-SW 211 ° 0 min 0 W/m² -1,1 °C -4,7 °C 16,1 km/h (3 Bft)
31.12.2024 18:57 22,3 °C 0,3 °C 54 % 90 % 1023,7 hPa 0,0 l/m² 13,3 km/h (3 Bft) SW 223 ° 0 min 0 W/m² -1,1 °C -5,6 °C 19,3 km/h (3 Bft)
31.12.2024 18:59 22,3 °C 0,3 °C 54 % 90 % 1023,7 hPa 0,0 l/m² 13,1 km/h (3 Bft) SW 219 ° 0 min 0 W/m² -1,1 °C -5,4 °C 16,1 km/h (3 Bft)
31.12.2024 19:00 22,3 °C 0,3 °C 55 % 90 % 1023,6 hPa 0,0 l/m² 11,2 km/h (2 Bft) SW 222 ° 0 min 0 W/m² -1,1 °C -4,1 °C 12,9 km/h (3 Bft)
31.12.2024 19:01 22,3 °C 0,3 °C 55 % 90 % 1023,6 hPa 0,0 l/m² 10,7 km/h (2 Bft) SW 223 ° 0 min 0 W/m² -1,1 °C -3,7 °C 12,9 km/h (3 Bft)
31.12.2024 19:02 22,3 °C 0,3 °C 55 % 90 % 1023,6 hPa 0,0 l/m² 9,9 km/h (2 Bft) SW 223 ° 0 min 0 W/m² -1,1 °C -3,0 °C 11,3 km/h (2 Bft)
31.12.2024 19:04 22,3 °C 0,3 °C 55 % 90 % 1023,7 hPa 0,0 l/m² 10,3 km/h (2 Bft) SW 225 ° 0 min 0 W/m² -1,1 °C -3,4 °C 12,9 km/h (3 Bft)
31.12.2024 19:06 22,3 °C 0,3 °C 56 % 90 % 1023,6 hPa 0,0 l/m² 10,7 km/h (2 Bft) SW 223 ° 0 min 0 W/m² -1,1 °C -3,7 °C 12,9 km/h (3 Bft)
31.12.2024 19:08 22,4 °C 0,3 °C 58 % 90 % 1023,7 hPa 0,0 l/m² 10,7 km/h (2 Bft) SW 216 ° 0 min 0 W/m² -1,1 °C -3,7 °C 12,9 km/h (3 Bft)
31.12.2024 19:10 22,5 °C 0,2 °C 57 % 90 % 1023,7 hPa 0,0 l/m² 11,4 km/h (2 Bft) S-SW 209 ° 0 min 0 W/m² -1,2 °C -4,3 °C 16,1 km/h (3 Bft)
31.12.2024 19:11 22,6 °C 0,2 °C 57 % 90 % 1023,7 hPa 0,0 l/m² 11,7 km/h (2 Bft) S-SW 207 ° 0 min 0 W/m² -1,2 °C -4,6 °C 12,9 km/h (3 Bft)
31.12.2024 19:12 22,6 °C 0,2 °C 57 % 90 % 1023,7 hPa 0,0 l/m² 9,3 km/h (2 Bft) S-SW 210 ° 0 min 0 W/m² -1,2 °C -2,6 °C 11,3 km/h (2 Bft)
31.12.2024 19:13 22,6 °C 0,2 °C 57 % 90 % 1023,6 hPa 0,0 l/m² 10,9 km/h (2 Bft) S-SW 209 ° 0 min 0 W/m² -1,2 °C -3,9 °C 14,5 km/h (3 Bft)
31.12.2024 19:15 22,6 °C 0,2 °C 57 % 90 % 1023,6 hPa 0,0 l/m² 10,3 km/h (2 Bft) S-SW 212 ° 0 min 0 W/m² -1,2 °C -3,5 °C 12,9 km/h (3 Bft)
31.12.2024 19:17 22,6 °C 0,1 °C 57 % 90 % 1023,7 hPa 0,0 l/m² 9,8 km/h (2 Bft) S-SW 213 ° 0 min 0 W/m² -1,3 °C -3,2 °C 12,9 km/h (3 Bft)
31.12.2024 19:19 22,6 °C 0,1 °C 57 % 90 % 1023,6 hPa 0,0 l/m² 11,9 km/h (2 Bft) S-SW 210 ° 0 min 0 W/m² -1,3 °C -4,8 °C 14,5 km/h (3 Bft)
31.12.2024 19:20 22,6 °C 0,1 °C 57 % 90 % 1023,6 hPa 0,0 l/m² 13,6 km/h (3 Bft) SW 217 ° 0 min 0 W/m² -1,3 °C -6,0 °C 17,7 km/h (3 Bft)
31.12.2024 19:21 22,6 °C 0,1 °C 57 % 90 % 1023,6 hPa 0,0 l/m² 10,9 km/h (2 Bft) SW 215 ° 0 min 0 W/m² -1,3 °C -4,1 °C 12,9 km/h (3 Bft)
31.12.2024 19:22 22,6 °C 0,1 °C 57 % 90 % 1023,6 hPa 0,0 l/m² 12,2 km/h (2 Bft) S-SW 210 ° 0 min 0 W/m² -1,3 °C -5,0 °C 14,5 km/h (3 Bft)
31.12.2024 19:24 22,7 °C 0,1 °C 56 % 90 % 1023,6 hPa 0,0 l/m² 12,4 km/h (2 Bft) SW 219 ° 0 min 0 W/m² -1,3 °C -5,2 °C 16,1 km/h (3 Bft)
31.12.2024 19:26 22,6 °C 0,1 °C 56 % 90 % 1023,6 hPa 0,0 l/m² 13,2 km/h (3 Bft) SW 218 ° 0 min 0 W/m² -1,3 °C -5,7 °C 16,1 km/h (3 Bft)
31.12.2024 19:28 22,7 °C 0,1 °C 57 % 90 % 1023,5 hPa 0,0 l/m² 14,0 km/h (3 Bft) SW 219 ° 0 min 0 W/m² -1,3 °C -6,2 °C 17,7 km/h (3 Bft)
31.12.2024 19:30 22,7 °C 0,1 °C 57 % 90 % 1023,6 hPa 0,0 l/m² 15,0 km/h (3 Bft) SW 214 ° 0 min 0 W/m² -1,3 °C -6,9 °C 20,9 km/h (4 Bft)
31.12.2024 19:31 22,7 °C 0,1 °C 57 % 90 % 1023,5 hPa 0,0 l/m² 12,7 km/h (3 Bft) SW 219 ° 0 min 0 W/m² -1,3 °C -5,4 °C 17,7 km/h (3 Bft)
31.12.2024 19:32 22,7 °C 0,1 °C 57 % 90 % 1023,5 hPa 0,0 l/m² 13,1 km/h (3 Bft) SW 215 ° 0 min 0 W/m² -1,3 °C -5,7 °C 14,5 km/h (3 Bft)
31.12.2024 19:33 22,7 °C 0,2 °C 57 % 90 % 1023,5 hPa 0,0 l/m² 13,5 km/h (3 Bft) SW 218 ° 0 min 0 W/m² -1,2 °C -5,8 °C 16,1 km/h (3 Bft)
31.12.2024 19:35 22,7 °C 0,2 °C 57 % 90 % 1023,6 hPa 0,0 l/m² 13,2 km/h (3 Bft) SW 217 ° 0 min 0 W/m² -1,2 °C -5,6 °C 16,1 km/h (3 Bft)
31.12.2024 19:37 22,7 °C 0,2 °C 58 % 90 % 1023,5 hPa 0,0 l/m² 14,0 km/h (3 Bft) SW 216 ° 0 min 0 W/m² -1,2 °C -6,1 °C 17,7 km/h (3 Bft)
31.12.2024 19:39 22,7 °C 0,2 °C 57 % 90 % 1023,5 hPa 0,0 l/m² 14,0 km/h (3 Bft) S-SW 213 ° 0 min 0 W/m² -1,2 °C -6,1 °C 17,7 km/h (3 Bft)
31.12.2024 19:41 22,7 °C 0,2 °C 57 % 90 % 1023,5 hPa 0,0 l/m² 14,5 km/h (3 Bft) S-SW 209 ° 0 min 0 W/m² -1,2 °C -6,4 °C 19,3 km/h (3 Bft)
31.12.2024 19:42 22,7 °C 0,2 °C 57 % 90 % 1023,5 hPa 0,0 l/m² 13,0 km/h (3 Bft) SW 216 ° 0 min 0 W/m² -1,2 °C -5,5 °C 16,1 km/h (3 Bft)
31.12.2024 19:44 22,8 °C 0,2 °C 57 % 90 % 1023,5 hPa 0,0 l/m² 14,4 km/h (3 Bft) SW 215 ° 0 min 0 W/m² -1,2 °C -6,4 °C 17,7 km/h (3 Bft)
31.12.2024 19:46 22,8 °C 0,3 °C 57 % 90 % 1023,6 hPa 0,0 l/m² 14,3 km/h (3 Bft) SW 219 ° 0 min 0 W/m² -1,1 °C -6,2 °C 19,3 km/h (3 Bft)
31.12.2024 19:48 22,8 °C 0,2 °C 57 % 90 % 1023,6 hPa 0,0 l/m² 13,9 km/h (3 Bft) SW 220 ° 0 min 0 W/m² -1,2 °C -6,1 °C 16,1 km/h (3 Bft)
31.12.2024 19:50 22,8 °C 0,2 °C 57 % 90 % 1023,6 hPa 0,0 l/m² 13,3 km/h (3 Bft) S-SW 212 ° 0 min 0 W/m² -1,2 °C -5,7 °C 17,7 km/h (3 Bft)
31.12.2024 19:53 22,8 °C 0,2 °C 57 % 90 % 1023,5 hPa 0,0 l/m² 12,5 km/h (2 Bft) S-SW 211 ° 0 min 0 W/m² -1,2 °C -5,1 °C 17,7 km/h (3 Bft)
31.12.2024 19:55 22,8 °C 0,2 °C 57 % 90 % 1023,5 hPa 0,0 l/m² 10,9 km/h (2 Bft) SW 214 ° 0 min 0 W/m² -1,2 °C -3,9 °C 12,9 km/h (3 Bft)
31.12.2024 19:57 22,8 °C 0,1 °C 57 % 90 % 1023,5 hPa 0,0 l/m² 10,0 km/h (2 Bft) SW 217 ° 0 min 0 W/m² -1,3 °C -3,3 °C 12,9 km/h (3 Bft)
31.12.2024 19:59 22,8 °C 0,1 °C 57 % 90 % 1023,5 hPa 0,0 l/m² 12,6 km/h (3 Bft) SW 215 ° 0 min 0 W/m² -1,3 °C -5,3 °C 16,1 km/h (3 Bft)
31.12.2024 20:00 22,9 °C 0,1 °C 57 % 90 % 1023,5 hPa 0,0 l/m² 11,5 km/h (2 Bft) SW 217 ° 0 min 0 W/m² -1,3 °C -4,5 °C 14,5 km/h (3 Bft)
31.12.2024 20:01 22,8 °C 0,1 °C 57 % 90 % 1023,5 hPa 0,0 l/m² 11,7 km/h (2 Bft) SW 215 ° 0 min 0 W/m² -1,3 °C -4,7 °C 12,9 km/h (3 Bft)
31.12.2024 20:02 22,8 °C 0,1 °C 57 % 90 % 1023,5 hPa 0,0 l/m² 11,0 km/h (2 Bft) S-SW 210 ° 0 min 0 W/m² -1,3 °C -4,1 °C 12,9 km/h (3 Bft)
31.12.2024 20:04 22,8 °C 0,0 °C 57 % 90 % 1023,4 hPa 0,0 l/m² 12,3 km/h (2 Bft) S-SW 208 ° 0 min 0 W/m² -1,4 °C -5,2 °C 16,1 km/h (3 Bft)
31.12.2024 20:06 22,8 °C -0,1 °C 57 % 90 % 1023,5 hPa 0,0 l/m² 13,2 km/h (3 Bft) S-SW 206 ° 0 min 0 W/m² -1,5 °C -6,0 °C 17,7 km/h (3 Bft)
31.12.2024 20:08 22,8 °C 0,0 °C 57 % 90 % 1023,4 hPa 0,0 l/m² 13,4 km/h (3 Bft) S-SW 211 ° 0 min 0 W/m² -1,4 °C -6,0 °C 17,7 km/h (3 Bft)
31.12.2024 20:10 22,8 °C -0,1 °C 56 % 90 % 1023,5 hPa 0,0 l/m² 12,8 km/h (3 Bft) S-SW 198 ° 0 min 0 W/m² -1,5 °C -5,7 °C 16,1 km/h (3 Bft)
31.12.2024 20:12 22,8 °C 0,0 °C 56 % 90 % 1023,3 hPa 0,0 l/m² 14,4 km/h (3 Bft) S-SW 206 ° 0 min 0 W/m² -1,4 °C -6,6 °C 19,3 km/h (3 Bft)
31.12.2024 20:14 22,8 °C 0,0 °C 56 % 90 % 1023,3 hPa 0,0 l/m² 14,0 km/h (3 Bft) S-SW 211 ° 0 min 0 W/m² -1,4 °C -6,4 °C 17,7 km/h (3 Bft)
31.12.2024 20:16 22,8 °C 0,1 °C 56 % 90 % 1023,4 hPa 0,0 l/m² 14,0 km/h (3 Bft) S-SW 210 ° 0 min 0 W/m² -1,3 °C -6,2 °C 16,1 km/h (3 Bft)
31.12.2024 20:18 22,7 °C 0,1 °C 56 % 90 % 1023,3 hPa 0,0 l/m² 13,2 km/h (3 Bft) S-SW 207 ° 0 min 0 W/m² -1,3 °C -5,7 °C 16,1 km/h (3 Bft)
31.12.2024 20:20 22,7 °C 0,1 °C 55 % 90 % 1023,4 hPa 0,0 l/m² 12,3 km/h (2 Bft) S-SW 208 ° 0 min 0 W/m² -1,3 °C -5,1 °C 14,5 km/h (3 Bft)
31.12.2024 20:21 22,7 °C 0,0 °C 55 % 90 % 1023,4 hPa 0,0 l/m² 11,5 km/h (2 Bft) S-SW 208 ° 0 min 0 W/m² -1,4 °C -4,6 °C 12,9 km/h (3 Bft)
31.12.2024 20:22 22,7 °C -0,1 °C 55 % 90 % 1023,4 hPa 0,0 l/m² 12,2 km/h (2 Bft) S-SW 206 ° 0 min 0 W/m² -1,5 °C -5,3 °C 14,5 km/h (3 Bft)
31.12.2024 20:24 22,7 °C -0,1 °C 55 % 90 % 1023,3 hPa 0,0 l/m² 13,1 km/h (3 Bft) S-SW 210 ° 0 min 0 W/m² -1,5 °C -5,9 °C 17,7 km/h (3 Bft)
31.12.2024 20:26 22,7 °C -0,1 °C 55 % 90 % 1023,4 hPa 0,0 l/m² 13,6 km/h (3 Bft) SW 225 ° 0 min 0 W/m² -1,5 °C -6,2 °C 16,1 km/h (3 Bft)
31.12.2024 20:28 22,7 °C -0,1 °C 55 % 90 % 1023,5 hPa 0,0 l/m² 12,8 km/h (3 Bft) SW 222 ° 0 min 0 W/m² -1,5 °C -5,7 °C 16,1 km/h (3 Bft)
31.12.2024 20:30 22,7 °C -0,1 °C 55 % 90 % 1023,6 hPa 0,0 l/m² 12,8 km/h (3 Bft) SW 217 ° 0 min 0 W/m² -1,5 °C -5,7 °C 16,1 km/h (3 Bft)
31.12.2024 20:31 22,7 °C -0,1 °C 55 % 90 % 1023,4 hPa 0,0 l/m² 11,3 km/h (2 Bft) SW 215 ° 0 min 0 W/m² -1,5 °C -4,6 °C 14,5 km/h (3 Bft)
31.12.2024 20:32 22,7 °C -0,2 °C 55 % 90 % 1023,4 hPa 0,0 l/m² 11,0 km/h (2 Bft) SW 215 ° 0 min 0 W/m² -1,6 °C -4,5 °C 12,9 km/h (3 Bft)
31.12.2024 20:34 22,7 °C -0,2 °C 55 % 90 % 1023,5 hPa 0,0 l/m² 12,4 km/h (2 Bft) SW 215 ° 0 min 0 W/m² -1,6 °C -5,5 °C 16,1 km/h (3 Bft)
31.12.2024 20:36 22,7 °C -0,2 °C 55 % 90 % 1023,5 hPa 0,0 l/m² 12,6 km/h (3 Bft) S-SW 202 ° 0 min 0 W/m² -1,6 °C -5,7 °C 19,3 km/h (3 Bft)
31.12.2024 20:38 22,6 °C -0,2 °C 55 % 90 % 1023,4 hPa 0,0 l/m² 14,7 km/h (3 Bft) S-SW 201 ° 0 min 0 W/m² -1,6 °C -7,0 °C 20,9 km/h (4 Bft)
31.12.2024 20:40 22,6 °C -0,2 °C 55 % 90 % 1023,5 hPa 0,0 l/m² 13,5 km/h (3 Bft) S-SW 209 ° 0 min 0 W/m² -1,6 °C -6,3 °C 16,1 km/h (3 Bft)
31.12.2024 20:41 22,6 °C -0,2 °C 55 % 90 % 1023,7 hPa 0,0 l/m² 13,4 km/h (3 Bft) S-SW 211 ° 0 min 0 W/m² -1,6 °C -6,2 °C 16,1 km/h (3 Bft)
31.12.2024 20:42 22,6 °C -0,2 °C 55 % 90 % 1023,7 hPa 0,0 l/m² 13,6 km/h (3 Bft) SW 223 ° 0 min 0 W/m² -1,6 °C -6,3 °C 16,1 km/h (3 Bft)
31.12.2024 20:44 22,6 °C -0,2 °C 55 % 90 % 1023,7 hPa 0,0 l/m² 12,2 km/h (2 Bft) SW 231 ° 0 min 0 W/m² -1,6 °C -5,4 °C 16,1 km/h (3 Bft)
31.12.2024 20:46 22,6 °C -0,2 °C 55 % 90 % 1023,6 hPa 0,0 l/m² 14,7 km/h (3 Bft) S-SW 211 ° 0 min 0 W/m² -1,6 °C -7,0 °C 19,3 km/h (3 Bft)
31.12.2024 20:48 22,6 °C -0,2 °C 55 % 90 % 1023,6 hPa 0,0 l/m² 16,1 km/h (3 Bft) S-SW 199 ° 0 min 0 W/m² -1,6 °C -7,9 °C 20,9 km/h (4 Bft)
31.12.2024 20:50 22,6 °C -0,2 °C 55 % 90 % 1023,6 hPa 0,0 l/m² 15,6 km/h (3 Bft) S-SW 213 ° 0 min 0 W/m² -1,6 °C -7,6 °C 19,3 km/h (3 Bft)
31.12.2024 20:51 22,6 °C -0,2 °C 55 % 90 % 1023,5 hPa 0,0 l/m² 12,6 km/h (3 Bft) S-SW 213 ° 0 min 0 W/m² -1,6 °C -5,7 °C 16,1 km/h (3 Bft)
31.12.2024 20:52 22,6 °C -0,2 °C 55 % 90 % 1023,5 hPa 0,0 l/m² 15,4 km/h (3 Bft) SW 214 ° 0 min 0 W/m² -1,6 °C -7,5 °C 17,7 km/h (3 Bft)
31.12.2024 20:54 22,6 °C -0,2 °C 55 % 90 % 1023,7 hPa 0,0 l/m² 11,4 km/h (2 Bft) SW 226 ° 0 min 0 W/m² -1,6 °C -4,8 °C 16,1 km/h (3 Bft)
31.12.2024 20:56 22,6 °C -0,2 °C 55 % 90 % 1023,8 hPa 0,0 l/m² 11,2 km/h (2 Bft) SW 222 ° 0 min 0 W/m² -1,6 °C -4,6 °C 14,5 km/h (3 Bft)
31.12.2024 20:58 22,6 °C -0,3 °C 55 % 90 % 1023,8 hPa 0,0 l/m² 10,4 km/h (2 Bft) SW 226 ° 0 min 0 W/m² -1,7 °C -4,1 °C 16,1 km/h (3 Bft)
31.12.2024 21:00 22,6 °C -0,3 °C 55 % 90 % 1023,9 hPa 0,0 l/m² 9,8 km/h (2 Bft) W-SW 253 ° 0 min 0 W/m² -1,7 °C -3,6 °C 14,5 km/h (3 Bft)
31.12.2024 21:01 22,6 °C -0,3 °C 55 % 90 % 1023,9 hPa 0,0 l/m² 8,1 km/h (2 Bft) SW 234 ° 0 min 0 W/m² -1,7 °C -2,1 °C 11,3 km/h (2 Bft)
31.12.2024 21:02 22,6 °C -0,3 °C 55 % 90 % 1023,9 hPa 0,0 l/m² 7,7 km/h (2 Bft) W-SW 238 ° 0 min 0 W/m² -1,7 °C -1,7 °C 12,9 km/h (3 Bft)
31.12.2024 21:04 22,7 °C -0,3 °C 55 % 90 % 1023,9 hPa 0,0 l/m² 12,7 km/h (3 Bft) W-SW 243 ° 0 min 0 W/m² -1,7 °C -5,8 °C 16,1 km/h (3 Bft)
31.12.2024 21:06 22,6 °C -0,3 °C 55 % 90 % 1023,9 hPa 0,0 l/m² 11,2 km/h (2 Bft) W-SW 240 ° 0 min 0 W/m² -1,7 °C -4,7 °C 14,5 km/h (3 Bft)
31.12.2024 21:08 22,7 °C -0,3 °C 55 % 90 % 1023,9 hPa 0,0 l/m² 13,5 km/h (3 Bft) W-SW 249 ° 0 min 0 W/m² -1,7 °C -6,4 °C 16,1 km/h (3 Bft)
31.12.2024 21:10 22,7 °C -0,3 °C 56 % 90 % 1024,0 hPa 0,0 l/m² 13,3 km/h (3 Bft) W-SW 247 ° 0 min 0 W/m² -1,7 °C -6,3 °C 17,7 km/h (3 Bft)
31.12.2024 21:11 22,7 °C -0,4 °C 56 % 90 % 1024,0 hPa 0,0 l/m² 13,2 km/h (3 Bft) W-SW 254 ° 0 min 0 W/m² -1,8 °C -6,3 °C 16,1 km/h (3 Bft)
31.12.2024 21:12 22,7 °C -0,4 °C 56 % 90 % 1024,0 hPa 0,0 l/m² 11,4 km/h (2 Bft) W 259 ° 0 min 0 W/m² -1,8 °C -5,0 °C 14,5 km/h (3 Bft)
31.12.2024 21:13 22,7 °C -0,3 °C 56 % 90 % 1024,0 hPa 0,0 l/m² 11,6 km/h (2 Bft) W-SW 254 ° 0 min 0 W/m² -1,7 °C -5,1 °C 12,9 km/h (3 Bft)
31.12.2024 21:15 22,7 °C -0,3 °C 56 % 90 % 1024,0 hPa 0,0 l/m² 12,8 km/h (3 Bft) W-SW 257 ° 0 min 0 W/m² -1,7 °C -5,9 °C 16,1 km/h (3 Bft)
31.12.2024 21:17 22,7 °C -0,3 °C 56 % 90 % 1023,9 hPa 0,0 l/m² 13,5 km/h (3 Bft) W-SW 250 ° 0 min 0 W/m² -1,7 °C -6,4 °C 16,1 km/h (3 Bft)
31.12.2024 21:19 22,7 °C -0,3 °C 56 % 90 % 1023,9 hPa 0,0 l/m² 11,1 km/h (2 Bft) W-SW 248 ° 0 min 0 W/m² -1,7 °C -4,7 °C 14,5 km/h (3 Bft)
31.12.2024 21:20 22,7 °C -0,3 °C 56 % 90 % 1023,9 hPa 0,0 l/m² 12,1 km/h (2 Bft) W-SW 248 ° 0 min 0 W/m² -1,7 °C -5,4 °C 14,5 km/h (3 Bft)
31.12.2024 21:21 22,7 °C -0,3 °C 56 % 90 % 1023,9 hPa 0,0 l/m² 11,7 km/h (2 Bft) W-SW 246 ° 0 min 0 W/m² -1,7 °C -5,1 °C 14,5 km/h (3 Bft)
31.12.2024 21:23 22,7 °C -0,3 °C 56 % 90 % 1023,7 hPa 0,0 l/m² 11,0 km/h (2 Bft) SW 234 ° 0 min 0 W/m² -1,7 °C -4,6 °C 14,5 km/h (3 Bft)
31.12.2024 21:25 22,7 °C -0,3 °C 56 % 90 % 1023,8 hPa 0,0 l/m² 10,7 km/h (2 Bft) SW 234 ° 0 min 0 W/m² -1,7 °C -4,4 °C 14,5 km/h (3 Bft)
31.12.2024 21:26 22,8 °C -0,3 °C 56 % 90 % 1023,7 hPa 0,0 l/m² 10,3 km/h (2 Bft) SW 225 ° 0 min 0 W/m² -1,7 °C -4,0 °C 14,5 km/h (3 Bft)
31.12.2024 21:27 22,8 °C -0,3 °C 56 % 90 % 1023,7 hPa 0,0 l/m² 11,0 km/h (2 Bft) SW 233 ° 0 min 0 W/m² -1,7 °C -4,6 °C 14,5 km/h (3 Bft)
31.12.2024 21:29 22,8 °C -0,3 °C 56 % 90 % 1023,7 hPa 0,0 l/m² 11,5 km/h (2 Bft) W-SW 243 ° 0 min 0 W/m² -1,7 °C -5,0 °C 16,1 km/h (3 Bft)
31.12.2024 21:30 22,8 °C -0,3 °C 56 % 90 % 1023,6 hPa 0,0 l/m² 15,8 km/h (3 Bft) SW 229 ° 0 min 0 W/m² -1,7 °C -7,8 °C 20,9 km/h (4 Bft)
31.12.2024 21:31 22,8 °C -0,3 °C 56 % 90 % 1023,6 hPa 0,0 l/m² 13,6 km/h (3 Bft) SW 226 ° 0 min 0 W/m² -1,7 °C -6,5 °C 19,3 km/h (3 Bft)
31.12.2024 21:33 22,8 °C -0,3 °C 56 % 90 % 1023,5 hPa 0,0 l/m² 13,9 km/h (3 Bft) SW 236 ° 0 min 0 W/m² -1,7 °C -6,7 °C 19,3 km/h (3 Bft)
31.12.2024 21:35 22,8 °C -0,3 °C 56 % 90 % 1023,4 hPa 0,0 l/m² 16,7 km/h (3 Bft) W-SW 246 ° 0 min 0 W/m² -1,7 °C -8,3 °C 24,1 km/h (4 Bft)
31.12.2024 21:37 22,8 °C -0,2 °C 56 % 90 % 1023,3 hPa 0,0 l/m² 19,8 km/h (3 Bft) SW 236 ° 0 min 0 W/m² -1,6 °C -9,8 °C 29,0 km/h (5 Bft)
31.12.2024 21:39 22,8 °C -0,1 °C 56 % 90 % 1023,4 hPa 0,0 l/m² 21,8 km/h (4 Bft) S-SW 209 ° 0 min 0 W/m² -1,5 °C -10,6 °C 35,4 km/h (5 Bft)
31.12.2024 21:40 22,8 °C -0,1 °C 56 % 90 % 1023,4 hPa 0,0 l/m² 26,6 km/h (4 Bft) S-SW 205 ° 0 min 0 W/m² -1,5 °C -12,4 °C 35,4 km/h (5 Bft)
31.12.2024 21:41 22,8 °C 0,0 °C 56 % 90 % 1023,4 hPa 0,0 l/m² 25,8 km/h (4 Bft) SW 215 ° 0 min 0 W/m² -1,4 °C -12,0 °C 30,6 km/h (5 Bft)
31.12.2024 21:43 22,8 °C 0,1 °C 56 % 90 % 1023,4 hPa 0,0 l/m² 26,4 km/h (4 Bft) SW 219 ° 0 min 0 W/m² -1,3 °C -12,1 °C 35,4 km/h (5 Bft)
31.12.2024 21:45 22,9 °C 0,3 °C 56 % 90 % 1023,5 hPa 0,0 l/m² 23,1 km/h (4 Bft) SW 218 ° 0 min 0 W/m² -1,1 °C -10,6 °C 33,8 km/h (5 Bft)
31.12.2024 21:46 22,9 °C 0,3 °C 56 % 90 % 1023,4 hPa 0,0 l/m² 17,7 km/h (3 Bft) SW 215 ° 0 min 0 W/m² -1,1 °C -8,1 °C 29,0 km/h (5 Bft)
31.12.2024 21:47 22,8 °C 0,3 °C 56 % 90 % 1023,4 hPa 0,0 l/m² 22,9 km/h (4 Bft) SW 223 ° 0 min 0 W/m² -1,1 °C -10,5 °C 32,2 km/h (5 Bft)
31.12.2024 21:48 22,8 °C 0,4 °C 56 % 90 % 1023,4 hPa 0,0 l/m² 25,2 km/h (4 Bft) SW 225 ° 0 min 0 W/m² -1,0 °C -11,3 °C 32,2 km/h (5 Bft)
31.12.2024 21:49 22,9 °C 0,4 °C 56 % 90 % 1023,4 hPa 0,0 l/m² 23,9 km/h (4 Bft) SW 232 ° 0 min 0 W/m² -1,0 °C -10,8 °C 29,0 km/h (5 Bft)
31.12.2024 21:51 22,9 °C 0,4 °C 56 % 90 % 1023,4 hPa 0,0 l/m² 21,0 km/h (4 Bft) SW 231 ° 0 min 0 W/m² -1,0 °C -9,6 °C 30,6 km/h (5 Bft)
31.12.2024 21:53 22,9 °C 0,5 °C 56 % 89 % 1023,5 hPa 0,0 l/m² 20,5 km/h (4 Bft) SW 232 ° 0 min 0 W/m² -1,1 °C -9,2 °C 27,4 km/h (5 Bft)
31.12.2024 21:55 22,9 °C 0,6 °C 56 % 89 % 1023,5 hPa 0,0 l/m² 16,6 km/h (3 Bft) SW 227 ° 0 min 0 W/m² -1,0 °C -7,2 °C 20,9 km/h (4 Bft)
31.12.2024 21:57 22,9 °C 0,6 °C 56 % 89 % 1023,5 hPa 0,0 l/m² 17,7 km/h (3 Bft) SW 225 ° 0 min 0 W/m² -1,0 °C -7,7 °C 25,7 km/h (4 Bft)
31.12.2024 21:59 22,9 °C 0,7 °C 56 % 89 % 1023,4 hPa 0,0 l/m² 17,1 km/h (3 Bft) SW 229 ° 0 min 0 W/m² -0,9 °C -7,3 °C 25,7 km/h (4 Bft)
31.12.2024 22:00 22,9 °C 0,7 °C 56 % 89 % 1023,5 hPa 0,0 l/m² 18,2 km/h (3 Bft) SW 215 ° 0 min 0 W/m² -0,9 °C -7,9 °C 24,1 km/h (4 Bft)
31.12.2024 22:01 22,9 °C 0,7 °C 56 % 89 % 1023,5 hPa 0,0 l/m² 17,3 km/h (3 Bft) SW 234 ° 0 min 0 W/m² -0,9 °C -7,4 °C 20,9 km/h (4 Bft)
31.12.2024 22:03 22,9 °C 0,7 °C 56 % 89 % 1023,5 hPa 0,0 l/m² 18,8 km/h (3 Bft) SW 225 ° 0 min 0 W/m² -0,9 °C -8,2 °C 22,5 km/h (4 Bft)
31.12.2024 22:05 22,9 °C 0,7 °C 56 % 89 % 1023,4 hPa 0,0 l/m² 18,6 km/h (3 Bft) S-SW 209 ° 0 min 0 W/m² -0,9 °C -8,1 °C 25,7 km/h (4 Bft)
31.12.2024 22:06 22,9 °C 0,7 °C 56 % 89 % 1023,4 hPa 0,0 l/m² 19,1 km/h (3 Bft) SW 227 ° 0 min 0 W/m² -0,9 °C -8,3 °C 27,4 km/h (5 Bft)
31.12.2024 22:07 22,9 °C 0,7 °C 56 % 89 % 1023,3 hPa 0,0 l/m² 19,6 km/h (3 Bft) SW 217 ° 0 min 0 W/m² -0,9 °C -8,5 °C 24,1 km/h (4 Bft)
31.12.2024 22:08 22,9 °C 0,8 °C 56 % 89 % 1023,3 hPa 0,0 l/m² 18,2 km/h (3 Bft) S-SW 209 ° 0 min 0 W/m² -0,8 °C -7,7 °C 24,1 km/h (4 Bft)
31.12.2024 22:10 22,9 °C 0,8 °C 56 % 89 % 1023,4 hPa 0,0 l/m² 21,4 km/h (4 Bft) SW 229 ° 0 min 0 W/m² -0,8 °C -9,2 °C 27,4 km/h (5 Bft)
31.12.2024 22:11 22,9 °C 0,8 °C 56 % 88 % 1023,5 hPa 0,0 l/m² 19,0 km/h (3 Bft) SW 217 ° 0 min 0 W/m² -1,0 °C -8,1 °C 29,0 km/h (5 Bft)
31.12.2024 22:12 22,9 °C 0,8 °C 56 % 88 % 1023,5 hPa 0,0 l/m² 20,7 km/h (4 Bft) SW 227 ° 0 min 0 W/m² -1,0 °C -8,9 °C 24,1 km/h (4 Bft)
31.12.2024 22:13 22,9 °C 0,8 °C 56 % 88 % 1023,5 hPa 0,0 l/m² 19,9 km/h (4 Bft) SW 219 ° 0 min 0 W/m² -1,0 °C -8,6 °C 25,7 km/h (4 Bft)
31.12.2024 22:15 22,9 °C 0,8 °C 56 % 88 % 1023,6 hPa 0,0 l/m² 22,1 km/h (4 Bft) SW 217 ° 0 min 0 W/m² -1,0 °C -9,5 °C 27,4 km/h (5 Bft)
31.12.2024 22:16 22,9 °C 0,8 °C 56 % 88 % 1023,6 hPa 0,0 l/m² 16,9 km/h (3 Bft) SW 215 ° 0 min 0 W/m² -1,0 °C -7,1 °C 24,1 km/h (4 Bft)
31.12.2024 22:17 22,9 °C 0,8 °C 56 % 88 % 1023,6 hPa 0,0 l/m² 14,6 km/h (3 Bft) S-SW 202 ° 0 min 0 W/m² -1,0 °C -5,8 °C 20,9 km/h (4 Bft)
31.12.2024 22:19 22,9 °C 0,8 °C 57 % 88 % 1023,5 hPa 0,0 l/m² 19,6 km/h (3 Bft) SW 220 ° 0 min 0 W/m² -1,0 °C -8,4 °C 25,7 km/h (4 Bft)
31.12.2024 22:20 22,9 °C 0,8 °C 56 % 88 % 1023,6 hPa 0,0 l/m² 16,9 km/h (3 Bft) S-SW 204 ° 0 min 0 W/m² -1,0 °C -7,1 °C 19,3 km/h (3 Bft)
31.12.2024 22:21 22,9 °C 0,9 °C 56 % 88 % 1023,6 hPa 0,0 l/m² 18,1 km/h (3 Bft) SW 218 ° 0 min 0 W/m² -0,9 °C -7,6 °C 22,5 km/h (4 Bft)
31.12.2024 22:23 22,9 °C 0,8 °C 56 % 88 % 1023,4 hPa 0,0 l/m² 19,6 km/h (3 Bft) SW 223 ° 0 min 0 W/m² -1,0 °C -8,4 °C 24,1 km/h (4 Bft)
31.12.2024 22:24 22,9 °C 0,8 °C 56 % 88 % 1023,4 hPa 0,0 l/m² 17,1 km/h (3 Bft) S-SW 200 ° 0 min 0 W/m² -1,0 °C -7,2 °C 19,3 km/h (3 Bft)
31.12.2024 22:25 22,9 °C 0,8 °C 56 % 88 % 1023,4 hPa 0,0 l/m² 18,7 km/h (3 Bft) S-SW 206 ° 0 min 0 W/m² -1,0 °C -8,0 °C 22,5 km/h (4 Bft)
31.12.2024 22:27 22,9 °C 0,9 °C 56 % 88 % 1023,3 hPa 0,0 l/m² 18,2 km/h (3 Bft) S-SW 205 ° 0 min 0 W/m² -0,9 °C -7,6 °C 25,7 km/h (4 Bft)
31.12.2024 22:28 22,9 °C 0,9 °C 56 % 88 % 1023,4 hPa 0,0 l/m² 16,1 km/h (3 Bft) S-SW 196 ° 0 min 0 W/m² -0,9 °C -6,5 °C 19,3 km/h (3 Bft)
31.12.2024 22:29 22,9 °C 0,9 °C 56 % 88 % 1023,4 hPa 0,0 l/m² 14,0 km/h (3 Bft) SW 217 ° 0 min 0 W/m² -0,9 °C -5,3 °C 17,7 km/h (3 Bft)
31.12.2024 22:31 22,9 °C 0,9 °C 56 % 88 % 1023,5 hPa 0,0 l/m² 17,3 km/h (3 Bft) SW 221 ° 0 min 0 W/m² -0,9 °C -7,2 °C 20,9 km/h (4 Bft)
31.12.2024 22:32 22,9 °C 0,9 °C 56 % 87 % 1023,5 hPa 0,0 l/m² 13,6 km/h (3 Bft) SW 216 ° 0 min 0 W/m² -1,0 °C -5,0 °C 17,7 km/h (3 Bft)
31.12.2024 22:33 22,9 °C 0,9 °C 56 % 88 % 1023,5 hPa 0,0 l/m² 16,5 km/h (3 Bft) S-SW 212 ° 0 min 0 W/m² -0,9 °C -6,7 °C 20,9 km/h (4 Bft)
31.12.2024 22:35 22,8 °C 0,9 °C 56 % 87 % 1023,4 hPa 0,0 l/m² 14,5 km/h (3 Bft) S 191 ° 0 min 0 W/m² -1,0 °C -5,6 °C 19,3 km/h (3 Bft)
31.12.2024 22:36 22,9 °C 0,9 °C 56 % 87 % 1023,4 hPa 0,0 l/m² 14,3 km/h (3 Bft) S-SW 209 ° 0 min 0 W/m² -1,0 °C -5,5 °C 17,7 km/h (3 Bft)
31.12.2024 22:37 22,9 °C 0,9 °C 56 % 87 % 1023,4 hPa 0,0 l/m² 12,4 km/h (2 Bft) S-SW 209 ° 0 min 0 W/m² -1,0 °C -4,2 °C 16,1 km/h (3 Bft)
31.12.2024 22:39 22,8 °C 0,9 °C 56 % 87 % 1023,5 hPa 0,0 l/m² 13,8 km/h (3 Bft) S-SW 209 ° 0 min 0 W/m² -1,0 °C -5,2 °C 19,3 km/h (3 Bft)
31.12.2024 22:40 22,8 °C 0,9 °C 56 % 87 % 1023,4 hPa 0,0 l/m² 13,5 km/h (3 Bft) S 191 ° 0 min 0 W/m² -1,0 °C -5,0 °C 16,1 km/h (3 Bft)
31.12.2024 22:41 22,8 °C 0,9 °C 56 % 87 % 1023,4 hPa 0,0 l/m² 13,8 km/h (3 Bft) S-SW 209 ° 0 min 0 W/m² -1,0 °C -5,2 °C 16,1 km/h (3 Bft)
31.12.2024 22:43 22,9 °C 0,9 °C 56 % 87 % 1023,4 hPa 0,0 l/m² 14,6 km/h (3 Bft) S-SW 200 ° 0 min 0 W/m² -1,0 °C -5,7 °C 19,3 km/h (3 Bft)
31.12.2024 22:44 22,8 °C 0,9 °C 56 % 87 % 1023,5 hPa 0,0 l/m² 15,0 km/h (3 Bft) S-SW 198 ° 0 min 0 W/m² -1,0 °C -5,9 °C 19,3 km/h (3 Bft)
31.12.2024 22:45 22,8 °C 0,9 °C 56 % 87 % 1023,5 hPa 0,0 l/m² 15,1 km/h (3 Bft) S-SW 202 ° 0 min 0 W/m² -1,0 °C -5,9 °C 17,7 km/h (3 Bft)
31.12.2024 22:47 22,8 °C 0,9 °C 56 % 87 % 1023,3 hPa 0,0 l/m² 14,0 km/h (3 Bft) S-SW 202 ° 0 min 0 W/m² -1,0 °C -5,3 °C 17,7 km/h (3 Bft)
31.12.2024 22:48 22,8 °C 1,0 °C 56 % 87 % 1023,4 hPa 0,0 l/m² 12,1 km/h (2 Bft) S-SW 194 ° 0 min 0 W/m² -0,9 °C -3,9 °C 14,5 km/h (3 Bft)
31.12.2024 22:49 22,8 °C 1,0 °C 56 % 87 % 1023,4 hPa 0,0 l/m² 12,6 km/h (3 Bft) S-SW 192 ° 0 min 0 W/m² -0,9 °C -4,3 °C 16,1 km/h (3 Bft)
31.12.2024 22:51 22,9 °C 1,0 °C 56 % 87 % 1023,1 hPa 0,0 l/m² 16,9 km/h (3 Bft) S-SW 194 ° 0 min 0 W/m² -0,9 °C -6,8 °C 24,1 km/h (4 Bft)
31.12.2024 22:52 22,9 °C 1,0 °C 56 % 87 % 1023,2 hPa 0,0 l/m² 13,8 km/h (3 Bft) S-SW 201 ° 0 min 0 W/m² -0,9 °C -5,0 °C 16,1 km/h (3 Bft)
31.12.2024 22:53 22,9 °C 1,0 °C 56 % 87 % 1023,2 hPa 0,0 l/m² 15,3 km/h (3 Bft) S 183 ° 0 min 0 W/m² -0,9 °C -5,9 °C 17,7 km/h (3 Bft)
31.12.2024 22:55 22,9 °C 1,1 °C 56 % 87 % 1023,1 hPa 0,0 l/m² 14,5 km/h (3 Bft) S-SW 193 ° 0 min 0 W/m² -0,8 °C -5,4 °C 19,3 km/h (3 Bft)
31.12.2024 22:56 22,9 °C 1,1 °C 56 % 87 % 1023,0 hPa 0,0 l/m² 13,0 km/h (3 Bft) S 183 ° 0 min 0 W/m² -0,8 °C -4,4 °C 16,1 km/h (3 Bft)
31.12.2024 22:57 22,9 °C 1,0 °C 56 % 87 % 1023,0 hPa 0,0 l/m² 11,9 km/h (2 Bft) S-SW 194 ° 0 min 0 W/m² -0,9 °C -3,8 °C 14,5 km/h (3 Bft)
31.12.2024 22:59 22,9 °C 1,1 °C 57 % 87 % 1023,1 hPa 0,0 l/m² 13,6 km/h (3 Bft) S-SW 205 ° 0 min 0 W/m² -0,8 °C -4,8 °C 19,3 km/h (3 Bft)
31.12.2024 23:00 22,9 °C 1,1 °C 57 % 86 % 1023,1 hPa 0,0 l/m² 11,7 km/h (2 Bft) S 183 ° 0 min 0 W/m² -1,0 °C -3,5 °C 14,5 km/h (3 Bft)
31.12.2024 23:01 22,9 °C 1,1 °C 57 % 86 % 1023,1 hPa 0,0 l/m² 13,7 km/h (3 Bft) S-SW 201 ° 0 min 0 W/m² -1,0 °C -4,9 °C 16,1 km/h (3 Bft)
31.12.2024 23:03 22,9 °C 1,1 °C 57 % 87 % 1023,1 hPa 0,0 l/m² 11,6 km/h (2 Bft) S 187 ° 0 min 0 W/m² -0,8 °C -3,5 °C 14,5 km/h (3 Bft)
31.12.2024 23:04 22,9 °C 1,1 °C 57 % 87 % 1023,1 hPa 0,0 l/m² 9,5 km/h (2 Bft) S-SW 204 ° 0 min 0 W/m² -0,8 °C -1,8 °C 12,9 km/h (3 Bft)
31.12.2024 23:05 22,9 °C 1,1 °C 57 % 86 % 1023,1 hPa 0,0 l/m² 12,4 km/h (2 Bft) S-SW 192 ° 0 min 0 W/m² -1,0 °C -4,0 °C 14,5 km/h (3 Bft)
31.12.2024 23:07 22,9 °C 1,1 °C 57 % 86 % 1023,0 hPa 0,0 l/m² 9,6 km/h (2 Bft) S 178 ° 0 min 0 W/m² -1,0 °C -1,9 °C 12,9 km/h (3 Bft)
31.12.2024 23:08 22,9 °C 1,1 °C 57 % 86 % 1023,0 hPa 0,0 l/m² 7,8 km/h (2 Bft) S-SO 162 ° 0 min 0 W/m² -1,0 °C -0,3 °C 11,3 km/h (2 Bft)
31.12.2024 23:09 22,9 °C 1,1 °C 57 % 86 % 1023,0 hPa 0,0 l/m² 9,5 km/h (2 Bft) S 173 ° 0 min 0 W/m² -1,0 °C -1,8 °C 16,1 km/h (3 Bft)
31.12.2024 23:11 22,9 °C 1,1 °C 57 % 86 % 1023,1 hPa 0,0 l/m² 9,6 km/h (2 Bft) S 175 ° 0 min 0 W/m² -1,0 °C -1,9 °C 14,5 km/h (3 Bft)
31.12.2024 23:12 22,9 °C 1,0 °C 57 % 86 % 1023,1 hPa 0,0 l/m² 10,7 km/h (2 Bft) S-SO 165 ° 0 min 0 W/m² -1,1 °C -2,9 °C 14,5 km/h (3 Bft)
31.12.2024 23:13 22,9 °C 1,0 °C 57 % 86 % 1023,1 hPa 0,0 l/m² 12,6 km/h (3 Bft) S 179 ° 0 min 0 W/m² -1,1 °C -4,3 °C 16,1 km/h (3 Bft)
31.12.2024 23:14 22,9 °C 1,0 °C 57 % 86 % 1023,1 hPa 0,0 l/m² 11,3 km/h (2 Bft) S 180 ° 0 min 0 W/m² -1,1 °C -3,3 °C 14,5 km/h (3 Bft)
31.12.2024 23:15 22,9 °C 1,0 °C 57 % 86 % 1023,0 hPa 0,0 l/m² 11,3 km/h (2 Bft) S-SO 157 ° 0 min 0 W/m² -1,1 °C -3,3 °C 12,9 km/h (3 Bft)
31.12.2024 23:16 22,9 °C 0,9 °C 57 % 86 % 1023,0 hPa 0,0 l/m² 11,3 km/h (2 Bft) S 180 ° 0 min 0 W/m² -1,2 °C -3,5 °C 16,1 km/h (3 Bft)
31.12.2024 23:17 22,9 °C 0,9 °C 57 % 86 % 1023,0 hPa 0,0 l/m² 11,3 km/h (2 Bft) S 180 ° 0 min 0 W/m² -1,2 °C -3,5 °C 14,5 km/h (3 Bft)
31.12.2024 23:18 22,9 °C 0,9 °C 57 % 86 % 1023,0 hPa 0,0 l/m² 12,9 km/h (3 Bft) S-SO 157 ° 0 min 0 W/m² -1,2 °C -4,6 °C 16,1 km/h (3 Bft)
31.12.2024 23:19 22,9 °C 0,9 °C 57 % 86 % 1022,9 hPa 0,0 l/m² 11,3 km/h (2 Bft) S 180 ° 0 min 0 W/m² -1,2 °C -3,5 °C 16,1 km/h (3 Bft)
31.12.2024 23:20 22,9 °C 0,9 °C 57 % 87 % 1022,9 hPa 0,0 l/m² 9,7 km/h (2 Bft) S 180 ° 0 min 0 W/m² -1,0 °C -2,2 °C 12,9 km/h (3 Bft)
31.12.2024 23:21 22,9 °C 0,9 °C 57 % 87 % 1022,9 hPa 0,0 l/m² 11,3 km/h (2 Bft) S 180 ° 0 min 0 W/m² -1,0 °C -3,5 °C 16,1 km/h (3 Bft)
31.12.2024 23:27 22,9 °C 0,8 °C 57 % 87 % 1023,0 hPa 0,0 l/m² 13,1 km/h (3 Bft) S 180 ° 0 min 0 W/m² -1,1 °C -4,8 °C 16,1 km/h (3 Bft)
31.12.2024 23:29 22,9 °C 0,8 °C 57 % 87 % 1023,0 hPa 0,0 l/m² 11,9 km/h (2 Bft) S-SW 196 ° 0 min 0 W/m² -1,1 °C -4,0 °C 16,1 km/h (3 Bft)
31.12.2024 23:30 22,9 °C 0,8 °C 57 % 87 % 1023,0 hPa 0,0 l/m² 10,1 km/h (2 Bft) S 190 ° 0 min 0 W/m² -1,1 °C -2,6 °C 12,9 km/h (3 Bft)
31.12.2024 23:32 22,9 °C 0,8 °C 57 % 87 % 1023,1 hPa 0,0 l/m² 12,8 km/h (3 Bft) S-SW 199 ° 0 min 0 W/m² -1,1 °C -4,6 °C 16,1 km/h (3 Bft)
31.12.2024 23:33 22,9 °C 0,8 °C 57 % 87 % 1023,1 hPa 0,0 l/m² 12,8 km/h (3 Bft) S-SW 200 ° 0 min 0 W/m² -1,1 °C -4,6 °C 16,1 km/h (3 Bft)
31.12.2024 23:35 22,9 °C 0,8 °C 57 % 87 % 1023,1 hPa 0,0 l/m² 11,2 km/h (2 Bft) S-SW 205 ° 0 min 0 W/m² -1,1 °C -3,5 °C 14,5 km/h (3 Bft)
31.12.2024 23:37 22,9 °C 0,8 °C 57 % 87 % 1023,0 hPa 0,0 l/m² 13,7 km/h (3 Bft) S-SW 196 ° 0 min 0 W/m² -1,1 °C -5,2 °C 19,3 km/h (3 Bft)
31.12.2024 23:39 22,9 °C 0,8 °C 57 % 87 % 1022,9 hPa 0,0 l/m² 14,7 km/h (3 Bft) S 188 ° 0 min 0 W/m² -1,1 °C -5,8 °C 20,9 km/h (4 Bft)
31.12.2024 23:40 22,9 °C 0,8 °C 57 % 87 % 1022,9 hPa 0,0 l/m² 13,6 km/h (3 Bft) S 176 ° 0 min 0 W/m² -1,1 °C -5,2 °C 16,1 km/h (3 Bft)
31.12.2024 23:41 22,9 °C 0,8 °C 57 % 87 % 1022,9 hPa 0,0 l/m² 15,4 km/h (3 Bft) S-SW 202 ° 0 min 0 W/m² -1,1 °C -6,2 °C 20,9 km/h (4 Bft)
31.12.2024 23:42 22,9 °C 0,8 °C 57 % 87 % 1022,9 hPa 0,0 l/m² 15,4 km/h (3 Bft) S-SW 205 ° 0 min 0 W/m² -1,1 °C -6,2 °C 19,3 km/h (3 Bft)
31.12.2024 23:44 22,9 °C 0,8 °C 57 % 87 % 1023,0 hPa 0,0 l/m² 14,6 km/h (3 Bft) S-SW 198 ° 0 min 0 W/m² -1,1 °C -5,8 °C 19,3 km/h (3 Bft)
31.12.2024 23:45 22,9 °C 0,8 °C 57 % 87 % 1022,9 hPa 0,0 l/m² 13,1 km/h (3 Bft) S 191 ° 0 min 0 W/m² -1,1 °C -4,8 °C 16,1 km/h (3 Bft)
31.12.2024 23:47 22,9 °C 0,8 °C 57 % 87 % 1022,8 hPa 0,0 l/m² 13,5 km/h (3 Bft) S-SW 205 ° 0 min 0 W/m² -1,1 °C -5,1 °C 19,3 km/h (3 Bft)
31.12.2024 23:49 22,9 °C 0,9 °C 57 % 87 % 1022,9 hPa 0,0 l/m² 12,9 km/h (3 Bft) S-SW 209 ° 0 min 0 W/m² -1,0 °C -4,6 °C 17,7 km/h (3 Bft)
31.12.2024 23:51 22,9 °C 0,8 °C 57 % 87 % 1022,9 hPa 0,0 l/m² 12,1 km/h (2 Bft) S-SW 194 ° 0 min 0 W/m² -1,1 °C -4,2 °C 14,5 km/h (3 Bft)
31.12.2024 23:52 22,9 °C 0,8 °C 57 % 87 % 1022,7 hPa 0,0 l/m² 15,2 km/h (3 Bft) S 181 ° 0 min 0 W/m² -1,1 °C -6,1 °C 17,7 km/h (3 Bft)
31.12.2024 23:53 22,9 °C 0,8 °C 57 % 87 % 1022,7 hPa 0,0 l/m² 11,4 km/h (2 Bft) S 186 ° 0 min 0 W/m² -1,1 °C -3,6 °C 14,5 km/h (3 Bft)
31.12.2024 23:56 22,9 °C 0,8 °C 57 % 87 % 1022,7 hPa 0,0 l/m² 12,4 km/h (2 Bft) S 173 ° 0 min 0 W/m² -1,1 °C -4,4 °C 17,7 km/h (3 Bft)
31.12.2024 23:58 22,9 °C 0,8 °C 58 % 87 % 1022,6 hPa 0,0 l/m² 10,2 km/h (2 Bft) S 173 ° 0 min 0 W/m² -1,1 °C -2,7 °C 14,5 km/h (3 Bft)
_ Min-Zeit 07:03 21:12 17:22 14:15 23:58 - 12:01 - - - - 21:12 21:40 12:01
Minimum _ 21,8 °C -0,4 °C 46 % 81 % 1022,6 hPa - 0,0 km/h (0 Bft) - - - - -1,8 °C -12,4 °C 0,0 km/h (0 Bft)
_ Max-Zeit 09:18 13:57 23:58 09:26 00:22 23:58 21:40 - - 09:47 11:55 13:57 12:35 15:08
Maximum _ 24,6 °C 4,7 °C 58 % 92 % 1027,3 hPa 0,0 l/m² 26,6 km/h
S-SW (4 Bft)
- - 3 min 269 W/m² 1,9 °C 4,2 °C 37,0 km/h
S (5 Bft)
Durchschnitt _ 22,5 °C 1,2 °C 51 % 88 % 1025,4 hPa #0,0 l/m² 11,7 km/h (2 Bft) S-SW - #6:03 h 49 W/m² -0,6 °C -3,2 °C 16,2 km/h (3 Bft)
© 2009 Mathias Hoßbach